[[{"header":{"parameterUnit":"m.s-1","parameterCategory":1,"la1":31.0,"la2":29.5877,"lo1":-88.7671,"lo2":-86.6584,"dx":0.0162,"dy":0.0185,"nx":115,"ny":88,"refTime":"2023-01-29T18:00:00:Z","depth":0,"parameterNumber":2,"parameterNumberName":"U-component_of_WINDS"},"data":[0.0,0.0,0.0,0.0,0.0,0.0,0.0,0.0,0.0,0.0,0.0,0.0,0.0,0.0,0.0,0.0,0.0,0.0,0.0,0.0,0.0,0.0,0.0,0.0,0.0,0.0,0.0,0.0,0.0,0.0,0.0,0.0,0.0,0.0,0.0,0.0,0.0,0.0,0.0,0.0,0.0,0.0,0.0,0.0,0.0,0.0,0.0,0.0,0.0,0.0,0.0,0.0,0.0,0.0,0.0,0.0,0.0,0.0,0.0,0.0,0.0,0.0,0.0,0.0,0.0,0.0,0.0,0.0,0.0,0.0,0.0,0.0,0.0,0.0,0.0,0.0,0.0,0.0,0.0,0.0,0.0,0.0,0.0,0.0,0.0,0.0,0.0,0.0,0.0,0.0,0.0,0.0,0.0,0.0,0.0,0.0,0.0,0.0,0.0,0.0,0.0,0.0,0.0,0.0,0.0,0.0,0.0,0.0,0.0,0.0,0.0,0.0,0.0,0.0,0.0,0.0,0.0,0.0,0.0,0.0,0.0,0.0,0.0,0.0,0.0,0.0,0.0,0.0,0.0,0.0,0.0,0.0,0.0,0.0,0.0,0.0,0.0,0.0,0.0,0.0,0.0,0.0,0.0,0.0,0.0,0.0,0.0,0.0,0.0,0.0,0.0,0.0,0.0,0.0,0.0,0.0,0.0,0.0,0.0,0.0,0.0,0.0,0.0,0.0,0.0,0.0,0.0,0.0,0.0,0.0,0.0,0.0,0.0,0.0,0.0,0.0,0.0,0.0,0.0,0.0,0.0,0.0,0.0,0.0,0.0,0.0,0.0,0.0,0.0,0.0,0.0,0.0,0.0,0.0,0.0,0.0,0.0,0.0,0.0,0.0,0.0,0.0,0.0,0.0,0.0,0.0,0.0,0.0,0.0,0.0,0.0,0.0,0.0,0.0,0.0,0.0,0.0,0.0,0.0,0.0,0.0,0.0,0.0,0.0,0.0,0.0,0.0,0.0,0.0,0.0,0.0,0.0,0.0,0.0,0.0,0.0,0.0,0.0,0.0,0.0,0.0,0.0,0.0,0.0,0.0,0.0,0.0,0.0,0.0,0.0,0.0,0.0,0.0,0.0,0.0,0.0,0.0,0.0,0.0,0.0,0.0,0.0,0.0,0.0,0.0,0.0,0.0,0.0,0.0,0.0,0.0,0.0,0.0,0.0,0.0,0.0,0.0,0.0,0.0,0.0,0.0,0.0,0.0,0.0,0.0,0.0,0.0,0.0,0.0,0.0,0.0,0.0,0.0,0.0,0.0,0.0,0.0,0.0,0.0,0.0,0.0,0.0,0.0,0.0,0.0,0.0,0.0,0.0,0.0,0.0,0.0,0.0,0.0,0.0,0.0,0.0,0.0,0.0,0.0,0.0,0.0,0.0,0.0,0.0,0.0,0.0,0.0,0.0,0.0,0.0,0.0,0.0,0.0,0.0,0.0,0.0,0.0,0.0,0.0,0.0,0.0,0.0,0.0,0.0,0.0,0.0,0.0,0.0,0.0,0.0,0.0,0.0,0.0,0.0,0.0,0.0,0.0,0.0,0.0,0.0,0.0,0.0,0.0,0.0,0.0,0.0,0.0,0.0,0.0,0.0,0.0,0.0,0.0,0.0,0.0,0.0,0.0,0.0,0.0,0.0,0.0,0.0,0.0,0.0,0.0,0.0,0.0,0.0,0.0,0.0,0.0,0.0,0.0,0.0,0.0,0.0,0.0,0.0,0.0,0.0,0.0,0.0,0.0,0.0,0.0,0.0,0.0,0.0,0.0,0.0,0.0,0.0,0.0,0.0,0.0,0.0,0.0,0.0,0.0,0.0,0.0,0.0,0.0,0.0,0.0,0.0,0.0,0.0,0.0,0.0,0.0,0.0,0.0,0.0,0.0,0.0,0.0,0.0,0.0,0.0,0.0,0.0,0.0,0.0,0.0,0.0,0.0,0.0,0.0,0.0,0.0,0.0,0.0,0.0,0.0,0.0,0.0,0.0,0.0,0.0,0.0,0.0,0.0,0.0,0.0,0.0,0.0,0.0,0.0,0.0,0.0,0.0,0.0,0.0,0.0,0.0,0.0,0.0,0.0,0.0,0.0,0.0,0.0,0.0,0.0,0.0,0.0,0.0,0.0,0.0,0.0,0.0,0.0,0.0,0.0,0.0,0.0,0.0,0.0,0.0,0.0,0.0,0.0,0.0,0.0,0.0,0.0,0.0,0.0,0.0,0.0,0.0,0.0,0.0,0.0,0.0,0.0,0.0,0.0,0.0,0.0,0.0,0.0,0.0,0.0,0.0,0.0,0.0,0.0,0.0,0.0,0.0,0.0,0.0,0.0,0.0,0.0,0.0,0.0,0.0,0.0,0.0,0.0,0.0,0.0,0.0,0.0,0.0,0.0,0.0,0.0,0.0,0.0,0.0,0.0,0.0,0.0,0.0,0.0,0.0,0.0,0.0,0.0,0.0,0.0,0.0,0.0,0.0,0.0,0.0,0.0,0.0,0.0,0.0,0.0,0.0,0.0,0.0,0.0,0.0,0.0,0.0,0.0,0.0,0.0,0.0,0.0,0.0,0.0,0.0,0.0,0.0,0.0,0.0,0.0,0.0,0.0,0.0,0.0,0.0,0.0,0.0,0.0,0.0,0.0,0.0,0.0,0.0,0.0,0.0,0.0,0.0,0.0,0.0,0.0,0.0,0.0,0.0,0.0,0.0,0.0,0.0,0.0,0.0,0.0,0.0,0.0,0.0,0.0,0.0,0.0,0.0,0.0,0.0,0.0,0.0,0.0,0.0,0.0,0.0,0.0,0.0,0.0,0.0,0.0,0.0,0.0,0.0,0.0,0.0,0.0,0.0,0.0,0.0,0.0,0.0,0.0,0.0,0.0,0.0,0.0,0.0,0.0,0.0,0.0,0.0,0.0,0.0,0.0,0.0,0.0,0.0,0.0,0.0,0.0,0.0,0.0,0.0,0.0,0.0,0.0,0.0,0.0,0.0,0.0,0.0,0.0,0.0,0.0,0.0,0.0,0.0,0.0,0.0,0.0,0.0,0.0,0.0,0.0,0.0,0.0,0.0,0.0,0.0,0.0,0.0,0.0,0.0,0.0,0.0,0.0,0.0,0.0,0.0,0.0,0.0,0.0,0.0,0.0,0.0,0.0,0.0,0.0,0.0,0.0,0.0,0.0,0.0,0.0,0.0,0.0,0.0,0.0,0.0,0.0,0.0,0.0,0.0,0.0,0.0,0.0,0.0,0.0,0.0,0.0,0.0,0.0,0.0,0.0,0.0,0.0,0.0,0.0,0.0,0.0,0.0,0.0,0.0,0.0,0.0,0.0,0.0,0.0,0.0,0.0,0.0,0.0,0.0,0.0,0.0,0.0,0.0,0.0,0.0,0.0,0.0,0.0,0.0,0.0,0.0,0.0,0.0,0.0,0.0,0.0,0.0,0.0,0.0,0.0,0.0,0.0,0.0,0.0,0.0,0.0,0.0,0.0,0.0,0.0,0.0,0.0,0.0,0.0,0.0,0.0,0.0,0.0,0.0,0.0,0.0,0.0,0.0,0.0,0.0,0.0,0.0,0.0,0.0,0.0,0.0,0.0,0.0,0.0,0.0,0.0,0.0,0.0,0.0,0.0,0.0,0.0,0.0,0.0,0.0,0.0,0.0,0.0,0.0,0.0,0.0,0.0,0.0,0.0,0.0,0.0,0.0,0.0,0.0,0.0,0.0,0.0,0.0,0.0,0.0,0.0,0.0,0.0,0.0,0.0,0.0,0.0,0.0,0.0,0.0,0.0,0.0,0.0,0.0,0.0,0.0,0.0,0.0,0.0,0.0,0.0,0.0,0.0,0.0,0.0,0.0,0.0,0.0,0.0,0.0,0.0,0.0,0.0,0.0,0.0,0.0,0.0,0.0,0.0,0.0,0.0,0.0,0.0,0.0,0.0,0.0,0.0,0.0,0.0,0.0,0.0,0.0,0.0,0.0,0.0,0.0,0.0,0.0,0.0,0.0,0.0,0.0,0.0,0.0,0.0,0.0,0.0,0.0,0.0,0.0,0.0,0.0,0.0,0.0,0.0,0.0,0.0,0.0,0.0,0.0,0.0,0.0,0.0,0.0,0.0,0.0,0.0,0.0,0.0,0.0,0.0,0.0,0.0,0.0,0.0,0.0,0.0,0.0,0.0,0.0,0.0,0.0,0.0,0.0,0.0,0.0,0.0,0.0,0.0,0.0,0.0,0.0,-1.6011,0.0,0.0,0.0,0.0,0.0,0.0,0.0,0.0,0.0,0.0,0.0,0.0,0.0,0.0,0.0,0.0,0.0,0.0,0.0,0.0,0.0,0.0,0.0,0.0,0.0,0.0,0.0,0.0,0.0,0.0,0.0,0.0,0.0,0.0,0.0,0.0,0.0,0.0,0.0,0.0,0.0,0.0,0.0,0.0,0.0,0.0,0.0,0.0,0.0,0.0,0.0,0.0,0.0,0.0,0.0,0.0,0.0,0.0,0.0,0.0,0.0,0.0,0.0,0.0,0.0,0.0,0.0,0.0,0.0,0.0,0.0,0.0,0.0,0.0,0.0,0.0,0.0,0.0,0.0,0.0,0.0,0.0,0.0,0.0,0.0,0.0,0.0,0.0,0.0,0.0,0.0,0.0,0.0,0.0,0.0,0.0,0.0,0.0,0.0,0.0,0.0,0.0,0.0,0.0,0.0,0.0,0.0,0.0,0.0,0.0,-0.9864,-1.4873,-1.6648,-1.8113,-1.9294,0.0,0.0,0.0,0.0,0.0,0.0,0.0,0.0,0.0,0.0,0.0,0.0,0.0,0.0,0.0,0.0,0.0,0.0,0.0,0.0,0.0,0.0,0.0,0.0,0.0,0.0,0.0,0.0,0.0,0.0,0.0,0.0,0.0,0.0,0.0,0.0,0.0,0.0,0.0,0.0,0.0,0.0,0.0,0.0,0.0,0.0,0.0,0.0,0.0,0.0,0.0,0.0,0.0,0.0,0.0,0.0,0.0,0.0,0.0,0.0,0.0,0.0,0.0,0.0,0.0,0.0,0.0,0.0,0.0,0.0,0.0,0.0,0.0,0.0,0.0,0.0,0.0,0.0,0.0,0.0,0.0,0.0,0.0,0.0,0.0,0.0,0.0,0.0,0.0,0.0,0.0,0.0,0.0,0.0,0.0,0.0,0.0,0.0,0.0,0.0,0.0,0.0,0.0,0.0,0.0,0.0,0.0,0.0,0.0,0.0,0.0,0.0,-1.8726,-1.8819,-2.0099,0.0,0.0,0.0,0.0,0.0,0.0,0.0,0.0,0.0,0.0,0.0,0.0,0.0,0.0,0.0,0.0,0.0,0.0,0.0,0.0,0.0,0.0,0.0,0.0,0.0,0.0,0.0,0.0,0.0,0.0,0.0,0.0,0.0,0.0,0.0,0.0,0.0,0.0,0.0,0.0,0.0,0.0,0.0,0.0,0.0,0.0,0.0,0.0,0.0,0.0,0.0,0.0,0.0,0.0,0.0,0.0,0.0,0.0,0.0,0.0,0.0,0.0,0.0,0.0,0.0,0.0,0.0,0.0,0.0,0.0,0.0,0.0,0.0,0.0,0.0,0.0,0.0,0.0,0.0,0.0,0.0,0.0,0.0,0.0,0.0,0.0,0.0,0.0,0.0,0.0,0.0,0.0,0.0,0.0,0.0,0.0,0.0,0.0,0.0,0.0,0.0,0.0,0.0,0.0,0.0,0.0,0.0,0.0,0.0,0.0,-1.7532,-2.0047,-2.0345,0.0,-2.0281,0.0,0.0,0.0,0.0,0.0,0.0,0.0,0.0,0.0,0.0,0.0,0.0,0.0,0.0,0.0,0.0,0.0,0.0,0.0,0.0,0.0,0.0,0.0,0.0,0.0,0.0,0.0,0.0,0.0,0.0,0.0,0.0,0.0,0.0,0.0,0.0,0.0,0.0,0.0,0.0,0.0,0.0,0.0,0.0,0.0,0.0,0.0,0.0,0.0,0.0,0.0,0.0,0.0,0.0,0.0,0.0,0.0,0.0,0.0,0.0,0.0,0.0,0.0,0.0,0.0,0.0,0.0,0.0,0.0,0.0,0.0,0.0,0.0,0.0,0.0,0.0,0.0,0.0,0.0,0.0,0.0,0.0,0.0,0.0,0.0,0.0,0.0,0.0,0.0,0.0,0.0,0.0,0.0,0.0,0.0,0.0,0.0,0.0,0.0,0.0,0.0,0.0,0.0,0.0,0.0,0.0,0.0,0.0,0.0,0.0,-1.7214,-1.9552,-2.007,-1.9888,0.0,0.0,0.0,0.0,0.0,0.0,0.0,0.0,0.0,0.0,0.0,0.0,0.0,0.0,0.0,0.0,0.0,0.0,0.0,0.0,0.0,0.0,0.0,0.0,0.0,0.0,0.0,0.0,0.0,0.0,0.0,0.0,0.0,0.0,0.0,0.0,0.0,0.0,0.0,0.0,0.0,0.0,0.0,0.0,0.0,0.0,0.0,0.0,0.0,0.0,0.0,0.0,0.0,0.0,0.0,0.0,0.0,0.0,0.0,0.0,0.0,0.0,0.0,0.0,0.0,0.0,0.0,0.0,0.0,0.0,0.0,0.0,0.0,0.0,0.0,0.0,0.0,0.0,0.0,0.0,0.0,0.0,0.0,0.0,0.0,0.0,0.0,0.0,0.0,0.0,0.0,0.0,0.0,0.0,0.0,0.0,0.0,0.0,0.0,0.0,0.0,0.0,0.0,0.0,0.0,0.0,0.0,0.0,0.0,0.0,-1.5746,-1.662,-1.8925,-1.9232,-1.8967,-1.8236,0.0,0.0,0.0,0.0,0.0,0.0,0.0,0.0,0.0,0.0,0.0,0.0,0.0,0.0,0.0,0.0,0.0,0.0,0.0,0.0,0.0,0.0,0.0,0.0,0.0,0.0,0.0,0.0,0.0,0.0,0.0,0.0,0.0,0.0,0.0,0.0,0.0,0.0,0.0,0.0,0.0,0.0,0.0,0.0,0.0,0.0,0.0,0.0,0.0,0.0,0.0,0.0,0.0,0.0,0.0,0.0,0.0,0.0,0.0,0.0,0.0,0.0,0.0,0.0,0.0,0.0,0.0,0.0,0.0,0.0,0.0,0.0,0.0,0.0,0.0,0.0,0.0,0.0,0.0,0.0,0.0,0.0,0.0,0.0,0.0,0.0,0.0,0.0,0.0,0.0,0.0,0.0,0.0,0.0,0.0,0.0,0.0,0.0,0.0,0.0,0.0,0.0,0.0,0.0,0.0,0.0,0.0,0.0,-1.6954,-1.6133,-1.6617,-1.8659,-1.8096,-1.8103,0.0,0.0,0.0,0.0,0.0,0.0,0.0,0.0,0.0,0.0,0.0,0.0,0.0,0.0,0.0,0.0,0.0,0.0,0.0,0.0,0.0,0.0,0.0,0.0,0.0,0.0,0.0,0.0,0.0,0.0,0.0,0.0,0.0,0.0,0.0,0.0,0.0,0.0,0.0,0.0,0.0,0.0,0.0,0.0,0.0,0.0,0.0,0.0,0.0,0.0,0.0,0.0,0.0,0.0,0.0,0.0,0.0,0.0,0.0,0.0,0.0,0.0,0.0,0.0,0.0,0.0,0.0,0.0,0.0,0.0,0.0,0.0,0.0,0.0,0.0,0.0,0.0,0.0,0.0,0.0,0.0,0.0,0.0,0.0,0.0,0.0,0.0,0.0,0.0,0.0,0.0,0.0,0.0,0.0,0.0,0.0,0.0,0.0,0.0,0.0,0.0,0.0,0.0,0.0,0.0,0.0,0.0,0.0,0.0,-1.6048,-1.6595,-1.6643,-1.641,-1.714,-1.733,0.0,0.0,0.0,0.0,0.0,0.0,0.0,0.0,0.0,0.0,0.0,0.0,0.0,0.0,0.0,0.0,0.0,0.0,0.0,0.0,0.0,0.0,0.0,0.0,0.0,0.0,0.0,0.0,0.0,0.0,0.0,0.0,0.0,0.0,0.0,0.0,0.0,0.0,0.0,0.0,0.0,0.0,0.0,0.0,0.0,0.0,0.0,0.0,0.0,0.0,0.0,0.0,0.0,0.0,0.0,0.0,0.0,0.0,0.0,0.0,0.0,0.0,0.0,0.0,0.0,0.0,0.0,0.0,0.0,0.0,0.0,0.0,0.0,0.0,0.0,0.0,0.0,0.0,0.0,0.0,0.0,0.0,0.0,0.0,0.0,0.0,0.0,0.0,0.0,0.0,0.0,0.0,0.0,0.0,0.0,0.0,0.0,0.0,0.0,0.0,0.0,0.0,0.0,0.0,0.0,0.0,0.0,0.0,0.0,-1.5332,0.0,-1.6201,-1.5171,-1.6143,-1.6423,0.0,0.0,0.0,0.0,0.0,0.0,0.0,0.0,0.0,0.0,0.0,0.0,0.0,0.0,0.0,0.0,0.0,0.0,0.0,0.0,0.0,0.0,0.0,0.0,0.0,0.0,0.0,0.0,0.0,0.0,0.0,0.0,0.0,0.0,0.0,0.0,0.0,0.0,0.0,0.0,0.0,0.0,0.0,0.0,0.0,0.0,0.0,0.0,0.0,0.0,0.0,0.0,0.0,0.0,0.0,0.0,0.0,0.0,0.0,0.0,0.0,0.0,0.0,0.0,0.0,0.0,0.0,0.0,0.0,0.0,0.0,0.0,0.0,0.0,0.0,0.0,0.0,0.0,0.0,0.0,0.0,0.0,0.0,0.0,0.0,0.0,0.0,0.0,0.0,0.0,0.0,0.0,0.0,0.0,0.0,0.0,0.0,0.0,0.0,0.0,0.0,0.0,0.0,0.0,0.0,0.0,0.0,0.0,-1.4179,-1.4877,-1.5092,-1.5197,-1.5189,-1.5094,-1.5461,0.0,0.0,0.0,0.0,0.0,0.0,0.0,0.0,0.0,0.0,0.0,0.0,0.0,0.0,0.0,0.0,0.0,0.0,0.0,0.0,0.0,0.0,0.0,0.0,0.0,0.0,0.0,0.0,0.0,0.0,0.0,0.0,0.0,0.0,0.0,0.0,0.0,0.0,0.0,0.0,0.0,0.0,0.0,0.0,0.0,0.0,0.0,0.0,0.0,0.0,0.0,0.0,0.0,0.0,0.0,0.0,0.0,0.0,0.0,0.0,0.0,0.0,0.0,0.0,0.0,0.0,0.0,0.0,0.0,0.0,0.0,0.0,0.0,0.0,0.0,0.0,0.0,0.0,0.0,0.0,0.0,0.0,0.0,0.0,0.0,0.0,0.0,0.0,0.0,0.0,0.0,0.0,0.0,0.0,0.0,0.0,0.0,0.0,0.0,0.0,0.0,0.0,0.0,0.0,0.0,0.0,0.0,0.0,0.0,-1.469,-1.426,-1.4349,-1.5011,-1.4396,-1.4377,0.0,0.0,0.0,0.0,0.0,0.0,0.0,0.0,0.0,0.0,0.0,0.0,0.0,0.0,0.0,0.0,0.0,0.0,0.0,0.0,0.0,0.0,0.0,0.0,0.0,0.0,0.0,0.0,0.0,0.0,0.0,0.0,0.0,0.0,0.0,0.0,0.0,0.0,0.0,0.0,0.0,0.0,0.0,0.0,0.0,0.0,0.0,0.0,0.0,0.0,0.0,0.0,0.0,0.0,0.0,0.0,0.0,0.0,0.0,0.0,0.0,0.0,0.0,0.0,0.0,0.0,0.0,0.0,0.0,0.0,0.0,0.0,0.0,0.0,0.0,0.0,0.0,0.0,0.0,0.0,0.0,0.0,0.0,0.0,0.0,0.0,0.0,0.0,0.0,0.0,0.0,0.0,0.0,0.0,0.0,0.0,0.0,0.0,0.0,0.0,0.0,0.0,0.0,0.0,0.0,0.0,0.0,0.0,0.0,-1.1229,-1.1238,-1.1541,-1.2273,-1.1999,-1.2718,-1.4458,0.0,0.0,0.0,0.0,0.0,0.0,0.0,0.0,0.0,0.0,0.0,0.0,0.0,0.0,0.0,0.0,0.0,0.0,0.0,0.0,0.0,0.0,0.0,0.0,0.0,0.0,0.0,0.0,0.0,0.0,0.0,0.0,0.0,0.0,0.0,0.0,0.0,0.0,0.0,0.0,0.0,0.0,0.0,0.0,0.0,0.0,0.0,0.0,0.0,0.0,0.0,0.0,0.0,0.0,0.0,0.0,0.0,0.0,0.0,0.0,0.0,0.0,0.0,0.0,0.0,0.0,0.0,0.0,0.0,0.0,0.0,0.0,0.0,0.0,0.0,0.0,0.0,0.0,0.0,0.0,0.0,0.0,0.0,0.0,0.0,0.0,0.0,0.0,0.0,0.0,0.0,0.0,0.0,0.0,0.0,0.0,0.0,0.0,0.0,0.0,0.0,0.0,0.0,0.0,0.0,0.0,0.0,0.0,-0.5242,-0.6075,-0.6748,-0.7356,-0.8288,-1.0505,0.0,0.0,0.0,0.0,0.0,0.0,0.0,0.0,0.0,0.0,0.0,0.0,0.0,0.0,0.0,0.0,0.0,0.0,0.0,0.0,0.0,0.0,0.0,0.0,0.0,0.0,0.0,0.0,0.0,0.0,0.0,0.0,0.0,0.0,0.0,0.0,0.0,0.0,0.0,0.0,0.0,0.0,0.0,0.0,0.0,0.0,0.0,0.0,0.0,0.0,0.0,0.0,0.0,0.0,0.0,0.0,0.0,0.0,0.0,0.0,0.0,0.0,0.0,0.0,0.0,0.0,0.0,0.0,0.0,0.0,0.0,0.0,0.0,0.0,0.0,0.0,0.0,0.0,0.0,0.0,0.0,0.0,0.0,0.0,0.0,0.0,0.0,0.0,0.0,0.0,0.0,0.0,0.0,0.0,0.0,0.0,0.0,0.0,0.0,0.0,0.0,0.0,0.0,0.0,0.0,0.0,0.0,0.0,0.0,-0.0897,0.1778,0.1163,-0.3046,-0.5808,-0.7927,0.0,0.0,0.0,0.0,0.0,0.0,0.0,0.0,0.0,0.0,0.0,0.0,0.0,0.0,0.0,0.0,0.0,0.0,0.0,0.0,0.0,0.0,0.0,0.0,0.0,0.0,0.0,0.0,0.0,0.0,0.0,0.0,0.0,0.0,0.0,0.0,0.0,0.0,0.0,0.0,0.0,0.0,0.0,0.0,0.0,0.0,0.0,0.0,0.0,0.0,0.0,0.0,0.0,0.0,0.0,0.0,0.0,0.0,0.0,0.0,0.0,0.0,0.0,0.0,0.0,0.0,0.0,0.0,0.0,0.0,0.0,0.0,0.0,0.0,0.0,0.0,0.0,0.0,0.0,0.0,0.0,0.0,0.0,0.0,0.0,0.0,0.0,0.0,0.0,0.0,0.0,0.0,0.0,0.0,0.0,0.0,0.0,0.0,0.0,0.0,0.0,0.0,0.0,0.0,0.0,0.0,0.0,0.0,-0.0383,0.1904,0.698,0.7947,0.4399,-0.1318,-0.5134,0.0,0.0,0.0,0.0,0.0,0.0,0.0,0.0,0.0,0.0,0.0,0.0,0.0,0.0,0.0,0.0,0.0,0.0,0.0,0.0,0.0,0.0,0.0,0.0,0.0,0.0,0.0,0.0,0.0,0.0,0.0,0.0,0.0,0.0,0.0,0.0,0.0,0.0,0.0,0.0,0.0,0.0,0.0,0.0,0.0,0.0,0.0,0.0,0.0,0.0,0.0,0.0,0.0,0.0,0.0,0.0,0.0,0.0,0.0,0.0,0.0,0.0,0.0,0.0,0.0,0.0,0.0,0.0,0.0,0.0,0.0,0.0,0.0,0.0,0.0,0.0,0.0,0.0,0.0,0.0,0.0,0.0,0.0,0.0,0.0,0.0,0.0,0.0,0.0,0.0,0.0,0.0,0.0,0.0,0.0,0.0,0.0,0.0,0.0,0.0,0.0,0.0,0.0,0.0,0.0,0.0,0.0,0.0,0.2435,0.3951,1.0122,1.3141,1.2348,0.3758,-0.2205,0.0,0.0,0.0,0.0,0.0,0.0,0.0,0.0,0.0,0.0,0.0,0.0,0.0,0.0,0.0,0.0,0.0,0.0,0.0,0.0,0.0,0.0,0.0,0.0,0.0,0.0,0.0,0.0,0.0,0.0,0.0,0.0,0.0,0.0,0.0,0.0,0.0,0.0,0.0,0.0,0.0,0.0,0.0,0.0,0.0,0.0,0.0,0.0,0.0,0.0,0.0,0.0,0.0,0.0,0.0,0.0,0.0,0.0,0.0,0.0,0.0,0.0,0.0,0.0,0.0,0.0,0.0,0.0,0.0,0.0,0.0,0.0,0.0,0.0,0.0,0.0,0.0,0.0,0.0,0.0,0.0,0.0,0.0,0.0,0.0,0.0,0.0,0.0,0.0,0.0,0.0,0.0,0.0,0.0,0.0,0.0,0.0,0.0,0.0,0.0,0.0,0.0,0.0,0.0,0.0,0.0,0.0,0.0,0.3469,0.7291,1.1304,1.3329,1.3176,0.5271,0.0653,0.0,0.0,0.0,0.0,0.0,0.0,0.0,0.0,0.0,0.0,0.0,0.0,0.0,0.0,0.0,0.0,0.0,0.0,0.0,0.0,0.0,0.0,0.0,0.0,0.0,0.0,0.0,0.0,0.0,0.0,0.0,0.0,0.0,0.0,0.0,0.0,0.0,0.0,0.0,0.0,0.0,0.0,0.0,0.0,0.0,0.0,0.0,0.0,-0.3319,0.0,0.0,0.0,0.0,0.0,0.0,0.0,0.0,0.0,0.0,0.0,0.0,0.0,0.0,0.0,0.0,0.0,0.0,0.0,0.0,0.0,0.0,0.0,0.0,0.0,0.0,0.0,0.0,0.0,0.0,0.0,0.0,0.0,0.0,0.0,0.0,0.0,0.0,0.0,0.0,0.0,0.0,0.0,0.0,0.0,0.0,0.0,0.0,0.0,0.0,0.0,0.0,0.0,0.0,0.0,0.0,0.0,0.0,0.0,0.4327,0.85,1.1867,1.3542,1.3209,0.7891,0.4042,0.0,0.0,0.0,0.0,0.0,0.0,0.0,0.0,0.0,0.0,0.0,0.0,0.0,0.0,0.0,0.0,0.0,0.0,0.0,0.0,0.0,0.0,0.0,0.0,0.0,0.0,0.0,0.0,0.0,0.0,0.0,0.0,0.0,0.0,0.0,0.0,0.0,0.0,0.0,0.0,0.0,0.0,0.0,0.0,0.0,0.0,0.0,0.0,0.0,0.0,0.0,0.0,0.0,0.0,0.0,0.0,0.0,0.0,0.0,0.0,0.0,0.0,0.0,0.0,0.0,0.0,0.0,0.0,0.0,0.0,0.0,0.0,0.0,0.0,0.0,0.0,0.0,0.0,0.0,0.0,0.0,0.0,0.0,0.0,0.0,0.0,0.0,0.0,0.0,0.0,0.0,0.0,0.0,0.0,0.0,0.0,0.0,0.0,0.0,0.0,0.0,0.0,0.0,0.0,0.0,0.0,0.0,0.0318,0.5048,0.9467,1.2341,1.3674,1.3362,1.0349,0.6932,0.3183,0.0,0.0,0.0,0.0,0.0,0.0,0.0,0.0,0.0,0.0,0.0,0.0,0.0,0.0,0.0,0.0,0.0,0.0,0.0,0.0,0.0,0.0,0.0,0.0,0.0,0.0,0.0,0.0,0.0,0.0,0.0,0.0,0.0,0.0,0.0,0.0,0.0,0.0,-0.3847,-0.3681,0.0,0.0,0.0,0.0,0.0,0.0,0.0,0.0,0.5217,0.0,0.0,0.0,0.0,0.0,0.0,0.0,0.0,0.0,0.0,0.0,0.0,0.0,0.0,0.0,0.0,0.0,0.0,0.0,0.0,0.0,0.0,0.0,0.0,0.0,0.0,0.0,0.0,0.0,0.0,0.0,0.0,0.0,0.0,0.0,0.0,0.0,0.0,0.0,0.0,0.0,0.0,0.0,0.0,0.0,0.0,0.0,0.0,0.0,0.0,0.0,0.0,0.0,0.0,0.0,0.0,-0.1005,0.1183,0.5748,1.2763,1.3502,1.3674,1.3328,1.0346,0.7166,0.3911,0.0,0.0,0.0,0.0,0.0,0.0,0.0,0.0,0.0,0.0,0.0,0.0,0.0,0.0,0.0,0.0,0.0,0.0,0.0,0.0,0.0,0.0,0.0,0.0,0.0,0.0,0.0,0.0,0.0,0.0,0.0,0.0,0.0,0.0,0.0,0.0,0.0,0.0,0.0,-0.196,-0.2057,0.0,0.0,0.0,0.0,0.0,0.0,0.0,0.0,0.4621,0.0,0.0,0.0,0.0,0.0,0.0,0.0,0.0,0.0,0.0,0.0,0.0,0.0,0.0,0.0,0.0,0.0,0.0,0.0,0.0,0.0,0.0,0.0,0.0,0.0,0.0,0.0,0.0,0.0,0.0,0.0,0.0,0.0,0.0,0.0,0.0,0.0,0.0,0.0,0.0,0.0,0.0,0.0,0.0,0.0,0.0,0.0,0.0,0.0,0.0,0.0,0.0,0.0,0.0,0.0,0.0634,0.4229,0.8636,1.3883,1.4111,1.3971,1.3596,1.0547,0.7388,0.0,0.0,0.0,0.0,0.0,0.0,0.0,0.0,0.0,0.0,0.0,0.0,0.0,0.0,0.0,0.0,0.0,0.0,0.0,0.0,0.0,0.0,0.0,0.0,0.0,0.0,0.0,0.0,0.0,0.0,0.0,0.0,0.0,0.0,0.0,0.0,0.0,0.0,0.0,0.0,0.4434,0.7321,1.027,0.0,0.0,0.0,0.0,0.0,0.0,1.112,1.2733,0.0,0.0,0.0,0.0,0.0,0.0,0.0,0.0,0.0,0.0,0.0,0.0,0.0,0.0,0.0,0.0,0.0,0.0,0.0,0.0,0.0,0.0,0.0,0.0,0.0,0.0,0.0,0.0,0.0,0.0,0.0,0.0,0.0,0.0,0.0,0.0,0.0,0.0,0.0,0.0,0.0,0.0,0.0,0.0,0.0,0.0,0.0,0.0,0.0,0.0,0.0,0.0,0.0,0.0,0.0,0.1448,0.6688,1.1029,1.4213,1.4412,1.4247,1.3842,1.0111,0.6919,0.0,0.0,0.0,0.0,0.0,0.0,0.0,0.0,0.0,0.0,0.0,0.0,0.0,0.0,0.0,0.0,0.0,0.0,0.0,0.0,0.0,0.0,0.0,0.0,0.0,0.0,0.0,0.0,0.0,0.0,0.0,0.0,0.0,0.0,0.0,0.0,0.0,0.0,0.0,0.0,0.0,1.4433,1.7006,0.8865,0.0,0.0,0.0,0.0,1.648,1.7559,0.0,0.0,0.0,0.0,0.0,0.0,0.0,0.0,0.0,0.0,0.0,0.0,0.0,0.0,0.0,0.0,0.0,0.0,0.0,0.0,0.0,0.0,0.0,0.0,0.0,0.0,0.0,0.0,0.0,0.0,0.0,0.0,0.0,0.0,0.0,0.0,0.0,0.0,0.0,0.0,0.0,0.0,0.0,0.0,0.0,0.0,0.0,0.0,0.0,0.0,0.0,0.0,0.0,0.0,0.0,0.0,0.0882,0.6041,1.0558,1.4176,1.44,1.4247,1.3825,0.8087,0.4931,0.0,0.0,0.0,0.0,0.0,0.0,0.0,0.0,0.0,0.0,0.0,0.0,0.0,0.0,0.0,0.0,0.0,0.0,0.0,0.0,0.0,0.0,0.0,0.0,0.0,0.0,0.0,0.0,0.0,0.0,0.0,0.0,0.0,0.0,0.0,0.0,0.0,0.0,0.0,0.0,0.0,0.9104,1.4898,1.2826,0.8158,0.0,0.0,0.0,1.909,1.5699,0.0,0.0,0.0,0.0,0.0,0.0,0.0,0.0,0.0,0.0,0.0,0.0,0.0,0.0,0.0,0.0,0.0,0.0,0.0,0.0,0.0,0.0,0.0,0.0,0.0,0.0,0.0,0.0,0.0,0.0,0.0,0.0,0.0,0.0,0.0,0.0,0.0,0.0,0.0,0.0,0.0,0.0,0.0,0.0,0.0,0.0,0.0,0.0,0.0,0.0,0.0,0.0,0.0,0.0,0.0,-0.0647,0.133,0.8356,1.2761,1.4229,1.4302,1.4183,1.3896,0.7727,0.4586,0.0,0.0,0.0,0.0,0.0,0.0,0.0,0.0,0.0,0.0,0.0,0.0,0.0,0.0,0.0,0.0,0.0,0.0,0.0,0.0,0.0,0.0,0.0,0.0,0.0,0.0,0.0,0.0,0.0,0.0,0.0,0.0,0.0,0.0,0.0,0.0,0.0,0.0,0.0,0.0,0.0,0.0,1.4424,1.4456,0.0,0.0,0.0,1.3412,1.9374,0.0,0.0,0.0,0.0,0.0,0.0,0.0,0.0,0.0,0.0,0.0,0.0,0.0,0.0,0.0,0.0,0.0,0.0,0.0,0.0,0.0,0.0,0.0,0.0,0.0,0.0,0.0,0.0,0.0,0.0,0.0,0.0,0.0,0.0,0.0,0.0,0.0,0.0,0.0,0.0,0.0,0.0,0.0,0.0,0.0,0.0,0.0,0.0,0.0,0.0,0.0,0.0,0.0,0.0,0.0,0.0,0.0,0.1474,1.0117,1.4485,1.4136,1.4219,1.418,1.3807,0.8516,0.0,0.0,0.0,0.0,0.0,0.0,0.0,0.0,0.0,0.0,0.0,0.0,0.0,0.0,0.0,0.0,0.0,0.0,0.0,0.0,0.0,0.0,0.0,0.0,0.0,0.0,0.0,0.4759,0.0,0.0,0.0,0.0,0.0,0.0,0.0,0.0,0.0,0.0,0.0,0.0,0.0,0.0,1.1101,1.414,1.4708,1.3806,0.0,0.0,1.2358,1.9247,2.0173,1.7497,0.0,0.0,0.0,0.0,0.0,0.0,0.0,0.0,0.0,0.0,0.0,0.0,0.0,0.0,0.0,0.0,0.0,0.0,0.0,0.0,0.0,0.0,0.0,0.0,0.0,0.0,0.0,0.0,0.0,0.0,0.0,0.0,0.0,0.0,0.0,0.0,0.0,0.0,0.0,0.0,0.0,0.0,0.0,0.0,0.0,0.0,0.0,0.0,0.0,0.0,0.0,0.0,0.0,0.0,0.0,0.144,0.9957,1.432,1.3953,1.4296,1.4295,1.3842,1.0702,0.8284,0.0,0.0,0.0,0.0,0.0,0.0,0.0,0.0,0.0,0.0,0.0,0.0,0.0,0.0,0.0,0.0,0.0,0.0,0.0,0.0,0.0,0.0,0.0,0.0,0.0,0.0,0.0,0.0,0.0,0.0,0.0,0.0,0.0,0.0,0.0,0.0,0.0,0.0,0.0,0.0,0.0,1.3087,1.3526,1.3449,1.3269,0.0,0.0,1.2054,1.9255,2.0189,1.8691,1.455,0.0,0.0,0.0,0.0,0.0,0.0,0.0,0.0,0.0,0.0,0.0,0.0,0.0,0.0,0.0,0.0,0.0,0.0,0.0,0.0,0.0,0.0,0.0,0.0,0.0,0.0,0.0,0.0,0.0,0.0,0.0,0.0,0.0,0.0,0.0,0.0,0.0,0.0,0.0,0.0,0.0,0.0,0.0,0.0,0.0,0.0,0.0,0.0,0.0,0.0,0.0,0.0,0.0,0.1835,0.2306,1.0195,1.4245,1.4105,1.4227,1.4188,1.3896,1.0907,0.8186,0.0,0.0,0.0,0.0,0.0,0.0,0.0,0.0,0.0,0.0,0.0,0.0,0.0,0.0,0.0,0.0,0.0,0.0,0.0,0.0,0.0,0.0,0.0,0.0,0.0,0.0,0.0,0.0,0.8431,1.0301,0.9606,0.0,0.0,0.0,0.0,0.0,0.0,0.0,0.0,0.0,0.0,1.3209,1.4934,1.6575,0.0,0.0,1.5794,1.6016,1.5526,1.6637,1.5724,1.0514,1.0837,0.0,0.0,0.0,0.0,0.0,0.0,0.0,0.0,0.0,0.0,0.0,0.0,0.0,0.0,0.0,0.0,0.0,0.0,0.0,0.0,0.0,0.0,0.0,0.0,0.0,0.0,0.0,0.0,0.0,0.0,0.0,0.0,0.0,0.0,0.0,0.0,0.0,0.0,0.0,0.0,0.0,0.0,0.0,0.0,0.0,0.0,0.0,0.0,0.0,0.0,0.0,0.0,0.2626,0.3815,1.0621,1.411,1.411,1.4162,1.411,1.386,1.186,0.9557,0.0,0.0,0.0,0.0,0.0,0.0,0.0,0.0,0.0,0.0,0.0,0.0,0.0,0.0,0.0,0.0,0.0,0.0,0.0,0.0,0.0,0.0,0.0,0.0,0.0,0.0,0.0,0.0,0.8685,0.8852,0.9777,0.0,0.0,0.0,0.0,0.0,0.0,0.0,0.0,0.0,0.0,1.3795,1.4947,1.7241,1.8,1.5638,1.6401,1.6094,1.2903,1.3773,1.3435,0.9289,0.0,0.0,0.0,0.0,0.0,0.0,0.0,0.0,0.0,0.0,0.0,0.0,0.0,0.0,0.0,0.0,0.0,0.0,0.0,0.0,0.0,0.0,0.0,0.0,0.0,0.0,0.0,0.0,0.0,0.0,0.0,0.0,0.0,0.0,0.0,0.0,0.0,0.0,0.0,0.0,0.0,0.0,0.0,0.0,0.0,0.0,0.0,0.0,0.0,0.0,0.0,0.0,0.0,0.0,0.5843,1.1156,1.3884,1.3908,1.4077,1.411,1.391,1.3989,1.319,1.1315,0.0,0.0,0.0,0.0,0.0,0.0,0.0,0.0,0.0,0.0,0.0,0.0,0.0,0.0,0.0,0.0,0.0,0.0,0.0,0.0,0.0,0.0,0.0,0.0,0.0,0.0,1.4623,0.7249,0.4589,0.0,0.0,0.0,0.0,0.0,0.0,0.0,0.0,0.0,0.0,1.2877,1.5241,1.3004,1.4131,1.4668,1.2992,1.1269,1.0646,1.2191,1.2448,1.2583,0.0,0.0,0.0,0.0,0.0,0.0,0.0,0.0,0.0,0.0,0.0,0.0,0.0,0.0,0.0,0.0,0.0,0.0,0.0,0.0,0.0,0.0,0.0,0.0,0.0,0.0,0.0,0.0,0.0,0.0,0.0,0.0,0.0,0.0,0.0,0.0,0.0,0.0,0.0,0.0,0.0282,0.095,0.0,0.0,0.0,0.0,0.0,0.0,0.0,0.0,0.0,0.0,0.0,0.0,0.3138,0.6415,1.1206,1.3774,1.3902,1.3962,1.3966,1.3896,1.3969,1.3308,1.1786,0.0,0.0,0.0,0.0,0.0,0.0,0.0,0.0,0.0,0.0,0.0,0.0,0.0,0.0,0.0,0.0,0.0,0.0,0.0,0.0,0.0,0.0,0.0,0.0,0.0,1.0254,0.0,0.0,0.0,0.0,0.0,0.0,0.0,0.0,0.0,0.0,0.0,1.0596,1.2396,1.2234,1.251,1.3991,1.2721,1.2431,0.0,0.0,0.0,0.0,0.0,0.0,0.0,0.0,0.0,0.0,0.0,0.0,0.0,0.0,0.975,0.9118,0.9854,1.0305,0.9357,0.0,0.0,0.0,0.0,0.0,0.0,0.0,0.0,0.0,0.0,0.0,0.0,0.0,0.0,0.0,0.0,-0.0062,0.0,0.0,0.0,0.0,0.0,0.0,0.0,0.0,0.2527,0.431,0.524,0.6271,0.6636,0.0,0.6734,0.3265,0.0,0.0,0.0,0.0,0.0,0.0,0.0,0.0,0.321,0.6958,1.1282,1.3644,1.3885,1.3811,1.3842,1.3913,1.3966,1.3666,1.2934,1.0447,0.8708,0.0,0.0,0.0,0.0,0.0,0.0,0.0,0.0,0.0,0.0,0.0,0.0,0.0,0.0,0.0,0.0,0.0,0.0,0.0,0.0,0.0,0.0,0.0,0.6865,0.0,0.0,0.0,0.0,0.0,0.0,0.0,0.0,0.0,0.8265,1.0121,1.2449,1.5084,1.3538,1.2436,1.3141,0.0,0.0,0.0,0.0,0.0,0.0,0.0,0.8653,0.8435,0.9037,1.1034,1.5508,1.2346,0.9852,1.1805,0.0,0.0,1.0518,1.0967,1.1406,1.048,0.9962,0.9441,0.8719,0.7969,0.7125,0.0,0.0,0.0,0.0,0.0,0.0,0.0,0.0,0.4914,0.2426,0.0,0.0,0.0,0.0,0.0,0.0,0.0,0.0,0.0,0.0,1.3713,1.5655,1.1207,1.2147,1.2271,1.1422,1.1423,0.9439,0.579,0.4679,0.0,0.0,0.0,0.0,0.0,0.0,0.4128,0.781,1.1514,1.3576,1.3909,1.3746,1.3746,1.3976,1.4175,1.4438,1.476,1.365,1.2903,1.2566,1.0644,0.0,0.0,0.0,0.0,0.0,0.0,0.0,0.0,0.0,0.0,0.0,0.0,0.0,0.0,0.0,0.0,0.0,0.0,0.0,0.0,0.5558,0.0,0.0,0.0,0.0,0.0,0.0,0.0,0.0,0.0,0.0,0.9622,1.1177,1.3378,1.6199,0.0,0.0,0.0,0.0,1.0519,0.5634,0.4769,0.4934,0.5101,0.7746,1.0834,1.3883,0.0,0.0,1.7493,1.5219,1.3324,1.2848,1.5453,1.6528,1.2564,1.1621,1.1265,1.1197,1.0913,1.0126,0.9193,0.9265,0.8959,0.5646,0.0,0.0,0.0,0.0,0.5943,0.7975,1.1499,1.1003,1.0357,0.9603,0.9794,0.0,0.0,0.0,0.0,0.0,0.0,0.7647,0.9584,1.229,1.4082,1.5166,1.5884,1.6028,1.5656,1.6022,1.5243,1.3516,1.3154,0.9174,0.1767,0.0,0.0,0.0,0.0,0.8842,1.1284,1.2719,1.3701,1.4315,1.4262,1.4517,1.5103,1.533,1.545,1.5574,1.5258,1.4942,1.4582,1.4212,0.0,0.0,0.0,0.0,0.0,0.0,0.0,0.0,0.0,0.0,0.0,0.0,0.0,0.0,0.0,0.0,0.0,0.0,0.0,0.7779,0.8876,0.9213,0.0,0.0,0.0,0.0,0.0,0.0,0.0,0.0,0.0,1.3101,1.5173,1.5839,0.0,0.0,1.0286,1.6596,1.3005,0.932,0.8318,0.0,0.0,0.0,1.2192,1.1951,1.2891,1.4439,1.5571,1.582,1.679,1.7418,1.6905,1.7542,1.7648,1.633,1.5261,1.4692,1.4643,1.4203,1.3552,1.2828,1.2351,1.1849,1.093,1.0248,0.8103,0.8152,0.9681,1.0013,1.2332,1.585,1.5869,1.5082,1.3864,1.4852,1.2127,0.6688,0.5593,0.0,0.0,0.0,1.0931,1.4134,1.443,1.5545,1.7195,1.7909,1.792,1.7436,1.775,1.7346,1.6211,1.5532,1.2305,0.662,0.0,0.0,0.55,0.9875,1.207,1.2031,1.3494,1.4479,1.4936,1.4948,1.5208,1.5735,1.5779,1.5973,1.637,1.6552,1.6553,1.6362,1.6442,1.4766,0.0,0.0,0.0,0.0,0.0,0.0,0.0,0.0,0.0,0.0,0.0,1.0414,0.0,0.0,0.0,0.0,0.9961,1.0008,0.9444,1.077,0.0,0.0,0.0,0.0,0.0,0.0,0.0,1.0127,1.1674,1.3405,1.4706,1.5555,1.5389,1.3618,1.161,1.2324,1.769,0.0,1.2485,1.1904,1.2699,1.3939,1.5545,1.5339,1.5137,1.5753,1.6502,1.6869,1.6766,1.8196,1.9123,1.8825,1.851,1.8217,1.7915,1.7086,1.6395,1.6265,1.5802,1.5203,1.4397,1.347,1.2512,1.5457,1.6081,1.0141,0.9724,1.2964,1.3812,1.6155,1.9341,1.9452,1.7511,1.455,1.8678,1.5975,0.8199,0.7465,0.0,0.0,1.3152,1.4813,1.8196,1.8913,1.8729,1.7815,1.8588,1.8431,1.7488,1.7524,1.6867,1.5609,1.4029,1.2909,1.2291,1.2338,1.1391,0.973,1.3212,1.3649,1.0688,1.3733,1.5526,1.5849,1.5917,1.6089,1.6354,1.6062,1.6404,1.7285,1.7746,1.8004,1.8054,1.7851,1.7043,1.5491,0.0,0.0,0.0,0.0,0.0,0.0,0.0,0.0,0.0,0.0,0.0,0.0,0.0,0.0,0.0,1.2255,0.0,1.219,1.1672,0.0,0.0,0.0,1.2428,1.5647,1.5581,1.5123,1.471,0.0,0.0,0.0,0.0,1.3656,1.533,1.739,1.7996,1.6169,1.7727,1.8172,1.6075,1.5655,1.5582,1.6195,1.7587,1.9119,2.018,2.0986,2.0252,1.9136,1.9054,1.9164,1.8984,1.8586,1.8217,1.8045,1.7311,1.6707,1.6297,1.5966,1.5416,1.4485,1.3095,1.1632,1.5669,1.6748,1.5809,1.627,1.7723,1.8522,1.9365,2.0244,2.0904,2.1025,2.076,2.1274,1.9931,1.7311,1.713,1.7344,1.7838,1.7567,1.7899,1.8761,1.8771,1.8627,1.8395,1.861,1.8447,1.8049,1.8038,1.7463,1.6431,1.575,1.4562,1.2936,1.2401,1.1015,0.8868,0.9872,1.0684,1.1196,1.2849,1.5127,1.8008,1.8674,1.9002,1.9056,1.9,1.9073,1.9318,1.9411,1.9774,2.0331,2.0332,1.8813,1.5612,1.555,0.0,0.0,0.0,0.0,0.0,0.0,0.0,0.0,0.0,1.1007,0.7709,0.0,0.969,0.0,1.1562,1.3436,1.2184,1.3912,0.0,0.0,1.4175,1.4285,1.5585,1.6456,1.6276,1.4385,1.5241,1.6276,1.7019,1.7308,1.8408,2.0779,1.7654,1.6996,2.2077,2.0621,1.9691,2.1183,2.1138,2.0974,2.0779,2.082,2.0677,2.0172,2.0134,1.9838,1.912,1.9035,1.8983,1.8734,1.8432,1.8052,1.753,1.7085,1.6616,1.605,1.5577,1.5096,1.4516,1.2899,1.1402,1.6464,1.7458,1.7913,1.8775,1.9858,2.0301,2.0503,2.0576,2.1418,2.2042,2.2428,2.1862,2.128,2.0662,2.0209,1.9918,1.9754,1.9337,1.9353,1.9787,1.9651,1.953,1.9388,1.9069,1.877,1.8498,1.7838,1.7164,1.6545,1.6446,1.5633,1.4108,1.4125,1.2857,1.0358,0.9706,0.9904,1.0858,1.3016,1.585,1.9236,1.9807,1.9755,1.9184,1.9027,1.8697,1.8114,1.8309,1.8656,1.9078,1.9214,1.8108,1.5516,1.4813,1.3059,0.0,0.0,0.0,0.0,0.0,0.0,0.0,0.0,0.0,0.0,0.0,1.1207,0.0,1.2375,0.0,1.3173,1.5277,1.6711,1.6644,1.6322,1.669,1.8153,1.8677,1.8377,1.7033,1.7727,1.878,1.9942,2.0165,2.1201,2.3822,2.088,2.0134,2.4284,2.3331,2.252,2.4188,2.4209,2.3813,2.3457,2.2667,2.1703,2.0599,2.0049,1.96,1.9101,1.9067,1.9017,1.866,1.8393,1.8031,1.7346,1.6987,1.6538,1.5707,1.514,1.4761,1.4452,1.2816,1.1314,1.7513,1.8262,1.8262,1.9124,2.0503,2.0594,2.0723,2.0888,2.173,2.2115,2.2079,2.1862,2.1504,2.1057,2.0174,1.9965,2.0287,1.971,1.9878,2.06,2.0662,2.058,2.0325,1.9688,1.9264,1.8978,1.7676,1.692,1.67,1.6827,1.6358,1.536,1.6072,1.5092,1.2448,1.1052,1.0467,1.0713,1.4004,1.7108,1.9895,1.9712,1.9077,1.8089,1.781,1.7137,1.6018,1.6376,1.6598,1.6528,1.6728,1.6529,1.5735,1.2961,1.2246,0.0,1.1223,0.0,0.0,0.0,0.0,0.0,0.0,0.0,0.0,1.3873,1.3168,1.3621,1.3899,1.432,1.4859,1.6431,1.8007,1.9457,1.88,1.9134,2.1335,2.0987,2.0465,2.0408,2.0561,2.1238,2.2402,2.2306,2.291,2.4639,2.4424,2.4193,2.5271,2.5286,2.5123,2.539,2.5351,2.4812,2.3915,2.3189,2.2277,2.1136,2.0258,1.9612,1.9102,1.9099,1.9081,1.8624,1.8275,1.7907,1.7252,1.6928,1.6385,1.5448,1.4877,1.4458,1.4013,1.2594,1.1237,1.8335,1.9069,1.9084,1.962,2.0539,2.1253,2.1914,2.2593,2.34,2.3749,2.3749,2.3693,2.3117,2.2222,2.2019,2.1156,1.9858,2.009,1.997,1.9586,1.999,2.0135,2.006,1.9934,1.9841,1.9757,1.9184,1.8865,1.8792,1.82,1.6978,1.5254,1.5138,1.3981,0.0,0.0,0.0,0.0,1.5919,1.8168,1.9764,1.8156,1.7388,1.7689,1.7647,0.0,1.7272,1.7339,1.7134,1.6618,1.6627,0.0,0.0,0.0,0.0,0.0,0.0,0.0,0.0,0.0,0.0,0.0,1.5415,1.5184,1.4925,1.2714,1.1833,1.3188,1.5342,1.6803,1.7086,1.8651,2.0348,2.1903,2.0834,2.0422,2.1506,2.0933,2.0427,2.0406,2.1011,2.1554,2.1955,2.2852,2.3688,2.4052,2.462,2.513,2.532,2.5389,2.539,2.539,2.5351,2.4689,2.314,2.2809,2.2034,2.0411,1.9797,1.9485,1.9101,1.893,1.8753,1.8353,1.7749,1.728,1.6935,1.6604,1.626,1.5739,1.5037,1.4241,1.3397,1.1963,1.0847,1.8922,0.0,1.9286,2.0005,0.0,2.1619,2.2501,2.3621,2.4025,2.419,2.4208,2.4016,2.3539,2.2807,2.23,2.1662,2.0977,2.0847,2.0797,2.0789,2.1027,2.1116,2.1116,2.0786,2.06,2.0559,1.9984,1.9694,1.9691,1.9447,1.8634,1.7322,1.7115,1.6331,1.5012,1.5494,1.5621,1.5379,1.6913,1.8798,2.0934,1.9986,1.9206,1.8748,0.0,0.0,0.0,0.0,0.0,0.0,0.0,0.0,0.0,0.0,0.0,1.846,1.7066,1.6653,1.7679,1.7082,1.7262,1.8788,1.8921,1.8211,1.649,1.5791,1.583,1.6637,1.8384,1.9456,1.9604,2.0376,2.1254,2.2032,2.11,2.0523,2.0885,2.0627,2.0523,2.0914,2.134,2.1891,2.2735,2.3495,2.4188,2.4418,2.4928,2.5313,2.5313,2.5332,2.5351,2.5351,2.5332,2.4954,2.396,2.3023,2.2251,2.1035,2.0122,1.9483,1.9069,1.8895,1.8663,1.8252,1.7591,1.7052,1.6825,1.6533,1.6126,1.5519,1.4703,1.3813,1.2813,1.1806,1.1011,1.9556,1.9543,1.9718,2.0641,2.2024,2.2023,2.285,2.419,0.0,0.0,0.0,2.3837,2.35,2.3159,2.2202,2.191,2.2073,2.16,2.1651,2.2107,2.2141,2.2163,2.2147,2.1485,2.1278,2.1417,2.0585,2.03,2.0471,2.0565,2.0295,1.982,1.964,1.926,1.8733,1.9671,1.9369,1.7788,1.7786,1.9154,2.1746,2.1507,2.0717,1.9508,1.95,1.8905,1.7662,1.7602,1.7651,1.7721,1.747,1.7733,1.858,1.7999,1.7909,1.8483,1.7715,1.7928,1.9609,1.8633,1.904,2.1662,2.2298,2.1349,1.8547,1.9766,2.0542,2.0285,2.1015,2.1477,2.1477,2.135,2.1408,2.1677,2.0869,2.035,2.0485,2.0361,2.0592,2.1334,2.1688,2.2371,2.3813,2.4207,2.4524,2.512,2.5264,2.5313,2.5313,2.5313,2.5293,2.5245,2.5225,2.5109,2.4552,2.3397,2.2331,2.1531,2.0311,1.9341,1.8999,1.8807,1.857,1.8275,1.7568,1.6944,1.6612,1.6253,1.5811,1.5007,1.417,1.3274,1.2354,1.1692,1.1048,2.0504,2.0407,2.1257,2.2097,2.2832,2.2832,2.3364,2.419,2.419,2.419,2.417,2.3855,2.3504,2.3157,2.2737,2.2099,2.1424,2.1904,2.187,0.0,2.1599,2.1688,2.1688,2.124,2.1547,2.2349,2.1401,2.1354,2.2153,2.1388,2.0894,2.0734,2.0362,1.9924,1.9617,2.041,2.0731,2.0426,1.9289,1.9221,2.0176,1.8379,1.7581,1.7903,1.7997,1.7844,1.7622,1.7652,1.7361,1.6825,1.6973,1.7732,1.9161,1.905,1.9445,2.0709,2.0941,2.0853,2.0428,2.083,2.138,2.1971,2.3182,2.29,2.0672,2.1368,2.146,2.0263,2.0985,2.1482,2.1457,2.0938,2.1119,2.2235,2.1216,2.0562,2.1139,2.0677,2.0639,2.1457,2.2177,2.2936,2.3984,2.4687,2.5101,2.5274,2.5313,2.5284,2.5226,2.5313,2.5226,2.5091,2.5026,2.4621,2.3751,2.2607,2.152,2.0601,1.956,1.8789,1.8624,1.8473,1.8318,1.8275,1.7285,1.6449,1.5945,1.5485,1.495,1.4135,1.3431,1.2771,1.1838,1.0979,1.0195,2.1322,2.1356,2.1729,2.233,2.3052,2.3456,2.3859,2.419,2.419,2.419,2.4151,2.3671,2.344,2.3425,2.2773,2.2312,2.2013,2.2207,2.2124,2.1792,2.1674,2.1963,2.2495,2.2095,2.2519,2.3591,2.3169,2.3169,2.3575,2.2723,2.2174,2.1874,2.0856,2.0089,1.9782,2.0565,2.1007,2.0991,2.0819,2.0895,2.1165,2.0217,1.9829,2.015,2.015,2.015,2.015,2.015,2.0276,2.0566,2.0665,2.135,2.2602,2.2365,2.2303,2.2512,2.2482,2.2097,2.1272,2.1565,2.2021,2.2531,2.354,2.3592,2.2105,2.2144,2.1997,2.1425,2.1789,2.2096,2.216,2.1466,2.1273,2.2004,2.1004,2.0485,2.0727,2.0573,2.0831,2.1966,2.2543,2.3302,2.4591,2.5063,2.5313,2.5313,2.5303,2.5129,2.4617,2.4511,2.4647,2.4859,2.446,2.3817,2.314,2.1777,2.0698,2.0063,1.9213,1.8542,1.8217,1.8013,1.7864,1.7512,1.6827,1.6223,1.5662,1.533,1.4562,1.3303,1.2618,1.1923,1.0842,0.981,0.9207,2.2157,2.2216,2.238,2.2849,2.3584,2.4208,2.4465,2.4465,2.4465,2.4373,2.4112,2.35,2.336,2.349,2.2657,2.2483,2.2787,2.2654,2.2574,2.2547,2.2153,2.2419,2.3229,2.2866,2.3309,2.4439,2.4435,2.4483,2.4616,2.388,2.3084,2.2313,2.1014,2.0089,1.9726,2.0565,2.1007,2.1055,2.1857,2.2327,2.2327,2.2327,2.231,2.2327,2.2304,2.2327,2.2327,2.2479,2.2915,2.3725,2.403,2.4534,2.5296,2.5123,2.4533,2.3718,2.3485,2.3088,2.2446,2.2336,2.2593,2.3199,2.3493,2.3474,2.3033,2.2446,2.2089,2.2129,2.2066,2.2118,2.1933,2.151,2.1163,2.1125,2.068,2.0331,2.0312,2.0292,2.0831,2.2235,2.2677,2.337,2.4563,2.5119,2.5203,2.5171,2.5182,2.4831,2.4179,2.3883,2.4003,2.435,2.3742,2.2939,2.2669,2.1194,2.0144,1.9885,1.9061,1.8308,1.7776,1.762,1.7372,1.6894,1.6401,1.5745,1.5169,1.4692,1.373,1.2249,1.1388,1.0607,0.9267,0.8423,0.8166,2.306,2.3069,2.3818,2.4634,2.5072,2.5201,2.5219,2.5237,2.5293,2.487,2.4132,2.3482,2.322,2.3155,2.2581,2.2694,2.3311,2.3321,2.3385,2.3506,2.3137,2.3012,2.313,2.267,2.3339,2.4693,2.4348,2.4531,2.533,2.4232,2.2912,2.1518,2.0674,2.0185,1.9884,2.0613,2.1023,2.1007,2.184,2.2327,2.2327,2.2327,2.2327,2.2327,2.2327,2.2327,2.2412,2.2953,2.3354,2.3502,2.4408,2.4959,2.509,2.5321,2.489,2.3768,2.4235,2.443,2.3988,2.3969,2.3951,2.3988,2.2813,2.2392,2.2887,2.2261,2.1586,2.1208,2.1164,2.1004,2.0214,2.0172,2.0213,2.0279,2.0284,2.0292,2.0342,2.0292,2.065,2.1504,2.2468,2.3111,2.3995,2.4667,2.4968,2.491,2.4902,2.478,2.4436,2.385,2.3547,2.3963,2.3039,2.2221,2.2188,2.0787,1.9869,2.0062,1.8967,1.7946,1.7492,1.7311,1.7118,1.6396,1.6001,1.5198,1.3888,1.294,1.2242,1.0765,0.9702,0.8823,0.7595,0.6961,0.7071,2.3858,2.393,2.4192,2.445,2.4686,2.4685,2.4685,2.4685,2.4705,2.4372,2.3946,2.3848,2.3737,2.3476,2.3107,2.3221,2.371,2.3935,2.4079,2.4111,2.345,2.3452,2.4,2.3328,2.3729,2.5001,2.4789,2.4925,2.5062,2.412,2.3111,2.235,2.1532,2.1351,2.1737,2.2067,2.239,2.2704,2.329,2.3579,2.3545,2.3173,2.3156,2.3545,2.3596,2.3596,2.3613,2.3883,2.4239,2.4678,2.5122,2.5558,2.5999,2.5953,2.5454,2.4531,2.4235,2.4026,2.3806,2.4037,2.419,2.419,2.3015,2.2484,2.2868,2.1804,2.0901,2.072,2.0796,2.0782,2.0526,2.0161,1.988,1.9901,2.0022,2.0326,2.0842,2.0982,2.146,2.2632,2.3158,2.3649,2.4251,2.4666,2.4835,2.4806,2.4787,2.4613,2.4042,2.3553,2.3207,2.281,2.1898,2.1634,2.1927,2.0501,1.9515,1.926,1.8619,1.7675,1.7149,1.7019,1.6732,1.5836,1.5477,1.4768,1.3443,1.2451,1.1575,0.9658,0.7633,0.654,0.6014,0.5822,0.6105,2.4284,2.443,2.4468,2.452,2.4538,2.4777,2.4722,2.452,2.4441,2.424,2.4019,2.4147,2.4153,2.4015,2.3812,2.3942,2.4362,2.4666,2.4755,2.463,2.4,2.406,2.4588,2.403,2.4216,2.5089,2.5195,2.5125,2.4893,2.3928,2.3273,2.2905,2.2109,2.2118,2.2909,2.3032,2.3363,2.3852,2.4288,2.4608,2.4678,2.4272,2.4154,2.4489,2.4523,2.4523,2.4523,2.4661,2.5033,2.5575,2.5795,2.615,2.6657,2.6461,2.5984,2.5152,2.4153,2.3552,2.3509,2.3819,2.3992,2.3844,2.2895,2.2295,2.2171,2.117,2.0491,2.0519,2.064,2.0709,2.05,2.0289,2.0001,1.9825,2.018,2.0807,2.117,2.1597,2.2446,2.3498,2.3815,2.4195,2.4588,2.466,2.4598,2.4599,2.4601,2.4441,2.3683,2.3351,2.2912,2.246,2.1805,2.1465,2.1773,2.0196,1.9058,1.8775,1.8315,1.7294,1.6791,1.6696,1.6363,1.5565,1.518,1.4256,1.2737,1.1817,1.019,0.8001,0.6064,0.4786,0.4708,0.4676,0.4822,2.4209,2.4337,2.5017,2.5274,2.5384,2.6043,2.597,2.5104,2.4929,2.4772,2.4586,2.4208,2.4308,2.4896,2.4618,2.4845,2.5438,2.5524,2.5378,2.519,2.5029,2.4839,2.4449,2.4356,2.4617,2.5019,2.506,2.4845,2.4399,2.3739,2.3145,2.2757,2.2139,2.2024,2.2655,2.3104,2.3395,2.41,2.4488,2.4864,2.5456,2.5507,2.5169,2.4709,2.4557,2.4625,2.4659,2.5203,2.5592,2.5625,2.6284,2.6674,2.6674,2.6657,2.6268,2.5397,2.407,2.3333,2.3436,2.3549,2.3489,2.3135,2.226,2.1361,2.1422,2.0748,2.0409,2.049,2.0636,2.0366,1.9893,2.0433,2.0471,1.9982,2.1114,2.1582,2.1174,2.2412,2.322,2.3526,2.4015,2.4494,2.4567,2.4338,2.432,2.4321,2.4284,2.4192,2.4026,2.329,2.3162,2.34,2.2812,2.1894,2.1773,2.039,1.9266,1.8982,1.8348,1.6882,1.6531,1.6229,1.576,1.5256,1.4724,1.3672,1.2049,1.0114,0.7888,0.5958,0.448,0.353,0.2977,0.3274,0.3495,2.4483,2.4944,2.4722,2.4925,2.5366,2.5181,2.4789,2.4314,2.419,2.4158,2.4262,2.4471,2.4906,2.538,2.5747,2.5778,2.5627,2.5748,2.5801,2.5652,2.5028,2.4592,2.4374,2.4085,2.3948,2.4139,2.4155,2.4082,2.3906,2.3622,2.364,2.3682,2.3209,2.3477,2.4452,2.4505,2.4834,2.5615,2.5863,2.6031,2.6251,2.6302,2.615,2.5913,2.5896,2.5896,2.5896,2.6409,2.6561,2.6335,2.6802,2.6971,2.6724,2.6503,2.5829,2.4699,2.4367,2.382,2.2988,2.3499,2.354,2.2709,2.2478,2.2375,2.2348,2.1568,2.0989,2.1255,2.1336,2.1152,2.1064,2.1258,2.1343,2.1179,2.1637,2.2227,2.251,2.3074,2.3441,2.3397,2.357,2.4099,2.5264,2.4892,2.443,2.4818,2.4522,2.4264,2.4153,2.3804,2.3693,2.3717,2.325,2.2571,2.2056,2.0877,1.9809,1.9498,1.8833,1.7474,1.6745,1.6024,1.5507,1.4418,1.3887,1.2518,1.0641,0.7613,0.5474,0.3814,0.2382,0.161,0.0989,0.1393,0.1868,2.452,2.4944,2.4704,2.4682,2.4803,2.4566,2.4091,2.3598,2.37,2.3957,2.4342,2.4945,2.5462,2.5916,2.6319,2.6252,2.5799,2.594,2.5815,2.5465,2.4752,2.4307,2.4116,2.3767,2.3595,2.3595,2.3595,2.3595,2.3595,2.3595,2.3879,2.4333,2.4048,2.4552,2.5705,2.5615,2.5872,2.6539,2.6708,2.6691,2.6708,2.6708,2.6708,2.6691,2.6708,2.6708,2.6691,2.6954,2.6982,2.6768,2.6982,2.6987,2.6707,2.6377,2.5665,2.4537,2.4347,2.3869,2.2789,2.3186,2.3206,2.2429,2.2645,2.2994,2.3045,2.2021,2.166,2.1879,2.2023,2.2113,2.25,2.2573,2.237,2.2059,2.2328,2.28,2.3186,2.3747,2.4195,2.4502,2.4744,2.5381,2.6088,2.5311,2.5018,2.5372,2.4688,2.4246,2.419,2.419,2.4074,2.3714,2.3188,2.2621,2.2124,2.1133,2.0083,1.9669,1.8637,1.7516,1.6603,1.5842,1.4797,1.3677,1.2311,1.088,0.8558,0.5418,0.327,0.1589,0.0527,-0.0301,-0.0493,-0.0421,0.0037,2.4208,2.4372,2.5034,2.4671,2.4039,2.4432,2.4167,2.3383,2.3711,2.4225,2.481,2.5377,2.5896,2.6404,2.621,2.598,2.5806,2.5819,2.5373,2.4592,2.4389,2.4074,2.3681,2.3638,2.3595,2.3595,2.3595,2.3595,2.3595,2.3595,2.3864,2.4266,2.4266,2.4712,2.5941,2.5852,2.6139,2.6556,2.6674,2.6708,2.6708,2.6708,2.6708,2.6708,2.6708,2.6708,2.6708,2.6758,2.6785,2.673,2.6734,2.6708,2.6723,2.6416,2.5848,2.4959,2.4041,2.3339,2.2902,2.264,2.2576,2.2351,2.2681,2.2713,2.2418,2.1952,2.1849,2.2384,2.2587,2.2923,2.3767,2.3951,2.3456,2.2299,2.3162,2.3676,2.3529,2.4411,2.568,2.627,2.6716,2.7251,2.6718,2.5972,2.5541,2.5389,2.4873,2.4281,2.4226,2.419,2.4036,2.3631,2.3082,2.2528,2.2022,2.1424,2.0522,1.9587,1.825,1.7016,1.626,1.5454,1.378,1.2424,0.9587,0.801,0.5649,0.2769,0.1304,-0.0235,-0.1174,-0.2197,-0.2379,-0.2391,-0.18,2.4403,2.462,2.4348,2.423,2.41,2.3886,2.3377,2.296,2.3588,2.4188,2.4722,2.5314,2.5849,2.6123,2.6046,2.5615,2.4934,2.4894,2.4697,2.4389,2.4032,2.3794,2.3638,2.3595,2.3595,2.3595,2.3595,2.3595,2.3595,2.3595,2.3709,2.3837,2.3879,2.4199,2.495,2.5259,2.5721,2.6184,2.6521,2.6708,2.6708,2.6708,2.6708,2.6708,2.6708,2.6708,2.6691,2.6971,2.6967,2.6734,2.695,2.7115,2.7012,2.6536,2.5859,2.5131,2.4478,2.3542,2.2668,2.2735,2.2693,2.2441,2.2432,2.2453,2.2357,2.2324,2.2476,2.2935,2.3166,2.3526,2.381,2.4074,2.3895,2.3511,2.3896,2.4116,2.3896,2.43,2.5439,2.6912,2.6691,2.6749,2.7629,2.7181,2.6267,2.6167,2.5519,2.487,2.4373,2.4226,2.3937,2.3414,2.2912,2.2356,2.1753,2.1279,2.0626,1.9656,1.8335,1.7256,1.6361,1.4706,1.2986,1.0086,0.7281,0.4713,0.2362,0.0484,-0.1095,-0.2247,-0.3401,-0.4094,-0.4559,-0.4428,-0.3966,2.4187,2.4378,2.3782,2.359,2.3714,2.3214,2.3014,2.3072,2.379,2.442,2.4953,2.5514,2.5826,2.5897,2.5589,2.5067,2.443,2.4184,2.4116,2.4074,2.3809,2.3595,2.3595,2.3595,2.3595,2.3595,2.3595,2.3595,2.3595,2.3595,2.3724,2.3879,2.3921,2.4184,2.4672,2.5012,2.5449,2.5947,2.6264,2.6521,2.6657,2.6708,2.6708,2.6708,2.6708,2.6708,2.6725,2.6922,2.6971,2.6808,2.7083,2.7241,2.7049,2.6759,2.6224,2.539,2.4666,2.3805,2.2564,2.2607,2.2728,2.238,2.232,2.2309,2.2321,2.2478,2.2694,2.302,2.3188,2.343,2.3678,2.3876,2.4054,2.419,2.4171,2.419,2.4263,2.4759,2.5583,2.6869,2.7019,2.7573,2.8223,2.8004,2.71,2.6933,2.6105,2.5329,2.4704,2.4373,2.3886,2.3351,2.2814,2.2207,2.1502,2.1038,2.0649,1.9703,1.8622,1.7782,1.6973,1.4462,1.2285,0.7381,0.3858,0.1457,-0.091,-0.2498,-0.4045,-0.4897,-0.549,-0.6114,-0.6529,-0.6766,-0.6284,2.3728,2.3682,2.3323,2.2989,2.2764,2.2686,2.2932,2.3451,2.4073,2.4765,2.5394,2.5708,2.5852,2.5654,2.4902,2.4471,2.4282,2.3879,2.3681,2.3681,2.3595,2.3595,2.3595,2.3595,2.3595,2.3595,2.3595,2.3595,2.3595,2.3595,2.3852,2.4184,2.4241,2.4552,2.4816,2.5105,2.5373,2.5785,2.5969,2.6262,2.6657,2.6708,2.6708,2.6708,2.6708,2.6708,2.6691,2.6758,2.6725,2.6758,2.7068,2.7051,2.6841,2.7,2.6364,2.5397,2.4777,2.368,2.2622,2.2383,2.2366,2.2304,2.2321,2.2327,2.2304,2.2343,2.247,2.2721,2.2789,2.3003,2.3477,2.3649,2.3795,2.4112,2.417,2.4226,2.4483,2.5676,2.6536,2.7061,2.8054,2.8975,2.8938,2.8283,2.7949,2.7492,2.657,2.5931,2.5309,2.4827,2.4018,2.3468,2.302,2.2221,2.1565,2.1098,2.0708,1.9929,1.88,1.7824,1.6563,1.3923,0.9848,0.4971,0.0251,-0.2031,-0.3791,-0.5324,-0.6062,-0.6387,-0.7073,-0.7939,-0.8335,-0.8383,-0.8359,2.3885,2.4106,2.3225,2.2678,2.2426,2.2398,2.2785,2.3414,2.3779,2.4431,2.4975,2.5289,2.5198,2.4784,2.4567,2.4199,2.3879,2.3638,2.3595,2.3595,2.3595,2.3595,2.3595,2.3595,2.3595,2.3595,2.3595,2.3595,2.3595,2.3595,2.3681,2.3794,2.3879,2.3921,2.4032,2.443,2.4895,2.5394,2.5832,2.6227,2.6624,2.6708,2.6708,2.6708,2.6708,2.6708,2.6708,2.6708,2.6708,2.6691,2.6791,2.6808,2.664,2.589,2.5309,2.4847,2.3718,2.2823,2.249,2.2338,2.2333,2.2327,2.2316,2.2327,2.2327,2.2327,2.2349,2.247,2.2563,2.2772,2.2972,2.3212,2.3477,2.3795,2.4051,2.4609,2.5621,2.6319,2.6995,2.8168,2.87,2.892,2.892,2.8769,2.8411,2.7903,2.7333,2.6775,2.61,2.5246,2.4399,2.3958,2.3424,2.2494,2.1735,2.1259,2.0733,2.0099,1.8974,1.7542,1.5643,1.2979,0.7706,0.2074,-0.3255,-0.6397,-0.7041,-0.7968,-0.807,-0.8026,-0.864,-0.9428,-0.9579,-0.9695,-0.9913,2.3519,2.3819,2.292,2.2436,2.2361,2.2632,2.319,2.3793,2.4083,2.4592,2.5108,2.4974,2.4712,2.4389,2.4158,2.3921,2.3595,2.3334,2.3246,2.3201,2.3201,2.3334,2.3508,2.3595,2.3595,2.3595,2.3595,2.3595,2.3595,2.3595,2.3595,2.3595,2.3595,2.3595,2.3681,2.3879,2.4467,2.5108,2.553,2.598,2.6624,2.6708,2.6708,2.6708,2.6708,2.6708,2.6708,2.6708,2.6708,2.6691,2.6708,2.6708,2.6607,2.5625,2.4961,2.4914,2.3867,2.3257,2.3207,2.3064,2.2719,2.2404,2.232,2.2315,2.2304,2.2327,2.2327,2.2338,2.248,2.259,2.2703,2.2996,2.3431,2.392,2.4114,2.4765,2.6002,2.6686,2.7438,2.8282,2.8778,2.8975,2.8975,2.8975,2.8688,2.8178,2.7673,2.7175,2.6616,2.5679,2.4815,2.429,2.3657,2.2711,2.1713,2.1093,1.9929,1.9322,1.8768,1.735,1.304,1.0339,0.5366,-0.0604,-0.6177,-0.9891,-0.9896,-0.9944,-0.9963,-1.0077,-1.0487,-1.0624,-1.0754,-1.0985,-1.1211,2.2925,2.3234,2.2637,2.2412,2.2564,2.3207,2.3887,2.4454,2.4545,2.5026,2.5362,2.4721,2.4307,2.4282,2.3879,2.3595,2.3566,2.3187,2.2979,2.2934,2.2875,2.3054,2.3551,2.3595,2.3595,2.3595,2.3595,2.3595,2.3595,2.3595,2.3595,2.3595,2.3595,2.3595,2.3638,2.3709,2.4225,2.502,2.5253,2.5709,2.635,2.6436,2.6401,2.6556,2.6674,2.6708,2.6708,2.6708,2.6708,2.6708,2.6708,2.6708,2.6607,2.5998,2.5535,2.5257,2.4605,2.4166,2.4301,2.3762,2.3005,2.2115,2.2002,2.2172,2.2074,2.202,2.2049,2.2135,2.2225,2.2354,2.2599,2.2915,2.339,2.3967,2.4282,2.4736,2.5568,2.6819,2.7738,2.7952,2.8608,2.8855,2.8994,2.8965,2.8858,2.855,2.8049,2.753,2.7074,2.6405,2.5397,2.4418,2.3691,2.2932,2.1869,2.0889,1.9406,1.8247,1.7946,1.5912,0.9323,0.5626,0.1866,-0.3001,-0.8387,-1.1094,-1.1566,-1.1593,-1.1773,-1.1683,-1.1806,-1.1869,-1.1962,-1.2219,-1.2446,2.3154,2.3798,2.334,2.3156,2.3291,2.3951,2.4439,2.4712,2.4389,2.4499,2.4563,2.4074,2.3794,2.3809,2.3681,2.3595,2.3551,2.3363,2.3436,2.3319,2.2875,2.3054,2.348,2.3596,2.361,2.361,2.3595,2.361,2.361,2.364,2.3595,2.3595,2.3595,2.3595,2.3638,2.3964,2.4496,2.5089,2.5182,2.5503,2.5872,2.5783,2.5799,2.6139,2.6454,2.6641,2.6691,2.6708,2.6708,2.6691,2.6691,2.6657,2.6573,2.5965,2.5412,2.4963,2.4381,2.4083,2.4199,2.3518,2.2191,2.0991,2.1231,2.1488,2.1277,2.1339,2.1462,2.1645,2.1781,2.2032,2.2462,2.2504,2.3141,2.3969,2.4582,2.5269,2.6206,2.6764,2.7486,2.8312,2.8561,2.8658,2.8952,2.891,2.8833,2.8756,2.8375,2.7887,2.7386,2.6876,2.5893,2.4694,2.3874,2.3011,2.1585,2.0334,1.8664,1.6301,1.5428,1.3128,0.6572,-0.0179,-0.4369,-0.7485,-1.055,-1.2268,-1.3358,-1.3529,-1.3718,-1.3418,-1.3004,-1.2918,-1.2991,-1.3305,-1.3304,2.3392,2.3915,2.3925,2.39,2.3988,2.4441,2.4713,2.4699,2.4419,2.4288,2.4246,2.3837,2.3595,2.3595,2.3595,2.3595,2.3406,2.2935,2.2696,2.2606,2.2346,2.2589,2.326,2.3747,2.3969,2.3714,2.3954,2.3924,2.3744,2.3864,2.3954,2.361,2.3595,2.3595,2.361,2.3921,2.4266,2.4712,2.4831,2.5105,2.5449,2.5373,2.5297,2.5575,2.5857,2.6,2.5966,2.598,2.5818,2.5756,2.6062,2.647,2.6455,2.5765,2.5141,2.4762,2.4252,2.3851,2.369,2.329,2.2593,2.1528,2.1093,2.0531,2.0532,2.0635,2.1166,2.16,2.1875,2.207,2.282,2.2885,2.3408,2.4347,2.4722,2.5431,2.6609,2.7137,2.7486,2.8276,2.8244,2.829,2.8421,2.8567,2.8402,2.8149,2.7944,2.7496,2.7182,2.6664,2.6014,2.5026,2.4127,2.2996,2.1407,1.9735,1.788,1.4796,1.1653,0.8158,0.2718,-0.4283,-1.1082,-1.2402,-1.2955,-1.4614,-1.5551,-1.5647,-1.5197,-1.4511,-1.4038,-1.3879,-1.3924,-1.4243,-1.4024,2.3647,2.4012,2.4492,2.4613,2.4589,2.4845,2.4882,2.4693,2.4508,2.4302,2.4199,2.3809,2.3595,2.3595,2.3595,2.3595,2.3216,2.2239,2.1771,2.2146,2.1946,2.2253,2.2886,2.3659,2.4059,2.3699,2.4223,2.4223,2.4073,2.4148,2.3984,2.3655,2.3595,2.3595,2.361,2.3724,2.4032,2.443,2.4511,2.4617,2.4934,2.495,2.491,2.507,2.5245,2.5324,2.5363,2.5301,2.5032,2.4473,2.5326,2.5986,2.6115,2.5679,2.4915,2.4891,2.4401,2.3967,2.3566,2.3313,2.3196,2.3302,2.1751,2.0475,2.0457,2.0685,2.1144,2.1587,2.194,2.2415,2.3508,2.3486,2.4099,2.5033,2.4997,2.5527,2.6764,2.753,2.7659,2.7897,2.7893,2.7885,2.7978,2.8085,2.7804,2.7584,2.74,2.708,2.6759,2.6455,2.5866,2.5143,2.4215,2.2427,2.0747,1.9435,1.7517,1.3411,0.9382,0.4004,-0.1261,-0.9235,-1.4959,-1.4026,-1.4678,-1.6176,-1.6979,-1.6696,-1.6173,-1.5453,-1.5126,-1.4967,-1.5055,-1.521,-1.467,2.3778,2.4448,2.5133,2.5162,2.491,2.5466,2.5239,2.454,2.4393,2.4158,2.3752,2.3638,2.3595,2.3595,2.3595,2.3595,2.3231,2.2053,2.1595,2.2207,2.2039,2.2161,2.2752,2.357,2.3775,2.3834,2.4224,2.4448,2.4238,2.4029,2.3879,2.3655,2.3595,2.3595,2.3709,2.3991,2.4199,2.4266,2.4364,2.4511,2.443,2.4241,2.4184,2.4496,2.4844,2.5022,2.5114,2.5174,2.5123,2.5064,2.5233,2.5319,2.5448,2.5539,2.5415,2.4995,2.4527,2.3949,2.3478,2.344,2.2933,2.2488,2.2155,2.2226,2.1849,2.1554,2.1476,2.1668,2.2034,2.2563,2.3589,2.3769,2.4329,2.5143,2.5575,2.5725,2.6568,2.6954,2.7238,2.759,2.756,2.7465,2.756,2.7625,2.7542,2.7348,2.7122,2.6556,2.5909,2.5909,2.5826,2.5072,2.4223,2.2077,1.9929,1.877,1.697,1.2272,0.7484,0.1051,-0.5351,-1.4283,-1.8286,-1.7149,-1.6535,-1.7275,-1.7678,-1.7594,-1.7263,-1.665,-1.6342,-1.6039,-1.585,-1.5579,-1.4998,2.425,2.4713,2.5497,2.5504,2.507,2.5083,2.4894,2.443,2.4116,2.3837,2.3666,2.3595,2.3595,2.3595,2.3595,2.3595,2.3172,2.2039,2.188,2.2452,2.2392,2.2346,2.2812,2.3629,2.4015,2.4223,2.4433,2.4358,2.4148,2.4193,2.3879,2.364,2.3595,2.3595,2.3709,2.4101,2.4225,2.4142,2.4266,2.4266,2.4032,2.3681,2.3794,2.3991,2.4225,2.4348,2.4369,2.4346,2.4185,2.4039,2.4444,2.4532,2.4601,2.4802,2.5089,2.4733,2.4277,2.3716,2.3212,2.3068,2.2804,2.2715,2.2259,2.1853,2.1845,2.1641,2.1578,2.2102,2.2924,2.3559,2.4427,2.429,2.4929,2.5748,2.5896,2.6015,2.6454,2.6657,2.6937,2.722,2.7083,2.7023,2.7142,2.7173,2.724,2.7125,2.6893,2.6097,2.5183,2.5386,2.5606,2.4665,2.3685,2.1751,1.9695,1.8549,1.6429,1.1743,0.5698,-0.0733,-0.754,-1.56,-1.9351,-2.002,-1.9638,-1.8512,-1.8408,-1.8389,-1.8072,-1.7611,-1.692,-1.6328,-1.6188,-1.5891,-1.535,2.4861,2.5086,2.573,2.5615,2.5012,2.4592,2.4348,2.4158,2.3794,2.3638,2.3595,2.3465,2.3465,2.3508,2.3363,2.3275,2.3406,2.2179,2.1974,2.2558,2.2649,2.2694,2.3035,2.3703,2.4298,2.4178,2.4283,2.4223,2.4103,2.4118,2.3999,2.3773,2.3681,2.3752,2.3921,2.4374,2.4142,2.4199,2.4158,2.4101,2.3709,2.3595,2.3595,2.3595,2.3595,2.3638,2.3724,2.3726,2.3503,2.3432,2.3701,2.402,2.3651,2.3923,2.4147,2.401,2.3657,2.3201,2.2788,2.2273,2.2326,2.2663,2.1172,2.0867,2.0934,2.1171,2.1417,2.241,2.3081,2.3871,2.4342,2.4822,2.5368,2.6033,2.6101,2.5999,2.632,2.6437,2.6337,2.6472,2.6437,2.6434,2.6462,2.6447,2.6449,2.6668,2.6474,2.553,2.4782,2.5126,2.5067,2.41,2.2909,2.1258,1.9662,1.8495,1.58,1.1695,0.4792,-0.2319,-0.8868,-1.5779,-1.8455,-2.1141,-2.0172,-1.9171,-1.9165,-1.8629,-1.7723,-1.705,-1.6767,-1.6595,-1.6392,-1.6306,-1.6065,2.5615,2.5845,2.5928,2.5411,2.4552,2.4389,2.4101,2.3709,2.3638,2.3595,2.3566,2.3157,2.3187,2.3231,2.2423,2.2651,2.2801,2.2114,2.1833,2.2694,2.2799,2.2799,2.2844,2.3363,2.379,2.3879,2.3819,2.4073,2.4118,2.3924,2.3759,2.3638,2.3991,2.4266,2.4241,2.4816,2.5067,2.491,2.4552,2.4116,2.3666,2.3595,2.3595,2.3595,2.3595,2.3595,2.3595,2.3595,2.349,2.349,2.3548,2.3651,2.3606,2.3621,2.3363,2.3051,2.2838,2.2735,2.2438,2.1843,2.145,2.1814,2.1108,2.0646,2.0593,2.0748,2.1165,2.1689,2.213,2.2759,2.3869,2.4611,2.533,2.5914,2.6216,2.6115,2.6227,2.5753,2.5694,2.5422,2.5273,2.5513,2.5689,2.5653,2.5627,2.5913,2.5907,2.4909,2.4264,2.446,2.4428,2.3436,2.2529,2.0958,1.96,1.8449,1.4556,1.0956,0.3701,-0.3939,-1.0565,-1.6448,-1.935,-2.1125,-2.0232,-1.9308,-1.8687,-1.7936,-1.7009,-1.6691,-1.668,-1.6595,-1.6522,-1.6491,-1.6405,2.5596,2.5524,2.5524,2.495,2.4006,2.3964,2.3822,2.3638,2.3595,2.3595,2.3551,2.3363,2.3187,2.2905,2.2086,2.2225,2.277,2.2221,2.236,2.2995,2.3201,2.3201,2.329,2.3465,2.3595,2.3595,2.361,2.3714,2.3879,2.3819,2.3595,2.3681,2.4116,2.4405,2.4552,2.5259,2.5166,2.4776,2.4241,2.3837,2.3638,2.3595,2.3595,2.3595,2.3595,2.3595,2.3595,2.3595,2.3595,2.3595,2.3595,2.3595,2.3595,2.3551,2.3348,2.2737,2.231,2.2002,2.1595,2.1172,2.0904,2.0599,2.0521,2.0304,2.0341,2.0591,2.1046,2.1667,2.208,2.2622,2.3332,2.4251,2.5089,2.5672,2.5944,2.5997,2.5746,2.5131,2.4789,2.4437,2.4147,2.4271,2.4482,2.4645,2.4735,2.506,2.4755,2.3808,2.3251,2.3154,2.3043,2.2683,2.1816,2.0884,1.962,1.8248,1.2974,0.8475,0.1819,-0.5564,-1.23,-1.7373,-2.0193,-2.0992,-2.007,-1.9158,-1.826,-1.7446,-1.6721,-1.6619,-1.6685,-1.656,-1.6377,-1.6093,-1.5905,2.5311,2.4841,2.4906,2.45,2.3779,2.3516,2.346,2.3595,2.3595,2.3595,2.3551,2.3406,2.3009,2.2483,2.1993,2.21,2.2709,2.2709,2.3068,2.3421,2.3595,2.3551,2.3551,2.3595,2.3595,2.3595,2.3595,2.364,2.3625,2.3595,2.3595,2.3638,2.4333,2.4592,2.4894,2.5486,2.5709,2.4776,2.4199,2.3852,2.3638,2.3595,2.3595,2.3595,2.3595,2.3595,2.3595,2.3595,2.3595,2.3595,2.3595,2.3523,2.3378,2.3245,2.286,2.2203,2.1664,2.1232,2.0855,2.0481,2.0244,2.0016,1.985,2.0054,2.0383,2.0547,2.0835,2.137,2.1983,2.2577,2.3287,2.3926,2.4697,2.5128,2.5373,2.5486,2.5357,2.4587,2.3971,2.361,2.3216,2.2701,2.295,2.3475,2.3834,2.4158,2.3653,2.2687,2.2331,2.2073,2.1989,2.1745,2.0452,1.9399,1.7897,1.576,1.1007,0.5437,-0.1212,-0.7438,-1.4343,-1.829,-2.0867,-2.0799,-1.9833,-1.8953,-1.8041,-1.7227,-1.6461,-1.6291,-1.617,-1.6293,-1.6192,-1.5865,-1.5637,2.4879,2.3817,2.4136,2.4261,2.4158,2.3201,2.3071,2.3505,2.358,2.3595,2.3508,2.3054,2.2498,2.2007,2.196,2.2146,2.2709,2.2709,2.3098,2.3465,2.3595,2.3595,2.3595,2.3595,2.3595,2.3595,2.3595,2.3595,2.3595,2.3595,2.3595,2.3709,2.4552,2.4973,2.5335,2.5835,2.5855,2.5051,2.443,2.3964,2.3724,2.3595,2.3595,2.3595,2.3595,2.3595,2.3595,2.3595,2.3595,2.3595,2.3595,2.3319,2.3053,2.2906,2.2402,2.1491,2.1166,2.0693,2.0219,2.0042,1.9888,1.985,1.9798,1.985,2.0055,1.9952,2.0233,2.0919,2.1609,2.2189,2.2922,2.3663,2.4358,2.4657,2.4816,2.4721,2.4505,2.3842,2.3216,2.2786,2.2083,2.1183,2.0558,2.084,2.2152,2.2624,2.2406,2.1478,2.1307,2.1124,2.1129,2.0657,1.8999,1.7381,1.5364,1.168,0.6403,0.0701,-0.5598,-1.1014,-1.6607,-1.9507,-2.1755,-2.0398,-1.9371,-1.8617,-1.7757,-1.6785,-1.6033,-1.5752,-1.5679,-1.5944,-1.5987,-1.5739,-1.5635,2.4231,2.4111,2.3289,2.2979,2.3103,2.2823,2.2843,2.3071,2.343,2.3595,2.3551,2.2979,2.2601,2.237,2.2328,2.2438,2.274,2.3113,2.3363,2.3508,2.3595,2.3595,2.3595,2.3595,2.3595,2.3595,2.3595,2.3595,2.3595,2.3638,2.3595,2.3921,2.4792,2.5313,2.5726,2.5799,2.5524,2.5128,2.4389,2.3794,2.3681,2.3595,2.3595,2.3595,2.3595,2.3595,2.3595,2.3595,2.3595,2.3595,2.3595,2.3187,2.2732,2.264,2.1945,2.0943,2.0746,2.0421,1.9978,1.9798,1.9798,1.9798,1.9798,1.9798,1.9798,1.9798,2.0143,2.0705,2.1358,2.1978,2.2717,2.3456,2.3991,2.4225,2.4292,2.4168,2.3761,2.3186,2.2412,2.1945,2.0357,1.8922,1.8358,1.795,1.9547,2.0941,2.0673,2.0406,2.0126,1.9709,1.9507,1.8417,1.6658,1.3748,1.1549,0.6785,0.1536,-0.4194,-1.0081,-1.4355,-1.8742,-2.053,-2.2011,-2.0476,-1.9007,-1.827,-1.7347,-1.6207,-1.5842,-1.6101,-1.5984,-1.5727,-1.5698,-1.5607,-1.5508,2.3287,2.3333,2.236,2.2169,2.2465,2.2243,2.2338,2.2768,2.3116,2.346,2.3537,2.3024,2.2711,2.2711,2.2709,2.2694,2.283,2.3231,2.3508,2.3595,2.3595,2.3595,2.3595,2.3595,2.3595,2.3595,2.3638,2.3638,2.3879,2.3837,2.4142,2.4592,2.5028,2.5577,2.554,2.5598,2.5297,2.4776,2.4348,2.3724,2.3681,2.3595,2.3595,2.3595,2.3595,2.3595,2.3595,2.3595,2.3595,2.3523,2.3348,2.2994,2.2577,2.2104,2.1538,2.0904,2.0446,2.0245,1.9952,1.9798,1.9798,1.9798,1.9798,1.9798,1.9798,1.9811,2.0156,2.1042,2.1524,2.2009,2.2761,2.3475,2.3752,2.3991,2.3906,2.3736,2.3347,2.2788,2.1862,2.101,1.9115,1.7081,1.5505,1.5011,1.586,1.7634,1.8631,1.8584,1.8713,1.8096,1.7329,1.5847,1.3811,1.0521,0.6978,0.0736,-0.5182,-0.9051,-1.4205,-1.7098,-2.0476,-2.1843,-2.1777,-2.0128,-1.8839,-1.7954,-1.714,-1.6319,-1.6479,-1.6886,-1.6407,-1.5796,-1.5577,-1.5434,-1.5209,2.2099,2.1151,2.1384,2.2063,2.2647,2.1423,2.1545,2.2622,2.2817,2.3131,2.3522,2.3009,2.2774,2.279,2.2832,2.2875,2.2934,2.3377,2.3595,2.3595,2.3595,2.3595,2.3681,2.3724,2.3837,2.3638,2.3837,2.4116,2.4389,2.4389,2.4855,2.5335,2.554,2.5652,2.5351,2.5726,2.5411,2.4576,2.4389,2.4006,2.3681,2.3595,2.3595,2.3595,2.3595,2.3595,2.3595,2.3595,2.3551,2.3377,2.3052,2.2523,2.1841,2.1336,2.0758,2.0042,1.9952,1.985,1.9798,1.9798,1.9798,1.9798,1.9798,1.9798,1.9798,1.9888,2.0322,2.1297,2.1663,2.2309,2.301,2.358,2.3681,2.3681,2.3595,2.3304,2.2862,2.2426,2.1547,1.9485,1.7413,1.5409,1.3297,1.2043,1.2462,1.3817,1.5738,1.6467,1.6416,1.5578,1.4296,1.1985,0.9649,0.5354,0.0837,-0.622,-1.1766,-1.526,-1.7675,-1.9847,-2.0622,-2.0938,-2.0466,-1.943,-1.8466,-1.7378,-1.6972,-1.6623,-1.6758,-1.6757,-1.6308,-1.5797,-1.5535,-1.5321,-1.5231,2.1359,2.0991,2.0798,2.0914,2.1245,2.1402,2.1874,2.2652,2.3086,2.3415,2.3522,2.3319,2.3289,2.3274,2.3244,2.3201,2.3304,2.3377,2.3595,2.3595,2.3638,2.3879,2.4006,2.4158,2.4266,2.4592,2.4672,2.4672,2.4934,2.4934,2.5012,2.5411,2.5577,2.5577,2.5615,2.5652,2.5067,2.4471,2.4074,2.3767,2.3595,2.3595,2.3595,2.3595,2.3595,2.358,2.358,2.3595,2.3391,2.3113,2.2704,2.2166,2.1361,2.082,2.0476,1.9964,1.9798,1.9798,1.9798,1.9798,1.9798,1.9798,1.9798,1.9798,1.9798,1.9798,2.054,2.1312,2.1657,2.2352,2.3245,2.3537,2.3638,2.3638,2.345,2.2935,2.2455,2.2011,2.1014,1.799,1.5568,1.0021,0.6586,0.5755,0.6178,0.7624,0.9302,1.1616,1.2166,1.1256,1.0091,0.7444,0.4543,0.0,-0.5099,-1.0459,-1.4429,-1.7198,-1.9119,-2.0846,-2.1151,-2.0555,-1.9467,-1.8578,-1.7643,-1.68,-1.6725,-1.6618,-1.6623,-1.6439,-1.6219,-1.5869,-1.5494,-1.5429,-1.5332,2.0649,2.0499,2.0227,2.038,2.0782,2.1196,2.1829,2.2667,2.331,2.3507,2.3316,2.3477,2.3281,2.3101,2.3176,2.3281,2.3266,2.3266,2.3761,2.3776,2.3864,2.4225,2.4552,2.4688,2.4831,2.5169,2.5253,2.5237,2.5438,2.5465,2.554,2.554,2.5313,2.5259,2.5335,2.5144,2.4831,2.4307,2.3906,2.3879,2.3681,2.3595,2.3595,2.3507,2.3419,2.3374,2.3492,2.3405,2.3128,2.277,2.237,2.1868,2.1073,2.0526,2.0284,1.99,1.9798,1.9798,1.9798,1.9798,1.9798,1.9798,1.9798,1.9798,1.9798,1.9798,2.0335,2.1043,2.1541,2.2267,2.3068,2.329,2.3595,2.3595,2.3275,2.2756,2.2197,2.1763,1.9509,1.6483,1.166,0.5747,0.0187,-0.0624,-0.087,0.088,0.2608,0.5004,0.735,0.6688,0.5424,0.2901,0.0,-0.4148,-0.8387,-1.2949,-1.6513,-1.9133,-2.0384,-2.1349,-2.1073,-2.0382,-1.9036,-1.7775,-1.7135,-1.6652,-1.6673,-1.6634,-1.6663,-1.662,-1.6462,-1.6048,-1.5517,-1.542,-1.542,2.007,1.9726,1.9705,2.043,2.135,2.0961,2.15,2.2682,2.3236,2.3182,2.2774,2.3284,2.2924,2.2158,2.2514,2.2911,2.31,2.3085,2.3646,2.4184,2.4415,2.4792,2.5082,2.5253,2.5371,2.532,2.5442,2.5758,2.5983,2.601,2.5997,2.5815,2.5411,2.5089,2.4894,2.4712,2.443,2.3991,2.3906,2.3837,2.3681,2.3595,2.3595,2.3492,2.3301,2.3214,2.3229,2.3069,2.276,2.2366,2.1974,2.1403,2.0782,2.0156,1.9901,1.9798,1.9798,1.9798,1.9798,1.9798,1.9798,1.9798,1.9798,1.9798,1.9798,1.985,2.0259,2.0864,2.1382,2.203,2.2646,2.3127,2.3595,2.3421,2.3143,2.2651,2.2044,2.0439,1.7798,1.3941,0.8604,0.2761,-0.352,-0.5731,-0.6361,-0.5314,-0.3605,-0.2202,0.0,0.1777,0.0377,-0.1672,-0.4709,-0.8079,-1.2002,-1.5099,-1.6941,-1.9013,-1.9976,-2.0766,-2.0495,-2.0042,-1.872,-1.7556,-1.6866,-1.6436,-1.6275,-1.6477,-1.6828,-1.6694,-1.628,-1.5995,-1.5468,-1.541,-1.5362,1.9803,1.9726,1.9705,1.9914,2.0273,2.0587,2.1455,2.2619,2.2443,2.2307,2.2657,2.2349,2.2267,2.2473,2.2965,2.3396,2.3869,2.4287,2.4603,2.4902,2.495,2.5335,2.561,2.577,2.5967,2.6151,2.626,2.6227,2.64,2.647,2.621,2.5961,2.5411,2.4894,2.4511,2.4199,2.3921,2.3752,2.3837,2.3752,2.3681,2.3595,2.3595,2.3492,2.3273,2.3157,2.2907,2.2759,2.2275,2.1486,2.1224,2.0795,2.0156,1.9901,1.9798,1.9798,1.9798,1.9798,1.9798,1.9798,1.9798,1.9798,1.9798,1.9798,1.9798,1.9862,2.0105,2.0623,2.1272,2.1941,2.2572,2.3054,2.3537,2.358,2.3216,2.2577,2.1625,1.8921,1.5871,0.9087,0.3824,-0.2327,-0.8351,-1.052,-1.0963,-1.0581,-0.9538,-0.797,-0.6479,-0.4402,-0.4132,-0.6046,-0.7934,-1.0902,-1.3001,-1.5828,-1.7201,-1.8577,-1.943,-2.0067,-2.0143,-1.9517,-1.8305,-1.728,-1.6472,-1.5968,-1.569,-1.5951,-1.6327,-1.6019,-1.5671,-1.5575,-1.5468,-1.5526,-1.5526,1.9705,1.9705,1.9705,1.9705,1.9809,2.0423,2.1216,2.1799,2.1739,2.1873,2.1889,2.1783,2.1729,2.1751,2.2509,2.325,2.3786,2.43,2.4777,2.515,2.5465,2.5689,2.5937,2.6187,2.6382,2.664,2.6708,2.659,2.6657,2.647,2.621,2.5961,2.5335,2.4776,2.4389,2.4006,2.3681,2.3595,2.3595,2.3595,2.3595,2.3595,2.3595,2.3493,2.326,2.2788,2.2575,2.2392,2.1534,2.0894,2.0809,2.051,1.9952,1.9798,1.9798,1.9798,1.9798,1.9798,1.9798,1.9798,1.9798,1.9798,1.9747,1.9798,1.9798,1.9862,2.0016,2.0359,2.1148,2.1899,2.2469,2.3039,2.3478,2.3906,2.3201,2.2534,2.0149,1.7486,1.1428,0.4154,-0.219,-0.8388,-1.2504,-1.4412,-1.4662,-1.2684,-1.1431,-1.0636,-0.9692,-0.8669,-0.8494,-0.9775,-1.124,-1.3084,-1.4819,-1.5995,-1.7125,-1.7966,-1.8324,-1.8943,-1.9374,-1.8838,-1.7512,-1.6687,-1.5958,-1.568,-1.5584,-1.5468,-1.5594,-1.5517,-1.5738,-1.5979,-1.6036,-1.5979,-1.5921,1.951,1.9495,1.9621,1.9615,1.9779,2.0333,2.0632,2.0707,2.1201,2.1292,2.0976,2.1302,2.1191,2.1283,2.2134,2.2968,2.3731,2.4382,2.5094,2.5303,2.5835,2.6104,2.6227,2.6453,2.6607,2.6674,2.6708,2.6708,2.659,2.6436,2.6227,2.5977,2.5089,2.4592,2.4348,2.3879,2.3595,2.3595,2.3595,2.3595,2.3595,2.3595,2.3551,2.3289,2.2685,2.2055,2.209,2.1588,2.0752,2.0769,2.061,2.0308,2.0055,1.9798,1.9798,1.9798,1.9798,1.9797,1.9745,1.9629,1.9475,1.9475,1.9579,1.9463,1.9347,1.9683,1.9952,2.0245,2.0953,2.1602,2.2179,2.3024,2.3666,2.3837,2.3492,2.2403,2.0494,1.5059,0.6093,-0.0955,-0.735,-1.2959,-1.4536,-1.6216,-1.6087,-1.4042,-1.2964,-1.2627,-1.2058,-1.1606,-1.1913,-1.255,-1.31,-1.3918,-1.4839,-1.5944,-1.6845,-1.7457,-1.7622,-1.8116,-1.8839,-1.7941,-1.6652,-1.6093,-1.5633,-1.569,-1.5584,-1.5651,-1.585,-1.6083,-1.6301,-1.6595,-1.6652,-1.6652,-1.6368,1.8194,1.8253,1.8732,1.9211,1.9675,1.9854,1.9944,1.9944,2.0079,2.0557,2.0995,2.0862,2.103,2.1535,2.2183,2.3076,2.4137,2.4726,2.5613,2.5976,2.635,2.628,2.6487,2.6556,2.6691,2.6708,2.6708,2.6708,2.6657,2.6521,2.6297,2.5961,2.5259,2.4816,2.443,2.3948,2.3595,2.3595,2.3595,2.3595,2.3595,2.3508,2.3421,2.3084,2.2472,2.1941,2.173,2.1073,2.0458,2.0144,2.0055,1.9952,1.9798,1.9798,1.9798,1.9798,1.9759,1.9743,1.9648,1.9312,1.8768,1.8317,1.8186,1.8442,1.8773,1.9411,1.9901,2.0232,2.0733,2.1342,2.1979,2.2921,2.3767,2.3794,2.3533,2.2138,2.046,1.0881,0.1163,-0.5719,-1.219,-1.4944,-1.6553,-1.7003,-1.6872,-1.6115,-1.5129,-1.4418,-1.3795,-1.3329,-1.318,-1.3649,-1.3751,-1.4405,-1.5177,-1.5686,-1.644,-1.6743,-1.6856,-1.7468,-1.8219,-1.7289,-1.6285,-1.5816,-1.5468,-1.5584,-1.5861,-1.6217,-1.6385,-1.6623,-1.7024,-1.7357,-1.76,-1.771,-1.709,1.7682,1.7805,1.8652,1.9372,1.9904,1.9965,1.998,1.9945,1.9782,2.0145,2.0738,2.0538,2.0791,2.1698,2.2326,2.3031,2.4195,2.5146,2.5285,2.5658,2.6419,2.628,2.635,2.6505,2.6657,2.6708,2.6708,2.6708,2.6708,2.6657,2.647,2.6175,2.5635,2.5028,2.4632,2.4074,2.3595,2.3595,2.3595,2.3595,2.3595,2.3551,2.3508,2.3143,2.2711,2.209,2.1519,2.0984,2.0383,1.9991,1.985,1.985,1.9798,1.9798,1.9798,1.9708,1.9537,1.9413,1.9417,1.8929,1.7927,1.7159,1.7181,1.7531,1.7824,1.8513,1.9475,1.9888,2.1014,2.165,2.2021,2.2831,2.3679,2.4074,2.2586,2.0912,1.5065,0.6342,-0.2074,-0.9132,-1.4091,-1.6746,-1.7904,-1.8089,-1.7852,-1.7146,-1.6358,-1.5419,-1.4888,-1.4563,-1.452,-1.4541,-1.4483,-1.4647,-1.5255,-1.5593,-1.5891,-1.6073,-1.6187,-1.6389,-1.6761,-1.6488,-1.5972,-1.5594,-1.5526,-1.5816,-1.6058,-1.6422,-1.6907,-1.7159,-1.7654,-1.8178,-1.8363,-1.8441,-1.7854,1.7507,1.7799,1.8808,1.9589,2.0133,2.0335,2.032,2.019,2.0004,2.0112,2.0599,2.0569,2.0714,2.1279,2.2113,2.2622,2.3439,2.4677,2.4865,2.5314,2.6179,2.6298,2.6264,2.6315,2.659,2.6708,2.6708,2.6708,2.6708,2.6691,2.6624,2.6454,2.5892,2.5182,2.4871,2.4241,2.3595,2.3595,2.3595,2.3595,2.3595,2.3551,2.3465,2.3275,2.2995,2.2309,2.1671,2.1062,2.0471,2.0105,1.9798,1.9798,1.9798,1.9798,1.9631,1.9488,1.9129,1.909,1.9048,1.849,1.6982,1.596,1.6311,1.6597,1.6861,1.7607,1.8614,1.9759,2.0841,2.1753,2.2123,2.2682,2.3578,2.3628,2.1716,1.8755,1.0709,0.2861,-0.4386,-1.1548,-1.5032,-1.7793,-1.8637,-1.8858,-1.8431,-1.7779,-1.7026,-1.6208,-1.5472,-1.5129,-1.497,-1.4873,-1.4777,-1.5077,-1.5362,-1.5235,-1.5274,-1.5555,-1.5671,-1.5459,-1.5294,-1.5118,-1.5177,-1.5526,-1.5517,-1.5651,-1.6079,-1.6437,-1.6983,-1.7555,-1.8078,-1.8459,-1.8548,-1.8583,-1.8348,1.6652,1.7453,1.8253,1.8811,1.9262,2.0353,2.0512,2.0131,2.0558,2.0968,2.1209,2.1295,2.1294,2.1067,2.1947,2.2521,2.2933,2.4191,2.5055,2.5547,2.6202,2.6403,2.6386,2.6352,2.6607,2.6708,2.6708,2.6708,2.6708,2.6708,2.6691,2.6624,2.5746,2.5221,2.5028,2.4307,2.3681,2.3638,2.3595,2.3595,2.3595,2.3508,2.3231,2.3009,2.274,2.1978,2.1274,2.0895,2.0408,2.0055,1.9798,1.9798,1.9747,1.9695,1.9423,1.9069,1.8649,1.823,1.7979,1.7318,1.58,1.4108,1.4424,1.4964,1.5476,1.6336,1.75,1.8874,2.0029,2.1331,2.1969,2.2756,2.3448,2.2629,2.1186,1.5917,0.922,0.2206,-0.4726,-1.0595,-1.5365,-1.7393,-1.8762,-1.8725,-1.8336,-1.7693,-1.7051,-1.6272,-1.5895,-1.5669,-1.5396,-1.521,-1.5055,-1.5195,-1.5342,-1.4606,-1.4538,-1.4932,-1.5089,-1.4883,-1.4469,-1.3906,-1.4025,-1.4864,-1.51,-1.5148,-1.5675,-1.6511,-1.718,-1.7795,-1.8317,-1.8685,-1.8667,-1.8433,-1.7977]},{"header":{"parameterUnit":"m.s-1","parameterCategory":1,"la1":31.0,"la2":29.5877,"lo1":-88.7671,"lo2":-86.6584,"dx":0.0162,"dy":0.0185,"nx":115,"ny":88,"refTime":"2023-01-29T18:00:00:Z","depth":0,"parameterNumber":3,"parameterNumberName":"V-component_of_WINDS"},"data":[0.0,0.0,0.0,0.0,0.0,0.0,0.0,0.0,0.0,0.0,0.0,0.0,0.0,0.0,0.0,0.0,0.0,0.0,0.0,0.0,0.0,0.0,0.0,0.0,0.0,0.0,0.0,0.0,0.0,0.0,0.0,0.0,0.0,0.0,0.0,0.0,0.0,0.0,0.0,0.0,0.0,0.0,0.0,0.0,0.0,0.0,0.0,0.0,0.0,0.0,0.0,0.0,0.0,0.0,0.0,0.0,0.0,0.0,0.0,0.0,0.0,0.0,0.0,0.0,0.0,0.0,0.0,0.0,0.0,0.0,0.0,0.0,0.0,0.0,0.0,0.0,0.0,0.0,0.0,0.0,0.0,0.0,0.0,0.0,0.0,0.0,0.0,0.0,0.0,0.0,0.0,0.0,0.0,0.0,0.0,0.0,0.0,0.0,0.0,0.0,0.0,0.0,0.0,0.0,0.0,0.0,0.0,0.0,0.0,0.0,0.0,0.0,0.0,0.0,0.0,0.0,0.0,0.0,0.0,0.0,0.0,0.0,0.0,0.0,0.0,0.0,0.0,0.0,0.0,0.0,0.0,0.0,0.0,0.0,0.0,0.0,0.0,0.0,0.0,0.0,0.0,0.0,0.0,0.0,0.0,0.0,0.0,0.0,0.0,0.0,0.0,0.0,0.0,0.0,0.0,0.0,0.0,0.0,0.0,0.0,0.0,0.0,0.0,0.0,0.0,0.0,0.0,0.0,0.0,0.0,0.0,0.0,0.0,0.0,0.0,0.0,0.0,0.0,0.0,0.0,0.0,0.0,0.0,0.0,0.0,0.0,0.0,0.0,0.0,0.0,0.0,0.0,0.0,0.0,0.0,0.0,0.0,0.0,0.0,0.0,0.0,0.0,0.0,0.0,0.0,0.0,0.0,0.0,0.0,0.0,0.0,0.0,0.0,0.0,0.0,0.0,0.0,0.0,0.0,0.0,0.0,0.0,0.0,0.0,0.0,0.0,0.0,0.0,0.0,0.0,0.0,0.0,0.0,0.0,0.0,0.0,0.0,0.0,0.0,0.0,0.0,0.0,0.0,0.0,0.0,0.0,0.0,0.0,0.0,0.0,0.0,0.0,0.0,0.0,0.0,0.0,0.0,0.0,0.0,0.0,0.0,0.0,0.0,0.0,0.0,0.0,0.0,0.0,0.0,0.0,0.0,0.0,0.0,0.0,0.0,0.0,0.0,0.0,0.0,0.0,0.0,0.0,0.0,0.0,0.0,0.0,0.0,0.0,0.0,0.0,0.0,0.0,0.0,0.0,0.0,0.0,0.0,0.0,0.0,0.0,0.0,0.0,0.0,0.0,0.0,0.0,0.0,0.0,0.0,0.0,0.0,0.0,0.0,0.0,0.0,0.0,0.0,0.0,0.0,0.0,0.0,0.0,0.0,0.0,0.0,0.0,0.0,0.0,0.0,0.0,0.0,0.0,0.0,0.0,0.0,0.0,0.0,0.0,0.0,0.0,0.0,0.0,0.0,0.0,0.0,0.0,0.0,0.0,0.0,0.0,0.0,0.0,0.0,0.0,0.0,0.0,0.0,0.0,0.0,0.0,0.0,0.0,0.0,0.0,0.0,0.0,0.0,0.0,0.0,0.0,0.0,0.0,0.0,0.0,0.0,0.0,0.0,0.0,0.0,0.0,0.0,0.0,0.0,0.0,0.0,0.0,0.0,0.0,0.0,0.0,0.0,0.0,0.0,0.0,0.0,0.0,0.0,0.0,0.0,0.0,0.0,0.0,0.0,0.0,0.0,0.0,0.0,0.0,0.0,0.0,0.0,0.0,0.0,0.0,0.0,0.0,0.0,0.0,0.0,0.0,0.0,0.0,0.0,0.0,0.0,0.0,0.0,0.0,0.0,0.0,0.0,0.0,0.0,0.0,0.0,0.0,0.0,0.0,0.0,0.0,0.0,0.0,0.0,0.0,0.0,0.0,0.0,0.0,0.0,0.0,0.0,0.0,0.0,0.0,0.0,0.0,0.0,0.0,0.0,0.0,0.0,0.0,0.0,0.0,0.0,0.0,0.0,0.0,0.0,0.0,0.0,0.0,0.0,0.0,0.0,0.0,0.0,0.0,0.0,0.0,0.0,0.0,0.0,0.0,0.0,0.0,0.0,0.0,0.0,0.0,0.0,0.0,0.0,0.0,0.0,0.0,0.0,0.0,0.0,0.0,0.0,0.0,0.0,0.0,0.0,0.0,0.0,0.0,0.0,0.0,0.0,0.0,0.0,0.0,0.0,0.0,0.0,0.0,0.0,0.0,0.0,0.0,0.0,0.0,0.0,0.0,0.0,0.0,0.0,0.0,0.0,0.0,0.0,0.0,0.0,0.0,0.0,0.0,0.0,0.0,0.0,0.0,0.0,0.0,0.0,0.0,0.0,0.0,0.0,0.0,0.0,0.0,0.0,0.0,0.0,0.0,0.0,0.0,0.0,0.0,0.0,0.0,0.0,0.0,0.0,0.0,0.0,0.0,0.0,0.0,0.0,0.0,0.0,0.0,0.0,0.0,0.0,0.0,0.0,0.0,0.0,0.0,0.0,0.0,0.0,0.0,0.0,0.0,0.0,0.0,0.0,0.0,0.0,0.0,0.0,0.0,0.0,0.0,0.0,0.0,0.0,0.0,0.0,0.0,0.0,0.0,0.0,0.0,0.0,0.0,0.0,0.0,0.0,0.0,0.0,0.0,0.0,0.0,0.0,0.0,0.0,0.0,0.0,0.0,0.0,0.0,0.0,0.0,0.0,0.0,0.0,0.0,0.0,0.0,0.0,0.0,0.0,0.0,0.0,0.0,0.0,0.0,0.0,0.0,0.0,0.0,0.0,0.0,0.0,0.0,0.0,0.0,0.0,0.0,0.0,0.0,0.0,0.0,0.0,0.0,0.0,0.0,0.0,0.0,0.0,0.0,0.0,0.0,0.0,0.0,0.0,0.0,0.0,0.0,0.0,0.0,0.0,0.0,0.0,0.0,0.0,0.0,0.0,0.0,0.0,0.0,0.0,0.0,0.0,0.0,0.0,0.0,0.0,0.0,0.0,0.0,0.0,0.0,0.0,0.0,0.0,0.0,0.0,0.0,0.0,0.0,0.0,0.0,0.0,0.0,0.0,0.0,0.0,0.0,0.0,0.0,0.0,0.0,0.0,0.0,0.0,0.0,0.0,0.0,0.0,0.0,0.0,0.0,0.0,0.0,0.0,0.0,0.0,0.0,0.0,0.0,0.0,0.0,0.0,0.0,0.0,0.0,0.0,0.0,0.0,0.0,0.0,0.0,0.0,0.0,0.0,0.0,0.0,0.0,0.0,0.0,0.0,0.0,0.0,0.0,0.0,0.0,0.0,0.0,0.0,0.0,0.0,0.0,0.0,0.0,0.0,0.0,0.0,0.0,0.0,0.0,0.0,0.0,0.0,0.0,0.0,0.0,0.0,0.0,0.0,0.0,0.0,0.0,0.0,0.0,0.0,0.0,0.0,0.0,0.0,0.0,0.0,0.0,0.0,0.0,0.0,0.0,0.0,0.0,0.0,0.0,0.0,0.0,0.0,0.0,0.0,0.0,0.0,0.0,0.0,0.0,0.0,0.0,0.0,0.0,0.0,0.0,0.0,0.0,0.0,0.0,0.0,0.0,0.0,0.0,0.0,0.0,0.0,0.0,0.0,0.0,0.0,0.0,0.0,0.0,0.0,0.0,0.0,0.0,0.0,0.0,0.0,0.0,0.0,0.0,0.0,0.0,0.0,0.0,0.0,0.0,0.0,0.0,0.0,0.0,0.0,0.0,0.0,0.0,0.0,0.0,0.0,0.0,0.0,0.0,0.0,0.0,0.0,0.0,0.0,0.0,0.0,0.0,0.0,0.0,0.0,0.0,0.0,0.0,0.0,0.0,0.0,0.0,0.0,0.0,0.0,0.0,0.0,0.0,0.0,0.0,0.0,0.0,0.0,0.0,0.0,0.0,0.0,0.0,0.0,0.0,0.0,0.0,0.0,0.0,0.0,0.0,0.0,0.0,0.0,0.0,0.0,0.0,0.0,0.0,0.0,0.0,0.0,0.0,0.0,0.0,0.0,0.0,0.0,0.0,0.0,0.0,0.0,0.0,0.0,0.0,0.0,0.0,0.0,0.0,0.0,0.0,0.0,0.0,0.0,0.0,0.0,0.0,0.0,0.0,0.0,0.0,0.0,0.0,0.0,0.0,0.0,0.0,0.0,0.0,0.0,0.0,0.0,0.0,0.0,0.0,-0.7896,0.0,0.0,0.0,0.0,0.0,0.0,0.0,0.0,0.0,0.0,0.0,0.0,0.0,0.0,0.0,0.0,0.0,0.0,0.0,0.0,0.0,0.0,0.0,0.0,0.0,0.0,0.0,0.0,0.0,0.0,0.0,0.0,0.0,0.0,0.0,0.0,0.0,0.0,0.0,0.0,0.0,0.0,0.0,0.0,0.0,0.0,0.0,0.0,0.0,0.0,0.0,0.0,0.0,0.0,0.0,0.0,0.0,0.0,0.0,0.0,0.0,0.0,0.0,0.0,0.0,0.0,0.0,0.0,0.0,0.0,0.0,0.0,0.0,0.0,0.0,0.0,0.0,0.0,0.0,0.0,0.0,0.0,0.0,0.0,0.0,0.0,0.0,0.0,0.0,0.0,0.0,0.0,0.0,0.0,0.0,0.0,0.0,0.0,0.0,0.0,0.0,0.0,0.0,0.0,0.0,0.0,0.0,0.0,0.0,0.0,-0.4495,-0.3881,-0.2637,-0.3112,-0.5487,0.0,0.0,0.0,0.0,0.0,0.0,0.0,0.0,0.0,0.0,0.0,0.0,0.0,0.0,0.0,0.0,0.0,0.0,0.0,0.0,0.0,0.0,0.0,0.0,0.0,0.0,0.0,0.0,0.0,0.0,0.0,0.0,0.0,0.0,0.0,0.0,0.0,0.0,0.0,0.0,0.0,0.0,0.0,0.0,0.0,0.0,0.0,0.0,0.0,0.0,0.0,0.0,0.0,0.0,0.0,0.0,0.0,0.0,0.0,0.0,0.0,0.0,0.0,0.0,0.0,0.0,0.0,0.0,0.0,0.0,0.0,0.0,0.0,0.0,0.0,0.0,0.0,0.0,0.0,0.0,0.0,0.0,0.0,0.0,0.0,0.0,0.0,0.0,0.0,0.0,0.0,0.0,0.0,0.0,0.0,0.0,0.0,0.0,0.0,0.0,0.0,0.0,0.0,0.0,0.0,0.0,0.0,0.0,0.0,0.0,0.0,0.0,-0.4237,-0.3701,-0.3318,0.0,0.0,0.0,0.0,0.0,0.0,0.0,0.0,0.0,0.0,0.0,0.0,0.0,0.0,0.0,0.0,0.0,0.0,0.0,0.0,0.0,0.0,0.0,0.0,0.0,0.0,0.0,0.0,0.0,0.0,0.0,0.0,0.0,0.0,0.0,0.0,0.0,0.0,0.0,0.0,0.0,0.0,0.0,0.0,0.0,0.0,0.0,0.0,0.0,0.0,0.0,0.0,0.0,0.0,0.0,0.0,0.0,0.0,0.0,0.0,0.0,0.0,0.0,0.0,0.0,0.0,0.0,0.0,0.0,0.0,0.0,0.0,0.0,0.0,0.0,0.0,0.0,0.0,0.0,0.0,0.0,0.0,0.0,0.0,0.0,0.0,0.0,0.0,0.0,0.0,0.0,0.0,0.0,0.0,0.0,0.0,0.0,0.0,0.0,0.0,0.0,0.0,0.0,0.0,0.0,0.0,0.0,0.0,0.0,0.0,-0.9127,-0.6562,-0.5642,0.0,-0.6008,0.0,0.0,0.0,0.0,0.0,0.0,0.0,0.0,0.0,0.0,0.0,0.0,0.0,0.0,0.0,0.0,0.0,0.0,0.0,0.0,0.0,0.0,0.0,0.0,0.0,0.0,0.0,0.0,0.0,0.0,0.0,0.0,0.0,0.0,0.0,0.0,0.0,0.0,0.0,0.0,0.0,0.0,0.0,0.0,0.0,0.0,0.0,0.0,0.0,0.0,0.0,0.0,0.0,0.0,0.0,0.0,0.0,0.0,0.0,0.0,0.0,0.0,0.0,0.0,0.0,0.0,0.0,0.0,0.0,0.0,0.0,0.0,0.0,0.0,0.0,0.0,0.0,0.0,0.0,0.0,0.0,0.0,0.0,0.0,0.0,0.0,0.0,0.0,0.0,0.0,0.0,0.0,0.0,0.0,0.0,0.0,0.0,0.0,0.0,0.0,0.0,0.0,0.0,0.0,0.0,0.0,0.0,0.0,0.0,0.0,-0.8677,-0.6924,-0.5755,-0.5609,0.0,0.0,0.0,0.0,0.0,0.0,0.0,0.0,0.0,0.0,0.0,0.0,0.0,0.0,0.0,0.0,0.0,0.0,0.0,0.0,0.0,0.0,0.0,0.0,0.0,0.0,0.0,0.0,0.0,0.0,0.0,0.0,0.0,0.0,0.0,0.0,0.0,0.0,0.0,0.0,0.0,0.0,0.0,0.0,0.0,0.0,0.0,0.0,0.0,0.0,0.0,0.0,0.0,0.0,0.0,0.0,0.0,0.0,0.0,0.0,0.0,0.0,0.0,0.0,0.0,0.0,0.0,0.0,0.0,0.0,0.0,0.0,0.0,0.0,0.0,0.0,0.0,0.0,0.0,0.0,0.0,0.0,0.0,0.0,0.0,0.0,0.0,0.0,0.0,0.0,0.0,0.0,0.0,0.0,0.0,0.0,0.0,0.0,0.0,0.0,0.0,0.0,0.0,0.0,0.0,0.0,0.0,0.0,0.0,0.0,-0.8818,-0.7662,-0.6286,-0.5198,-0.5349,-0.6773,0.0,0.0,0.0,0.0,0.0,0.0,0.0,0.0,0.0,0.0,0.0,0.0,0.0,0.0,0.0,0.0,0.0,0.0,0.0,0.0,0.0,0.0,0.0,0.0,0.0,0.0,0.0,0.0,0.0,0.0,0.0,0.0,0.0,0.0,0.0,0.0,0.0,0.0,0.0,0.0,0.0,0.0,0.0,0.0,0.0,0.0,0.0,0.0,0.0,0.0,0.0,0.0,0.0,0.0,0.0,0.0,0.0,0.0,0.0,0.0,0.0,0.0,0.0,0.0,0.0,0.0,0.0,0.0,0.0,0.0,0.0,0.0,0.0,0.0,0.0,0.0,0.0,0.0,0.0,0.0,0.0,0.0,0.0,0.0,0.0,0.0,0.0,0.0,0.0,0.0,0.0,0.0,0.0,0.0,0.0,0.0,0.0,0.0,0.0,0.0,0.0,0.0,0.0,0.0,0.0,0.0,0.0,0.0,-0.8499,-0.7956,-0.6629,-0.4437,-0.4012,-0.4808,0.0,0.0,0.0,0.0,0.0,0.0,0.0,0.0,0.0,0.0,0.0,0.0,0.0,0.0,0.0,0.0,0.0,0.0,0.0,0.0,0.0,0.0,0.0,0.0,0.0,0.0,0.0,0.0,0.0,0.0,0.0,0.0,0.0,0.0,0.0,0.0,0.0,0.0,0.0,0.0,0.0,0.0,0.0,0.0,0.0,0.0,0.0,0.0,0.0,0.0,0.0,0.0,0.0,0.0,0.0,0.0,0.0,0.0,0.0,0.0,0.0,0.0,0.0,0.0,0.0,0.0,0.0,0.0,0.0,0.0,0.0,0.0,0.0,0.0,0.0,0.0,0.0,0.0,0.0,0.0,0.0,0.0,0.0,0.0,0.0,0.0,0.0,0.0,0.0,0.0,0.0,0.0,0.0,0.0,0.0,0.0,0.0,0.0,0.0,0.0,0.0,0.0,0.0,0.0,0.0,0.0,0.0,0.0,0.0,-0.673,-0.5795,-0.4812,-0.3676,-0.3721,-0.4522,0.0,0.0,0.0,0.0,0.0,0.0,0.0,0.0,0.0,0.0,0.0,0.0,0.0,0.0,0.0,0.0,0.0,0.0,0.0,0.0,0.0,0.0,0.0,0.0,0.0,0.0,0.0,0.0,0.0,0.0,0.0,0.0,0.0,0.0,0.0,0.0,0.0,0.0,0.0,0.0,0.0,0.0,0.0,0.0,0.0,0.0,0.0,0.0,0.0,0.0,0.0,0.0,0.0,0.0,0.0,0.0,0.0,0.0,0.0,0.0,0.0,0.0,0.0,0.0,0.0,0.0,0.0,0.0,0.0,0.0,0.0,0.0,0.0,0.0,0.0,0.0,0.0,0.0,0.0,0.0,0.0,0.0,0.0,0.0,0.0,0.0,0.0,0.0,0.0,0.0,0.0,0.0,0.0,0.0,0.0,0.0,0.0,0.0,0.0,0.0,0.0,0.0,0.0,0.0,0.0,0.0,0.0,0.0,0.0,-0.5205,0.0,-0.3444,-0.3121,-0.3431,-0.4362,0.0,0.0,0.0,0.0,0.0,0.0,0.0,0.0,0.0,0.0,0.0,0.0,0.0,0.0,0.0,0.0,0.0,0.0,0.0,0.0,0.0,0.0,0.0,0.0,0.0,0.0,0.0,0.0,0.0,0.0,0.0,0.0,0.0,0.0,0.0,0.0,0.0,0.0,0.0,0.0,0.0,0.0,0.0,0.0,0.0,0.0,0.0,0.0,0.0,0.0,0.0,0.0,0.0,0.0,0.0,0.0,0.0,0.0,0.0,0.0,0.0,0.0,0.0,0.0,0.0,0.0,0.0,0.0,0.0,0.0,0.0,0.0,0.0,0.0,0.0,0.0,0.0,0.0,0.0,0.0,0.0,0.0,0.0,0.0,0.0,0.0,0.0,0.0,0.0,0.0,0.0,0.0,0.0,0.0,0.0,0.0,0.0,0.0,0.0,0.0,0.0,0.0,0.0,0.0,0.0,0.0,0.0,0.0,-0.5729,-0.4091,-0.3208,-0.2782,-0.2712,-0.3105,-0.4324,0.0,0.0,0.0,0.0,0.0,0.0,0.0,0.0,0.0,0.0,0.0,0.0,0.0,0.0,0.0,0.0,0.0,0.0,0.0,0.0,0.0,0.0,0.0,0.0,0.0,0.0,0.0,0.0,0.0,0.0,0.0,0.0,0.0,0.0,0.0,0.0,0.0,0.0,0.0,0.0,0.0,0.0,0.0,0.0,0.0,0.0,0.0,0.0,0.0,0.0,0.0,0.0,0.0,0.0,0.0,0.0,0.0,0.0,0.0,0.0,0.0,0.0,0.0,0.0,0.0,0.0,0.0,0.0,0.0,0.0,0.0,0.0,0.0,0.0,0.0,0.0,0.0,0.0,0.0,0.0,0.0,0.0,0.0,0.0,0.0,0.0,0.0,0.0,0.0,0.0,0.0,0.0,0.0,0.0,0.0,0.0,0.0,0.0,0.0,0.0,0.0,0.0,0.0,0.0,0.0,0.0,0.0,0.0,0.0,-0.4456,-0.3754,-0.3313,-0.3122,-0.3456,-0.4671,0.0,0.0,0.0,0.0,0.0,0.0,0.0,0.0,0.0,0.0,0.0,0.0,0.0,0.0,0.0,0.0,0.0,0.0,0.0,0.0,0.0,0.0,0.0,0.0,0.0,0.0,0.0,0.0,0.0,0.0,0.0,0.0,0.0,0.0,0.0,0.0,0.0,0.0,0.0,0.0,0.0,0.0,0.0,0.0,0.0,0.0,0.0,0.0,0.0,0.0,0.0,0.0,0.0,0.0,0.0,0.0,0.0,0.0,0.0,0.0,0.0,0.0,0.0,0.0,0.0,0.0,0.0,0.0,0.0,0.0,0.0,0.0,0.0,0.0,0.0,0.0,0.0,0.0,0.0,0.0,0.0,0.0,0.0,0.0,0.0,0.0,0.0,0.0,0.0,0.0,0.0,0.0,0.0,0.0,0.0,0.0,0.0,0.0,0.0,0.0,0.0,0.0,0.0,0.0,0.0,0.0,0.0,0.0,0.0,-0.3922,-0.2802,-0.2035,-0.1643,-0.19,-0.3617,-0.6935,0.0,0.0,0.0,0.0,0.0,0.0,0.0,0.0,0.0,0.0,0.0,0.0,0.0,0.0,0.0,0.0,0.0,0.0,0.0,0.0,0.0,0.0,0.0,0.0,0.0,0.0,0.0,0.0,0.0,0.0,0.0,0.0,0.0,0.0,0.0,0.0,0.0,0.0,0.0,0.0,0.0,0.0,0.0,0.0,0.0,0.0,0.0,0.0,0.0,0.0,0.0,0.0,0.0,0.0,0.0,0.0,0.0,0.0,0.0,0.0,0.0,0.0,0.0,0.0,0.0,0.0,0.0,0.0,0.0,0.0,0.0,0.0,0.0,0.0,0.0,0.0,0.0,0.0,0.0,0.0,0.0,0.0,0.0,0.0,0.0,0.0,0.0,0.0,0.0,0.0,0.0,0.0,0.0,0.0,0.0,0.0,0.0,0.0,0.0,0.0,0.0,0.0,0.0,0.0,0.0,0.0,0.0,0.0,-0.2529,-0.0478,0.0814,0.1247,0.0926,-0.1593,0.0,0.0,0.0,0.0,0.0,0.0,0.0,0.0,0.0,0.0,0.0,0.0,0.0,0.0,0.0,0.0,0.0,0.0,0.0,0.0,0.0,0.0,0.0,0.0,0.0,0.0,0.0,0.0,0.0,0.0,0.0,0.0,0.0,0.0,0.0,0.0,0.0,0.0,0.0,0.0,0.0,0.0,0.0,0.0,0.0,0.0,0.0,0.0,0.0,0.0,0.0,0.0,0.0,0.0,0.0,0.0,0.0,0.0,0.0,0.0,0.0,0.0,0.0,0.0,0.0,0.0,0.0,0.0,0.0,0.0,0.0,0.0,0.0,0.0,0.0,0.0,0.0,0.0,0.0,0.0,0.0,0.0,0.0,0.0,0.0,0.0,0.0,0.0,0.0,0.0,0.0,0.0,0.0,0.0,0.0,0.0,0.0,0.0,0.0,0.0,0.0,0.0,0.0,0.0,0.0,0.0,0.0,0.0,0.0,-0.0051,0.2711,0.3606,0.2477,0.0777,-0.1595,0.0,0.0,0.0,0.0,0.0,0.0,0.0,0.0,0.0,0.0,0.0,0.0,0.0,0.0,0.0,0.0,0.0,0.0,0.0,0.0,0.0,0.0,0.0,0.0,0.0,0.0,0.0,0.0,0.0,0.0,0.0,0.0,0.0,0.0,0.0,0.0,0.0,0.0,0.0,0.0,0.0,0.0,0.0,0.0,0.0,0.0,0.0,0.0,0.0,0.0,0.0,0.0,0.0,0.0,0.0,0.0,0.0,0.0,0.0,0.0,0.0,0.0,0.0,0.0,0.0,0.0,0.0,0.0,0.0,0.0,0.0,0.0,0.0,0.0,0.0,0.0,0.0,0.0,0.0,0.0,0.0,0.0,0.0,0.0,0.0,0.0,0.0,0.0,0.0,0.0,0.0,0.0,0.0,0.0,0.0,0.0,0.0,0.0,0.0,0.0,0.0,0.0,0.0,0.0,0.0,0.0,0.0,0.0,-0.249,0.0515,0.4383,0.607,0.536,0.2306,-0.0917,0.0,0.0,0.0,0.0,0.0,0.0,0.0,0.0,0.0,0.0,0.0,0.0,0.0,0.0,0.0,0.0,0.0,0.0,0.0,0.0,0.0,0.0,0.0,0.0,0.0,0.0,0.0,0.0,0.0,0.0,0.0,0.0,0.0,0.0,0.0,0.0,0.0,0.0,0.0,0.0,0.0,0.0,0.0,0.0,0.0,0.0,0.0,0.0,0.0,0.0,0.0,0.0,0.0,0.0,0.0,0.0,0.0,0.0,0.0,0.0,0.0,0.0,0.0,0.0,0.0,0.0,0.0,0.0,0.0,0.0,0.0,0.0,0.0,0.0,0.0,0.0,0.0,0.0,0.0,0.0,0.0,0.0,0.0,0.0,0.0,0.0,0.0,0.0,0.0,0.0,0.0,0.0,0.0,0.0,0.0,0.0,0.0,0.0,0.0,0.0,0.0,0.0,0.0,0.0,0.0,0.0,0.0,0.0,-0.111,0.0328,0.513,0.7974,0.8447,0.4419,0.0101,0.0,0.0,0.0,0.0,0.0,0.0,0.0,0.0,0.0,0.0,0.0,0.0,0.0,0.0,0.0,0.0,0.0,0.0,0.0,0.0,0.0,0.0,0.0,0.0,0.0,0.0,0.0,0.0,0.0,0.0,0.0,0.0,0.0,0.0,0.0,0.0,0.0,0.0,0.0,0.0,0.0,0.0,0.0,0.0,0.0,0.0,0.0,0.0,0.0,0.0,0.0,0.0,0.0,0.0,0.0,0.0,0.0,0.0,0.0,0.0,0.0,0.0,0.0,0.0,0.0,0.0,0.0,0.0,0.0,0.0,0.0,0.0,0.0,0.0,0.0,0.0,0.0,0.0,0.0,0.0,0.0,0.0,0.0,0.0,0.0,0.0,0.0,0.0,0.0,0.0,0.0,0.0,0.0,0.0,0.0,0.0,0.0,0.0,0.0,0.0,0.0,0.0,0.0,0.0,0.0,0.0,0.0,0.0,0.1144,0.2964,0.6074,0.7773,0.7878,0.3606,0.0201,0.0,0.0,0.0,0.0,0.0,0.0,0.0,0.0,0.0,0.0,0.0,0.0,0.0,0.0,0.0,0.0,0.0,0.0,0.0,0.0,0.0,0.0,0.0,0.0,0.0,0.0,0.0,0.0,0.0,0.0,0.0,0.0,0.0,0.0,0.0,0.0,0.0,0.0,0.0,0.0,0.0,0.0,0.0,0.0,0.0,0.0,0.0,0.0,-2.1562,0.0,0.0,0.0,0.0,0.0,0.0,0.0,0.0,0.0,0.0,0.0,0.0,0.0,0.0,0.0,0.0,0.0,0.0,0.0,0.0,0.0,0.0,0.0,0.0,0.0,0.0,0.0,0.0,0.0,0.0,0.0,0.0,0.0,0.0,0.0,0.0,0.0,0.0,0.0,0.0,0.0,0.0,0.0,0.0,0.0,0.0,0.0,0.0,0.0,0.0,0.0,0.0,0.0,0.0,0.0,0.0,0.0,0.0,0.0,0.0647,0.3199,0.5788,0.7314,0.755,0.413,0.0896,0.0,0.0,0.0,0.0,0.0,0.0,0.0,0.0,0.0,0.0,0.0,0.0,0.0,0.0,0.0,0.0,0.0,0.0,0.0,0.0,0.0,0.0,0.0,0.0,0.0,0.0,0.0,0.0,0.0,0.0,0.0,0.0,0.0,0.0,0.0,0.0,0.0,0.0,0.0,0.0,0.0,0.0,0.0,0.0,0.0,0.0,0.0,0.0,0.0,0.0,0.0,0.0,0.0,0.0,0.0,0.0,0.0,0.0,0.0,0.0,0.0,0.0,0.0,0.0,0.0,0.0,0.0,0.0,0.0,0.0,0.0,0.0,0.0,0.0,0.0,0.0,0.0,0.0,0.0,0.0,0.0,0.0,0.0,0.0,0.0,0.0,0.0,0.0,0.0,0.0,0.0,0.0,0.0,0.0,0.0,0.0,0.0,0.0,0.0,0.0,0.0,0.0,0.0,0.0,0.0,0.0,0.0,-0.2637,-0.032,0.3099,0.5366,0.6892,0.7637,0.5244,0.1825,-0.2648,0.0,0.0,0.0,0.0,0.0,0.0,0.0,0.0,0.0,0.0,0.0,0.0,0.0,0.0,0.0,0.0,0.0,0.0,0.0,0.0,0.0,0.0,0.0,0.0,0.0,0.0,0.0,0.0,0.0,0.0,0.0,0.0,0.0,0.0,0.0,0.0,0.0,0.0,-2.0263,-2.0353,0.0,0.0,0.0,0.0,0.0,0.0,0.0,0.0,-1.3416,0.0,0.0,0.0,0.0,0.0,0.0,0.0,0.0,0.0,0.0,0.0,0.0,0.0,0.0,0.0,0.0,0.0,0.0,0.0,0.0,0.0,0.0,0.0,0.0,0.0,0.0,0.0,0.0,0.0,0.0,0.0,0.0,0.0,0.0,0.0,0.0,0.0,0.0,0.0,0.0,0.0,0.0,0.0,0.0,0.0,0.0,0.0,0.0,0.0,0.0,0.0,0.0,0.0,0.0,0.0,0.0,-0.1832,-0.1079,0.1407,0.5716,0.626,0.6892,0.7618,0.6217,0.2697,-0.2988,0.0,0.0,0.0,0.0,0.0,0.0,0.0,0.0,0.0,0.0,0.0,0.0,0.0,0.0,0.0,0.0,0.0,0.0,0.0,0.0,0.0,0.0,0.0,0.0,0.0,0.0,0.0,0.0,0.0,0.0,0.0,0.0,0.0,0.0,0.0,0.0,0.0,0.0,0.0,-2.0355,-2.0424,0.0,0.0,0.0,0.0,0.0,0.0,0.0,0.0,-1.5477,0.0,0.0,0.0,0.0,0.0,0.0,0.0,0.0,0.0,0.0,0.0,0.0,0.0,0.0,0.0,0.0,0.0,0.0,0.0,0.0,0.0,0.0,0.0,0.0,0.0,0.0,0.0,0.0,0.0,0.0,0.0,0.0,0.0,0.0,0.0,0.0,0.0,0.0,0.0,0.0,0.0,0.0,0.0,0.0,0.0,0.0,0.0,0.0,0.0,0.0,0.0,0.0,0.0,0.0,0.0,-0.3259,-0.0957,0.2014,0.568,0.5845,0.622,0.7002,0.6028,0.2598,0.0,0.0,0.0,0.0,0.0,0.0,0.0,0.0,0.0,0.0,0.0,0.0,0.0,0.0,0.0,0.0,0.0,0.0,0.0,0.0,0.0,0.0,0.0,0.0,0.0,0.0,0.0,0.0,0.0,0.0,0.0,0.0,0.0,0.0,0.0,0.0,0.0,0.0,0.0,0.0,-2.0003,-2.0115,-1.9314,0.0,0.0,0.0,0.0,0.0,0.0,-1.2848,-1.2567,0.0,0.0,0.0,0.0,0.0,0.0,0.0,0.0,0.0,0.0,0.0,0.0,0.0,0.0,0.0,0.0,0.0,0.0,0.0,0.0,0.0,0.0,0.0,0.0,0.0,0.0,0.0,0.0,0.0,0.0,0.0,0.0,0.0,0.0,0.0,0.0,0.0,0.0,0.0,0.0,0.0,0.0,0.0,0.0,0.0,0.0,0.0,0.0,0.0,0.0,0.0,0.0,0.0,0.0,0.0,-0.5091,-0.1315,0.2119,0.5033,0.5174,0.5612,0.6455,0.5404,0.2017,0.0,0.0,0.0,0.0,0.0,0.0,0.0,0.0,0.0,0.0,0.0,0.0,0.0,0.0,0.0,0.0,0.0,0.0,0.0,0.0,0.0,0.0,0.0,0.0,0.0,0.0,0.0,0.0,0.0,0.0,0.0,0.0,0.0,0.0,0.0,0.0,0.0,0.0,0.0,0.0,0.0,-1.9957,-1.8722,-1.8903,0.0,0.0,0.0,0.0,-1.5915,-1.1079,0.0,0.0,0.0,0.0,0.0,0.0,0.0,0.0,0.0,0.0,0.0,0.0,0.0,0.0,0.0,0.0,0.0,0.0,0.0,0.0,0.0,0.0,0.0,0.0,0.0,0.0,0.0,0.0,0.0,0.0,0.0,0.0,0.0,0.0,0.0,0.0,0.0,0.0,0.0,0.0,0.0,0.0,0.0,0.0,0.0,0.0,0.0,0.0,0.0,0.0,0.0,0.0,0.0,0.0,0.0,0.0,-0.5733,-0.1675,0.1981,0.502,0.5206,0.5612,0.6447,0.4506,0.1037,0.0,0.0,0.0,0.0,0.0,0.0,0.0,0.0,0.0,0.0,0.0,0.0,0.0,0.0,0.0,0.0,0.0,0.0,0.0,0.0,0.0,0.0,0.0,0.0,0.0,0.0,0.0,0.0,0.0,0.0,0.0,0.0,0.0,0.0,0.0,0.0,0.0,0.0,0.0,0.0,0.0,-2.0448,-2.0319,-1.6943,-1.6273,0.0,0.0,0.0,-1.2877,-0.9018,0.0,0.0,0.0,0.0,0.0,0.0,0.0,0.0,0.0,0.0,0.0,0.0,0.0,0.0,0.0,0.0,0.0,0.0,0.0,0.0,0.0,0.0,0.0,0.0,0.0,0.0,0.0,0.0,0.0,0.0,0.0,0.0,0.0,0.0,0.0,0.0,0.0,0.0,0.0,0.0,0.0,0.0,0.0,0.0,0.0,0.0,0.0,0.0,0.0,0.0,0.0,0.0,0.0,0.0,0.0,-0.7786,-0.7639,-0.0841,0.375,0.5605,0.5634,0.5875,0.648,0.435,0.0871,0.0,0.0,0.0,0.0,0.0,0.0,0.0,0.0,0.0,0.0,0.0,0.0,0.0,0.0,0.0,0.0,0.0,0.0,0.0,0.0,0.0,0.0,0.0,0.0,0.0,0.0,0.0,0.0,0.0,0.0,0.0,0.0,0.0,0.0,0.0,0.0,0.0,0.0,0.0,0.0,0.0,0.0,-1.3628,-1.2959,0.0,0.0,0.0,-1.9884,-1.4533,0.0,0.0,0.0,0.0,0.0,0.0,0.0,0.0,0.0,0.0,0.0,0.0,0.0,0.0,0.0,0.0,0.0,0.0,0.0,0.0,0.0,0.0,0.0,0.0,0.0,0.0,0.0,0.0,0.0,0.0,0.0,0.0,0.0,0.0,0.0,0.0,0.0,0.0,0.0,0.0,0.0,0.0,0.0,0.0,0.0,0.0,0.0,0.0,0.0,0.0,0.0,0.0,0.0,0.0,0.0,0.0,0.0,-0.9179,-0.0044,0.5201,0.6037,0.589,0.5983,0.6438,0.4576,0.0,0.0,0.0,0.0,0.0,0.0,0.0,0.0,0.0,0.0,0.0,0.0,0.0,0.0,0.0,0.0,0.0,0.0,0.0,0.0,0.0,0.0,0.0,0.0,0.0,0.0,0.0,-2.0209,0.0,0.0,0.0,0.0,0.0,0.0,0.0,0.0,0.0,0.0,0.0,0.0,0.0,0.0,-1.4402,-0.9493,-0.8969,-1.2161,0.0,0.0,-1.8849,-1.4048,-0.3105,0.0879,0.0,0.0,0.0,0.0,0.0,0.0,0.0,0.0,0.0,0.0,0.0,0.0,0.0,0.0,0.0,0.0,0.0,0.0,0.0,0.0,0.0,0.0,0.0,0.0,0.0,0.0,0.0,0.0,0.0,0.0,0.0,0.0,0.0,0.0,0.0,0.0,0.0,0.0,0.0,0.0,0.0,0.0,0.0,0.0,0.0,0.0,0.0,0.0,0.0,0.0,0.0,0.0,0.0,0.0,0.0,-0.8967,0.0282,0.5533,0.6067,0.5595,0.5703,0.6455,0.5191,0.1704,0.0,0.0,0.0,0.0,0.0,0.0,0.0,0.0,0.0,0.0,0.0,0.0,0.0,0.0,0.0,0.0,0.0,0.0,0.0,0.0,0.0,0.0,0.0,0.0,0.0,0.0,0.0,0.0,0.0,0.0,0.0,0.0,0.0,0.0,0.0,0.0,0.0,0.0,0.0,0.0,0.0,-1.8013,-1.2558,-0.5502,-0.553,0.0,0.0,-1.7215,-0.8273,-0.1014,0.0857,-0.7453,0.0,0.0,0.0,0.0,0.0,0.0,0.0,0.0,0.0,0.0,0.0,0.0,0.0,0.0,0.0,0.0,0.0,0.0,0.0,0.0,0.0,0.0,0.0,0.0,0.0,0.0,0.0,0.0,0.0,0.0,0.0,0.0,0.0,0.0,0.0,0.0,0.0,0.0,0.0,0.0,0.0,0.0,0.0,0.0,0.0,0.0,0.0,0.0,0.0,0.0,0.0,0.0,0.0,-0.5524,-0.5002,0.2005,0.5828,0.606,0.582,0.5913,0.648,0.5261,0.2483,0.0,0.0,0.0,0.0,0.0,0.0,0.0,0.0,0.0,0.0,0.0,0.0,0.0,0.0,0.0,0.0,0.0,0.0,0.0,0.0,0.0,0.0,0.0,0.0,0.0,0.0,0.0,0.0,-1.4978,-1.4508,-1.6307,0.0,0.0,0.0,0.0,0.0,0.0,0.0,0.0,0.0,0.0,-1.9219,-1.1879,-0.591,0.0,0.0,-1.4536,-0.9015,-1.2295,-0.767,-0.4177,-0.5561,-0.9174,0.0,0.0,0.0,0.0,0.0,0.0,0.0,0.0,0.0,0.0,0.0,0.0,0.0,0.0,0.0,0.0,0.0,0.0,0.0,0.0,0.0,0.0,0.0,0.0,0.0,0.0,0.0,0.0,0.0,0.0,0.0,0.0,0.0,0.0,0.0,0.0,0.0,0.0,0.0,0.0,0.0,0.0,0.0,0.0,0.0,0.0,0.0,0.0,0.0,0.0,0.0,0.0,-0.4595,-0.2181,0.3272,0.6098,0.6098,0.5975,0.6098,0.6463,0.553,0.3198,0.0,0.0,0.0,0.0,0.0,0.0,0.0,0.0,0.0,0.0,0.0,0.0,0.0,0.0,0.0,0.0,0.0,0.0,0.0,0.0,0.0,0.0,0.0,0.0,0.0,0.0,0.0,0.0,-1.4103,-1.3697,-1.5723,0.0,0.0,0.0,0.0,0.0,0.0,0.0,0.0,0.0,0.0,-1.8389,-1.5078,-1.2016,-1.2839,-2.0472,-0.9326,-0.3827,-1.4844,-1.477,-1.1576,-0.6207,0.0,0.0,0.0,0.0,0.0,0.0,0.0,0.0,0.0,0.0,0.0,0.0,0.0,0.0,0.0,0.0,0.0,0.0,0.0,0.0,0.0,0.0,0.0,0.0,0.0,0.0,0.0,0.0,0.0,0.0,0.0,0.0,0.0,0.0,0.0,0.0,0.0,0.0,0.0,0.0,0.0,0.0,0.0,0.0,0.0,0.0,0.0,0.0,0.0,0.0,0.0,0.0,0.0,0.0,-0.1662,0.3652,0.6364,0.612,0.5975,0.6098,0.6449,0.6082,0.3813,-0.0544,0.0,0.0,0.0,0.0,0.0,0.0,0.0,0.0,0.0,0.0,0.0,0.0,0.0,0.0,0.0,0.0,0.0,0.0,0.0,0.0,0.0,0.0,0.0,0.0,0.0,0.0,-2.2198,-1.864,-1.5873,0.0,0.0,0.0,0.0,0.0,0.0,0.0,0.0,0.0,0.0,-1.7562,-1.5308,-2.334,-2.4723,-2.1746,-1.4557,-0.6055,-0.3928,-1.44,-2.082,-2.1149,0.0,0.0,0.0,0.0,0.0,0.0,0.0,0.0,0.0,0.0,0.0,0.0,0.0,0.0,0.0,0.0,0.0,0.0,0.0,0.0,0.0,0.0,0.0,0.0,0.0,0.0,0.0,0.0,0.0,0.0,0.0,0.0,0.0,0.0,0.0,0.0,0.0,0.0,0.0,0.0,-0.6459,-0.9641,0.0,0.0,0.0,0.0,0.0,0.0,0.0,0.0,0.0,0.0,0.0,0.0,-0.5518,-0.4661,0.2768,0.6644,0.6372,0.6143,0.6182,0.648,0.6366,0.4421,0.0515,0.0,0.0,0.0,0.0,0.0,0.0,0.0,0.0,0.0,0.0,0.0,0.0,0.0,0.0,0.0,0.0,0.0,0.0,0.0,0.0,0.0,0.0,0.0,0.0,0.0,-2.1141,0.0,0.0,0.0,0.0,0.0,0.0,0.0,0.0,0.0,0.0,0.0,-1.9516,-1.6752,-1.893,-1.9356,-1.5471,-2.0861,-2.4267,0.0,0.0,0.0,0.0,0.0,0.0,0.0,0.0,0.0,0.0,0.0,0.0,0.0,0.0,-1.432,-1.7515,-1.5468,-1.319,-1.3118,0.0,0.0,0.0,0.0,0.0,0.0,0.0,0.0,0.0,0.0,0.0,0.0,0.0,0.0,0.0,0.0,-0.9433,0.0,0.0,0.0,0.0,0.0,0.0,0.0,0.0,-0.654,-0.4871,-0.2995,-0.5848,-0.6028,0.0,-0.7446,-1.0847,0.0,0.0,0.0,0.0,0.0,0.0,0.0,0.0,-0.5589,-0.4738,0.3023,0.6952,0.6548,0.6477,0.6455,0.6488,0.6513,0.5487,0.3345,0.6123,0.42,0.0,0.0,0.0,0.0,0.0,0.0,0.0,0.0,0.0,0.0,0.0,0.0,0.0,0.0,0.0,0.0,0.0,0.0,0.0,0.0,0.0,0.0,0.0,-2.1447,0.0,0.0,0.0,0.0,0.0,0.0,0.0,0.0,0.0,-1.7524,-1.864,-1.8719,-1.6826,-1.8892,-1.9241,-1.5591,0.0,0.0,0.0,0.0,0.0,0.0,0.0,-1.9665,-2.1552,-1.8126,-1.3809,-0.9643,-1.2292,-1.3314,-0.8305,0.0,0.0,-1.1529,-1.1456,-0.9742,-0.8411,-1.4293,-1.712,-0.9228,-0.8216,-0.8529,0.0,0.0,0.0,0.0,0.0,0.0,0.0,0.0,-0.4724,-0.7754,0.0,0.0,0.0,0.0,0.0,0.0,0.0,0.0,0.0,0.0,0.1623,0.3471,0.098,-0.0186,-0.0589,-0.0724,-0.5026,-0.661,-0.5447,-0.4085,0.0,0.0,0.0,0.0,0.0,0.0,-0.4666,-0.1767,0.4449,0.7333,0.6634,0.6966,0.6966,0.6629,0.6572,0.6886,0.7643,0.7802,0.6293,0.2786,-0.5482,0.0,0.0,0.0,0.0,0.0,0.0,0.0,0.0,0.0,0.0,0.0,0.0,0.0,0.0,0.0,0.0,0.0,0.0,0.0,0.0,-2.293,0.0,0.0,0.0,0.0,0.0,0.0,0.0,0.0,0.0,0.0,-1.3934,-1.3262,-1.6157,-2.4129,0.0,0.0,0.0,0.0,-2.5239,-2.4898,-1.8275,-1.6015,-2.3495,-1.7096,-1.2138,-1.4694,0.0,0.0,0.0496,-0.327,-0.6498,-0.6831,0.231,0.6098,-0.6822,-1.1077,-1.1819,-0.7913,-0.7361,-0.7527,-0.5998,-0.3326,-0.2954,-0.5428,0.0,0.0,0.0,0.0,-0.8332,-0.5636,-0.1209,-0.1254,-0.199,-0.312,-0.1464,0.0,0.0,0.0,0.0,0.0,0.0,-0.4641,-0.1411,0.059,0.2578,0.4637,0.448,0.4824,0.5582,0.4708,0.4587,0.5121,0.555,-0.032,-1.2,0.0,0.0,0.0,0.0,-0.3505,0.0345,0.5171,0.7752,0.7854,0.8069,0.8213,0.8286,0.7685,0.7619,0.8194,0.9077,0.7369,0.267,0.0434,0.0,0.0,0.0,0.0,0.0,0.0,0.0,0.0,0.0,0.0,0.0,0.0,0.0,0.0,0.0,0.0,0.0,0.0,0.0,-1.4865,-1.4627,-1.6621,0.0,0.0,0.0,0.0,0.0,0.0,0.0,0.0,0.0,-2.159,-1.5919,-1.5229,0.0,0.0,-2.2184,-2.4261,-2.4982,-2.366,-1.9129,0.0,0.0,0.0,-1.842,-1.8228,-1.0117,-0.4796,-0.1294,-0.0104,0.1691,0.3228,0.3787,0.6999,0.8229,0.5424,0.3699,0.3392,0.4864,0.6029,0.661,0.6222,0.6846,0.7014,0.1658,-0.1463,-0.4869,-0.5447,-0.4085,-0.3944,-0.1323,0.2902,0.2905,0.1852,0.0272,0.2485,-0.0212,-0.6458,-0.5894,0.0,0.0,0.0,-0.1197,0.262,0.274,0.4165,0.66,0.6919,0.7469,0.8177,0.8562,0.8934,0.9265,0.745,0.2308,-0.5987,0.0,0.0,-0.7399,-0.3815,-0.0105,0.3736,0.6728,0.8359,0.8623,0.8718,0.8736,0.8677,0.839,0.8315,0.8567,0.9995,0.9175,0.5634,0.429,0.1519,0.0,0.0,0.0,0.0,0.0,0.0,0.0,0.0,0.0,0.0,0.0,-1.7417,0.0,0.0,0.0,0.0,-2.361,-2.2611,-1.7762,-1.7153,0.0,0.0,0.0,0.0,0.0,0.0,0.0,-2.5546,-2.5179,-2.4947,-2.509,-1.7505,-1.4226,-2.0381,-2.3543,-2.5129,-2.4687,0.0,-1.7748,-1.2934,-1.6401,-1.7137,-1.0095,-1.1611,-1.0998,-0.3098,-0.0216,0.1476,0.2881,0.5347,0.7245,0.8185,0.8829,0.9332,0.9778,1.047,1.111,1.1231,1.2291,1.2814,1.1921,1.1505,1.1118,0.729,0.6012,-0.2435,-0.3491,0.0339,0.0663,0.3177,0.6992,0.7032,0.4285,0.0159,0.5224,0.2103,-0.688,-0.5574,0.0,0.0,0.1702,0.3556,0.6713,0.7024,0.7236,0.7516,0.7795,0.8062,0.8295,0.8172,0.841,0.8742,0.4728,0.2773,0.3179,0.2905,0.1983,0.0553,0.1535,0.3914,0.7346,0.8049,0.8651,0.915,0.9189,0.8964,0.8513,0.8812,0.9,0.9094,1.0663,1.125,1.0371,0.6852,0.3974,0.2039,0.0,0.0,0.0,0.0,0.0,0.0,0.0,0.0,0.0,0.0,0.0,0.0,0.0,0.0,0.0,-2.317,0.0,-2.7219,-2.503,0.0,0.0,0.0,-2.3498,-2.3418,-2.5178,-2.5932,-2.4725,0.0,0.0,0.0,0.0,-1.2734,-1.3444,-1.9742,-2.432,-2.4314,-1.653,-0.9713,-0.7582,-0.8456,-0.8549,-0.5145,-0.1037,0.2305,0.3968,0.5281,0.5759,0.7155,0.7314,0.7356,0.7912,0.8667,0.9332,0.9494,1.0922,1.2194,1.2449,1.2871,1.3167,1.2985,1.1843,1.0752,0.6773,0.6179,0.4162,0.4094,0.5292,0.5619,0.6386,0.7368,0.7609,0.7086,0.6248,0.7325,0.6284,0.3759,0.4113,0.4769,0.5582,0.6092,0.6781,0.758,0.8064,0.8342,0.8383,0.814,0.8456,0.9147,0.8994,0.9091,0.9391,0.873,0.6332,0.2544,0.2977,0.1475,-0.2047,-0.2121,0.0,0.4242,0.3867,0.5883,1.0293,1.0781,1.0916,1.0781,0.9473,0.9458,1.0874,1.1377,1.1648,1.1738,1.0811,0.9278,0.6951,-0.0713,0.0,0.0,0.0,0.0,0.0,0.0,0.0,0.0,0.0,-1.6016,-1.8961,0.0,-1.5433,0.0,-1.2238,-1.1425,-1.4456,-1.4095,0.0,0.0,-1.6093,-1.5521,-1.6713,-2.1543,-2.5549,-2.7632,-1.5308,-0.5644,-0.354,-0.7751,-0.8633,-0.3013,-0.9887,-1.571,-1.553,-1.2886,-0.9392,-0.6124,-0.2175,0.0962,0.1316,0.2556,0.3972,0.5076,0.5301,0.5923,0.7628,0.7787,0.7863,0.839,0.899,0.9649,1.0377,1.1095,1.1852,1.2766,1.3128,1.3415,1.3956,1.2566,1.1303,0.6485,0.6398,0.652,0.6834,0.7228,0.7439,0.7513,0.754,0.7796,0.8023,0.8163,0.8228,0.8329,0.8453,0.8526,0.8609,0.8692,0.8812,0.8871,0.881,0.9111,0.9368,0.9614,0.9198,0.9409,1.0096,0.9635,0.9563,0.9892,1.068,0.944,0.6392,0.759,0.5792,0.1043,-0.2241,-0.2654,-0.0166,0.1685,0.538,1.0939,1.1436,1.0229,0.7412,0.5772,0.4446,0.3439,0.2329,0.2539,0.4273,0.488,0.4222,0.2146,-0.3115,-0.7654,0.0,0.0,0.0,0.0,0.0,0.0,0.0,0.0,0.0,0.0,0.0,-1.3006,0.0,-0.8545,0.0,-0.8761,-1.0112,-1.1166,-1.1982,-1.1113,-0.9685,-0.7519,-1.0892,-1.4101,-1.5814,-0.5675,0.2181,0.3651,-0.066,-0.2322,0.2609,-0.1552,-0.5301,-0.5774,-0.4747,-0.3115,-0.1215,0.2065,0.4414,0.4189,0.3946,0.4219,0.5375,0.5466,0.5899,0.7572,0.7655,0.778,0.8553,0.907,0.9688,1.0682,1.1244,1.1961,1.3064,1.3336,1.3349,1.3655,1.2594,1.1665,0.6418,0.6647,0.6647,0.6961,0.7513,0.7547,0.7594,0.7654,0.7909,0.7995,0.8036,0.8502,0.9073,0.9652,0.9785,1.0118,1.0561,1.0315,1.0074,0.9936,1.0077,1.0373,1.0864,1.0524,1.0569,1.0957,1.036,1.0217,1.0537,1.1619,1.1776,1.1057,1.2389,1.0421,0.5061,-0.0967,-0.407,-0.4139,0.0734,0.5683,1.0467,0.9882,0.6803,0.1424,-0.0311,-0.2791,-0.6391,-0.9171,-0.9012,-0.557,-0.3862,-0.3589,-0.4848,-0.6217,-0.9062,0.0,-1.6483,0.0,0.0,0.0,0.0,0.0,0.0,0.0,0.0,-1.008,-1.0428,-1.2426,-0.8228,-0.5533,-0.5816,-0.8103,-0.888,-0.713,-0.6936,-0.455,0.1165,0.11,0.0402,0.0267,0.2252,0.384,0.4203,0.4185,0.4143,0.4234,0.3978,0.2971,0.2656,0.3049,0.3811,0.4477,0.447,0.4599,0.4811,0.4455,0.4634,0.5861,0.5809,0.5996,0.7621,0.7523,0.7516,0.8586,0.9262,0.9875,1.0833,1.1472,1.2235,1.3488,1.3454,1.319,1.3124,1.243,1.1738,0.6673,0.6941,0.6899,0.7141,0.7527,0.7736,0.7976,0.8223,0.8517,0.8644,0.8644,0.8741,0.9048,0.9432,0.946,0.953,0.9632,1.0347,1.0451,1.0088,1.091,1.1334,1.1465,1.1567,1.1571,1.1522,1.2163,1.2369,1.2087,1.3163,1.1398,0.7032,0.7589,0.5158,0.0,0.0,0.0,0.0,0.0765,0.3862,0.525,0.0555,-0.2444,-0.3478,-0.673,0.0,-0.5363,-0.8645,-0.8919,-0.5359,-0.1748,0.0,0.0,0.0,0.0,0.0,0.0,0.0,0.0,0.0,0.0,0.0,-1.0743,-0.9534,-0.4492,-0.4409,-0.59,-0.8524,-0.5813,-0.2249,0.1457,0.1222,0.0977,0.1484,0.1366,0.1876,0.3166,0.3035,0.2553,0.1606,0.2906,0.3849,0.3822,0.4132,0.4337,0.4187,0.4341,0.4375,0.4067,0.4249,0.4477,0.4477,0.447,0.5023,0.6309,0.5476,0.5188,0.6387,0.6385,0.652,0.7572,0.7938,0.8203,0.9151,1.0196,1.1008,1.1531,1.1735,1.2142,1.3148,1.3245,1.3338,1.3752,1.2773,1.1942,0.6887,0.0,0.6972,0.7281,0.0,0.7815,0.8134,0.8597,0.8744,0.8804,0.8811,0.9159,0.957,1.0095,1.0222,1.0565,1.1095,1.1378,1.1469,1.1524,1.2018,1.2253,1.2253,1.2122,1.2014,1.193,1.2246,1.2306,1.2126,1.3117,1.2044,0.9065,1.0081,0.9052,0.6065,0.5909,0.4259,0.0974,0.283,0.5302,0.8141,0.5402,0.2401,-0.0286,0.0,0.0,0.0,0.0,0.0,0.0,0.0,0.0,0.0,0.0,0.0,-0.4347,-0.7332,-0.7589,-0.4654,-0.4617,-0.3709,-0.1231,-0.1282,-0.1994,-0.3093,-0.1243,-0.0553,-0.2006,-0.0722,0.119,0.3545,0.3776,0.3748,0.3835,0.3721,0.3619,0.3589,0.3591,0.3388,0.3032,0.3475,0.3959,0.4009,0.4196,0.4319,0.4251,0.4395,0.4463,0.4463,0.4467,0.447,0.447,0.4467,0.4794,0.5531,0.5421,0.5291,0.6281,0.6393,0.6708,0.7704,0.8021,0.8407,0.935,1.0466,1.1394,1.1726,1.1902,1.2318,1.3196,1.3181,1.3051,1.3502,1.2997,1.2555,0.6973,0.7065,0.6983,0.736,0.8016,0.7961,0.8317,0.8804,0.0,0.0,0.0,0.951,1.0218,1.0922,1.1191,1.1835,1.2744,1.2471,1.25,1.2764,1.2977,1.3055,1.3045,1.2782,1.2596,1.2553,1.2308,1.2138,1.2119,1.2976,1.318,1.2871,1.4204,1.4779,1.444,1.4161,1.1753,0.7277,0.5353,0.6642,1.114,1.0258,0.7438,0.2655,0.2567,0.0247,-0.4486,-0.4716,-0.4978,-0.563,-0.697,-0.6941,-0.5065,-0.055,-0.0156,-0.4823,-0.6492,-0.493,0.0086,0.0041,0.1959,0.7091,0.7407,0.4587,-0.2154,0.1512,0.3947,0.3622,0.3753,0.3835,0.3835,0.3765,0.3775,0.3822,0.368,0.3588,0.3612,0.3636,0.3677,0.3858,0.3873,0.4045,0.4306,0.4323,0.4324,0.4429,0.4512,0.4463,0.4463,0.4463,0.446,0.4508,0.4618,0.471,0.4606,0.5187,0.562,0.6531,0.6698,0.6992,0.7773,0.8177,0.861,0.9262,1.0504,1.1483,1.1959,1.2248,1.269,1.3631,1.3041,1.2542,1.3075,1.31,1.2936,0.686,0.7377,0.7009,0.7393,0.8367,0.831,0.8504,0.8804,0.8804,0.8804,0.8857,0.9517,1.0403,1.142,1.1648,1.1937,1.2307,1.2646,1.2627,0.0,1.3236,1.3684,1.3684,1.4125,1.4262,1.4101,1.4165,1.4201,1.4045,1.4291,1.4427,1.4451,1.5136,1.5707,1.6028,1.5103,1.4181,1.3265,0.7021,0.4261,0.5218,0.008,-0.2863,-0.3399,-0.3214,-0.3793,-0.464,-0.4524,-0.4855,-0.5224,-0.3569,-0.1473,0.1214,0.4971,0.6934,0.648,0.5758,0.5636,0.6197,0.6418,0.669,0.7086,0.7143,0.6513,0.525,0.5676,0.54,0.3847,0.37,0.3691,0.3832,0.3739,0.3724,0.3921,0.3741,0.3626,0.3727,0.3646,0.3639,0.3832,0.391,0.3993,0.4121,0.4298,0.4426,0.4457,0.4463,0.4515,0.4505,0.4463,0.4505,0.4594,0.5035,0.5065,0.5211,0.611,0.7148,0.7754,0.8052,0.8218,0.8586,0.8861,0.9133,0.9262,1.0853,1.2116,1.274,1.2994,1.3226,1.3591,1.2802,1.2333,1.3205,1.2969,1.2478,0.7186,0.7146,0.7323,0.7798,0.839,0.8537,0.8684,0.8804,0.8804,0.8804,0.891,0.9865,1.0498,1.0861,1.1918,1.2241,1.2014,1.2628,1.2773,1.2645,1.3412,1.3724,1.3718,1.428,1.4416,1.4245,1.4337,1.4337,1.4235,1.413,1.4194,1.4547,1.5222,1.5908,1.638,1.5287,1.4709,1.463,1.0722,0.8708,0.8821,0.6085,0.4669,0.4838,0.4838,0.4838,0.4838,0.4838,0.4728,0.4418,0.5877,0.704,0.7727,0.9036,0.964,0.9498,0.8686,0.8043,0.7742,0.7849,0.7852,0.7813,0.7819,0.7723,0.7611,0.6929,0.5894,0.4603,0.4582,0.4445,0.4007,0.3785,0.3751,0.388,0.3704,0.3612,0.3701,0.3674,0.3673,0.3873,0.3975,0.4056,0.4281,0.4419,0.4463,0.4463,0.4519,0.4601,0.4785,0.482,0.4735,0.4664,0.5535,0.6717,0.7407,0.7605,0.8101,0.8568,0.8706,0.8943,0.9332,0.9679,0.9953,1.0522,1.1619,1.2449,1.3026,1.3563,1.388,1.3897,1.3066,1.273,1.3211,1.3077,1.2672,0.7521,0.7218,0.7652,0.8147,0.8584,0.8811,0.8905,0.8905,0.8905,0.8871,0.9015,1.0218,1.0769,1.0953,1.2302,1.2656,1.2308,1.2752,1.3165,1.3481,1.4045,1.4282,1.4165,1.4708,1.4849,1.454,1.4393,1.435,1.4356,1.4066,1.4215,1.4839,1.5337,1.5908,1.6479,1.5287,1.4709,1.4606,1.3525,1.2891,1.2891,1.2891,1.2881,1.2891,1.2813,1.2891,1.2891,1.2978,1.2965,1.2748,1.3251,1.3183,1.2338,1.1516,1.0731,1.0007,0.9015,0.8404,0.8114,0.813,0.8223,0.8444,0.8435,0.837,0.8327,0.7456,0.6438,0.562,0.5553,0.5259,0.4462,0.4084,0.3922,0.3915,0.374,0.3585,0.3581,0.3578,0.3673,0.3921,0.3999,0.4121,0.4442,0.4656,0.4842,0.5007,0.4952,0.5108,0.536,0.5514,0.5431,0.5398,0.6251,0.8067,1.0212,0.9492,0.8969,0.9485,0.9348,0.9582,1.0108,1.0379,1.075,1.1557,1.2247,1.2864,1.3362,1.3942,1.4596,1.486,1.4,1.3099,1.342,1.3415,1.3069,0.7716,0.8169,0.7912,0.8242,0.9064,0.911,0.9117,0.9123,0.9143,0.8991,0.8962,1.021,1.1514,1.2572,1.2841,1.3036,1.3256,1.3396,1.3982,1.4903,1.5679,1.5964,1.5897,1.6546,1.6418,1.5656,1.5214,1.518,1.5295,1.5142,1.5454,1.6068,1.5792,1.5913,1.6318,1.5322,1.472,1.4709,1.3515,1.2891,1.2891,1.2891,1.2891,1.2891,1.2891,1.2891,1.2939,1.3252,1.3416,1.3433,1.3252,1.3132,1.2922,1.174,1.0694,1.0089,0.9242,0.8771,0.8731,0.8724,0.8717,0.8731,0.8529,0.8372,0.8387,0.7993,0.738,0.6585,0.6119,0.5677,0.5228,0.4657,0.4389,0.4357,0.3943,0.3578,0.3633,0.3578,0.3688,0.3792,0.4063,0.4127,0.4501,0.5131,0.5764,0.6095,0.6209,0.6293,0.6376,0.667,0.6808,0.6702,0.7209,0.8922,1.1305,1.0995,1.0178,1.0611,1.046,1.0361,1.0667,1.0922,1.1223,1.2188,1.2671,1.3329,1.4009,1.4499,1.4917,1.559,1.4869,1.3716,1.3632,1.3661,1.3582,0.8099,0.8007,0.8271,0.8598,0.8924,0.8985,0.8985,0.8985,0.8931,0.8931,0.9013,1.0493,1.1835,1.288,1.314,1.3138,1.2941,1.3542,1.4113,1.4631,1.5669,1.6118,1.6112,1.6871,1.7082,1.6863,1.6407,1.6342,1.6667,1.6732,1.6637,1.6388,1.6822,1.6832,1.6232,1.5813,1.5388,1.4956,1.4063,1.3613,1.3594,1.3379,1.3369,1.3594,1.3623,1.3623,1.3633,1.3789,1.3994,1.4248,1.4141,1.424,1.4412,1.3295,1.2415,1.1766,1.0287,0.9404,0.9377,0.9047,0.8804,0.8804,0.8548,0.8406,0.838,0.7936,0.7504,0.7135,0.6657,0.6106,0.55,0.512,0.4957,0.487,0.4439,0.4135,0.424,0.3936,0.3929,0.4553,0.4712,0.465,0.4824,0.6264,0.7063,0.6879,0.6874,0.7058,0.7065,0.7201,0.7261,0.7412,0.8133,0.9463,1.1172,1.1073,1.0761,1.0897,1.0641,1.0515,1.1031,1.1372,1.1825,1.2938,1.3336,1.3832,1.4543,1.3889,1.3795,1.4944,1.5225,1.4105,1.3997,1.4057,1.3958,0.848,0.8115,0.8665,0.8925,0.8931,0.9018,0.8998,0.8925,0.9138,0.9063,0.904,1.0878,1.2439,1.3518,1.3679,1.3408,1.3296,1.3955,1.4582,1.5093,1.6112,1.6613,1.6741,1.7299,1.7675,1.7731,1.7478,1.7511,1.7838,1.7868,1.7537,1.7182,1.7823,1.7593,1.6416,1.6277,1.5833,1.5122,1.445,1.4136,1.4248,1.4014,1.3945,1.4068,1.4087,1.4087,1.4087,1.4238,1.4453,1.4766,1.4893,1.5098,1.5313,1.4667,1.3743,1.2541,1.1007,0.9997,0.9798,0.9503,0.933,0.9332,0.9076,0.8895,0.8678,0.8126,0.7712,0.7468,0.7006,0.648,0.6024,0.577,0.5641,0.5545,0.5125,0.4947,0.4936,0.464,0.4873,0.5533,0.5718,0.5641,0.5676,0.7246,0.829,0.7521,0.758,0.7765,0.7695,0.7644,0.7666,0.7898,0.8699,0.9557,1.0561,1.1022,1.117,1.1225,1.1005,1.0912,1.1326,1.1637,1.233,1.3293,1.3789,1.4194,1.4652,1.3897,1.3646,1.4435,1.4823,1.473,1.4489,1.4499,1.441,0.8752,0.8798,0.9044,0.9137,0.9176,0.9479,0.9452,0.9261,0.9883,0.9695,0.9253,1.1353,1.3474,1.5107,1.4429,1.4272,1.4612,1.4736,1.5704,1.7071,1.7444,1.7881,1.8507,1.8437,1.8382,1.8429,1.8374,1.8468,1.8638,1.8215,1.8246,1.8759,1.8495,1.7835,1.6994,1.648,1.5855,1.5133,1.4496,1.4355,1.4697,1.4727,1.4531,1.4194,1.4107,1.4145,1.4165,1.4551,1.4775,1.4795,1.5099,1.5323,1.54,1.5313,1.4041,1.1574,1.0906,1.045,1.0069,1.03,1.0581,1.0604,1.0262,1.0018,0.9315,0.8754,0.8194,0.7661,0.7257,0.6963,0.6898,0.6639,0.6455,0.6252,0.6154,0.5934,0.5723,0.6005,0.6385,0.6524,0.666,0.6908,0.7219,0.8143,0.8672,0.8553,0.8659,0.8626,0.8567,0.8362,0.8373,0.8517,0.8643,0.8846,1.0915,1.1832,1.1922,1.1861,1.1802,1.1712,1.1737,1.1954,1.2877,1.3676,1.4219,1.4597,1.4747,1.4994,1.5315,1.5726,1.5884,1.5762,1.5498,1.5078,1.4989,0.8911,0.9017,0.8998,0.901,0.917,0.9165,0.9268,0.9578,0.9835,1.0068,1.0424,1.2068,1.3806,1.5401,1.5091,1.4883,1.487,1.5548,1.6279,1.6978,1.7852,1.8447,1.8703,1.9073,1.9307,1.9287,1.93,1.9328,1.9359,1.9214,1.8973,1.8922,1.9132,1.8425,1.7042,1.7,1.6515,1.5391,1.5008,1.5029,1.5156,1.5186,1.5098,1.4961,1.4951,1.4951,1.4951,1.4639,1.4647,1.5128,1.4857,1.4874,1.5274,1.5071,1.3951,1.1913,1.0913,1.0605,1.0965,1.0462,1.0174,1.017,1.0303,0.9962,0.8973,0.8714,0.8427,0.7789,0.7503,0.7438,0.7511,0.7372,0.7245,0.7241,0.6978,0.6795,0.6668,0.6616,0.6611,0.7042,0.7602,0.8239,0.8453,0.8754,0.8771,0.8788,0.8804,0.8771,0.8791,0.8664,0.8741,0.9283,0.9452,1.0049,1.1976,1.2919,1.3173,1.2722,1.2524,1.293,1.3083,1.2861,1.3539,1.4418,1.4957,1.5321,1.5556,1.6233,1.6601,1.6519,1.6686,1.672,1.6768,1.6327,1.6083,0.8925,0.9017,0.8991,0.9106,0.9397,0.9307,0.9611,1.0138,1.049,1.0729,1.1157,1.2779,1.4332,1.5342,1.5658,1.5618,1.5425,1.6131,1.6765,1.7257,1.8232,1.8821,1.9097,1.9592,1.9798,1.9798,1.9798,1.9798,1.9798,1.9798,1.9423,1.8756,1.9214,1.8501,1.6933,1.7034,1.6641,1.5633,1.542,1.541,1.542,1.542,1.542,1.541,1.542,1.542,1.541,1.4864,1.465,1.4838,1.465,1.4805,1.5264,1.4697,1.3718,1.2502,1.1744,1.1385,1.1674,1.1184,1.0821,1.0819,1.1045,1.0722,0.9841,0.9747,0.9306,0.8618,0.7961,0.7885,0.8078,0.8049,0.7977,0.792,0.7743,0.7629,0.7646,0.7431,0.7571,0.802,0.8823,0.9301,0.9238,0.915,0.8982,0.886,0.8803,0.8765,0.8804,0.8804,0.9061,0.9762,1.0629,1.1402,1.2773,1.379,1.4325,1.403,1.3854,1.4184,1.4243,1.4016,1.4227,1.5123,1.5687,1.6055,1.6617,1.7317,1.743,1.729,1.7238,1.7263,1.7395,1.7553,1.7168,0.8811,0.8931,0.9112,0.947,0.9896,1.012,1.0446,1.0904,1.1886,1.1815,1.1635,1.3636,1.4951,1.5553,1.614,1.6472,1.6599,1.6687,1.7357,1.8447,1.8715,1.915,1.9695,1.9747,1.9798,1.9798,1.9798,1.9798,1.9798,1.9798,1.9411,1.8874,1.8874,1.8286,1.6606,1.6708,1.6255,1.5642,1.5478,1.542,1.542,1.542,1.542,1.542,1.542,1.542,1.542,1.5294,1.4847,1.4212,1.4819,1.5342,1.5119,1.4343,1.3456,1.3132,1.319,1.2804,1.205,1.2292,1.245,1.2453,1.2702,1.2525,1.2046,1.1549,1.0893,1.0083,0.8954,0.8343,0.8709,0.8717,0.8479,0.8061,0.8316,0.8501,0.8506,0.8825,0.922,0.9367,0.9856,0.9986,0.933,0.9389,0.9486,0.8991,0.8808,0.8838,0.8818,0.8804,0.9106,0.9909,1.0764,1.1541,1.3102,1.4655,1.5116,1.5441,1.5381,1.5457,1.5296,1.5121,1.5372,1.6119,1.6522,1.6888,1.7386,1.7991,1.8078,1.7967,1.7911,1.7893,1.8067,1.8164,1.7878,0.9185,0.976,0.9652,1.0098,1.0793,1.0697,1.0963,1.151,1.2214,1.2794,1.3493,1.4395,1.5379,1.6244,1.6513,1.7034,1.795,1.8004,1.8274,1.8715,1.9202,1.9527,1.9747,1.9798,1.9798,1.9798,1.9798,1.9798,1.9798,1.9798,1.9631,1.9475,1.9423,1.8992,1.7961,1.7523,1.6944,1.6441,1.5778,1.542,1.542,1.542,1.542,1.542,1.542,1.542,1.541,1.4874,1.4718,1.4819,1.4709,1.4569,1.4514,1.4408,1.3894,1.3013,1.2405,1.2386,1.2565,1.228,1.2194,1.2248,1.2627,1.251,1.2076,1.1807,1.1514,1.0939,0.9655,0.8854,0.9259,0.9061,0.8756,0.8557,0.8697,0.8778,0.8697,0.8844,0.9196,0.9662,0.9583,0.9538,0.992,1.023,0.9886,0.9074,0.8974,0.8991,0.8871,0.8818,0.9309,1.0364,1.0806,1.1576,1.3396,1.4762,1.5402,1.5917,1.615,1.6233,1.6148,1.6404,1.6697,1.6953,1.7363,1.7744,1.8246,1.847,1.8561,1.8635,1.8578,1.8658,1.8811,1.8621,1.8266,0.9528,1.0098,1.0156,1.0688,1.1438,1.126,1.1663,1.2397,1.2917,1.3676,1.4552,1.5179,1.5982,1.6818,1.7179,1.7797,1.8661,1.898,1.9097,1.915,1.954,1.9798,1.9798,1.9798,1.9798,1.9798,1.9798,1.9798,1.9798,1.9798,1.9643,1.9423,1.9371,1.898,1.834,1.7841,1.7246,1.6451,1.6016,1.57,1.5468,1.542,1.542,1.542,1.542,1.542,1.5352,1.4923,1.4874,1.5167,1.4628,1.4332,1.461,1.4529,1.4164,1.3571,1.2977,1.2724,1.3027,1.2596,1.2212,1.2278,1.2628,1.2686,1.2183,1.2141,1.2067,1.1477,1.0629,0.9885,0.9747,0.9465,0.9113,0.8804,0.8798,0.8804,0.8831,0.9011,0.9375,0.978,0.9767,0.99,1.0342,1.054,1.0335,0.9604,0.9308,0.9157,0.8991,0.8871,0.965,1.0458,1.1189,1.231,1.3831,1.4868,1.5631,1.617,1.6621,1.6728,1.6752,1.7466,1.7958,1.8041,1.8349,1.8517,1.8943,1.8977,1.9028,1.9109,1.8988,1.8817,1.8697,1.8717,1.8513,0.9829,0.9991,1.0568,1.1275,1.185,1.1873,1.2451,1.3404,1.3969,1.437,1.4958,1.5986,1.6708,1.7222,1.8093,1.8608,1.8886,1.9423,1.9695,1.9695,1.9798,1.9798,1.9798,1.9798,1.9798,1.9798,1.9798,1.9798,1.9798,1.9798,1.9488,1.898,1.8939,1.8501,1.8112,1.7743,1.7114,1.6269,1.6306,1.6093,1.5468,1.542,1.542,1.542,1.542,1.542,1.541,1.5294,1.5352,1.5294,1.4697,1.4688,1.5108,1.466,1.4315,1.4369,1.4233,1.3672,1.3392,1.2988,1.2783,1.2813,1.2822,1.2891,1.2813,1.2706,1.252,1.2017,1.1674,1.1157,1.0269,0.9917,0.9614,0.9015,0.8857,0.8818,0.8911,0.9345,0.9724,1.005,1.035,1.0618,1.0604,1.0575,1.0519,1.0347,0.9802,0.9502,0.9212,0.9221,0.9582,1.0387,1.1477,1.2445,1.3805,1.5188,1.5747,1.5223,1.6271,1.7363,1.7454,1.8145,1.8918,1.905,1.9139,1.9327,1.9279,1.9197,1.908,1.8953,1.8791,1.8591,1.8502,1.8502,1.8449,1.0262,1.0922,1.1327,1.1931,1.2559,1.2608,1.2957,1.3586,1.4501,1.5118,1.5758,1.6818,1.7644,1.8255,1.8513,1.8992,1.9423,1.9747,1.9798,1.9798,1.9798,1.9798,1.9798,1.9798,1.9798,1.9798,1.9798,1.9798,1.9798,1.9798,1.9695,1.9527,1.9423,1.9371,1.9202,1.8661,1.817,1.7534,1.6775,1.6151,1.5526,1.542,1.542,1.542,1.542,1.542,1.542,1.542,1.542,1.541,1.5235,1.5167,1.5303,1.4648,1.4246,1.4346,1.3763,1.3243,1.3116,1.3027,1.2959,1.2891,1.2949,1.2891,1.2891,1.2891,1.2774,1.252,1.2187,1.1665,1.1266,1.0762,1.0269,0.9614,0.9232,0.9079,0.9325,0.9579,0.9892,1.0322,1.0517,1.0598,1.0598,1.0613,1.0622,1.0641,1.0492,1.0144,0.9888,0.9439,0.9734,1.0918,1.1935,1.2597,1.3647,1.5164,1.5553,1.4469,1.5641,1.8086,1.8155,1.8451,1.9194,1.9735,1.9714,1.9834,1.9344,1.9002,1.8896,1.8681,1.8319,1.8014,1.8111,1.8138,1.7975,1.0843,1.117,1.1931,1.2501,1.291,1.3066,1.3389,1.3945,1.4976,1.5742,1.6383,1.7487,1.8286,1.8715,1.9044,1.9371,1.9798,2.0105,2.0207,2.0258,2.0258,2.0105,1.9901,1.9798,1.9798,1.9798,1.9798,1.9798,1.9798,1.9798,1.9798,1.9798,1.9798,1.9798,1.9695,1.9423,1.8774,1.8075,1.7301,1.6472,1.5526,1.542,1.542,1.542,1.542,1.542,1.542,1.542,1.542,1.541,1.542,1.542,1.5361,1.4795,1.4266,1.3952,1.3503,1.3428,1.3398,1.345,1.3382,1.3263,1.3213,1.3144,1.3008,1.2891,1.2891,1.2832,1.2461,1.2138,1.1756,1.1216,1.0802,1.0525,1.0174,0.9818,0.9593,0.9713,0.9987,1.0294,1.0474,1.0618,1.0618,1.0618,1.094,1.1385,1.1533,1.1256,1.1025,1.0375,1.0216,1.1456,1.225,1.2849,1.39,1.5395,1.6722,1.5647,1.6751,1.9017,1.8885,1.8944,1.9186,1.9756,2.0047,2.0057,1.9421,1.8802,1.8349,1.8085,1.7715,1.7769,1.7987,1.8282,1.8029,1.1493,1.1082,1.2419,1.2939,1.3027,1.3398,1.3861,1.4477,1.5562,1.633,1.7026,1.8209,1.8821,1.8886,1.9423,1.9798,1.9862,2.0245,2.051,2.056,2.0597,2.0396,1.985,1.9798,1.9798,1.9798,1.9798,1.9798,1.9798,1.9798,1.9798,1.9798,1.9798,1.9798,1.9747,1.9631,1.8927,1.7929,1.76,1.6856,1.5911,1.5806,1.5864,1.5642,1.5478,1.542,1.542,1.542,1.542,1.542,1.542,1.542,1.5361,1.501,1.4521,1.3857,1.4063,1.4235,1.4314,1.449,1.4305,1.3886,1.3882,1.3721,1.3395,1.3296,1.3248,1.3104,1.3027,1.2647,1.208,1.1425,1.1345,1.1496,1.1517,1.0949,1.0072,1.0027,1.0302,1.0174,1.0483,1.0717,1.0624,1.0758,1.115,1.2119,1.2196,1.197,1.1842,1.1618,1.1574,1.2175,1.273,1.2974,1.427,1.567,1.6944,1.7544,1.9077,2.0458,1.9767,1.9619,1.9383,1.9497,1.9758,1.9709,1.9345,1.8734,1.8042,1.782,1.7669,1.7932,1.8245,1.8637,1.8627,1.1861,1.206,1.3004,1.3369,1.3447,1.3828,1.454,1.5517,1.6373,1.7314,1.8258,1.915,1.9527,1.954,1.9695,1.9798,1.985,2.0042,2.0016,2.0093,2.0597,2.0396,1.9965,1.9888,1.9811,1.9811,1.9798,1.9811,1.9811,1.9836,1.9798,1.9798,1.9798,1.9798,1.9747,1.9319,1.8543,1.7731,1.7633,1.7202,1.6641,1.6743,1.6754,1.6255,1.5738,1.5459,1.541,1.542,1.542,1.541,1.541,1.5468,1.5342,1.5066,1.5044,1.5372,1.5088,1.5049,1.5268,1.5566,1.5538,1.4698,1.4866,1.4907,1.4419,1.4258,1.4071,1.3789,1.361,1.3238,1.2773,1.2539,1.2434,1.2411,1.2458,1.2393,1.2012,1.1916,1.1526,1.0939,1.1107,1.1288,1.0681,1.0737,1.143,1.2578,1.2857,1.2562,1.2625,1.2747,1.2981,1.3338,1.2761,1.3152,1.4628,1.6102,1.7558,1.867,2.0289,2.1528,2.0844,2.0487,2.0337,1.9888,1.943,1.9256,1.8901,1.8368,1.7637,1.7646,1.7735,1.8111,1.8467,1.8914,1.9177,1.2503,1.2516,1.3399,1.3799,1.392,1.4613,1.5293,1.6116,1.7258,1.8137,1.8773,1.9475,1.9798,1.9798,1.9798,1.9798,1.9991,2.0471,2.0706,2.0805,2.1113,2.0881,2.0398,2.0193,2.0112,1.9899,2.01,2.0075,1.9924,2.0024,2.01,1.9811,1.9798,1.9798,1.9811,1.9371,1.8874,1.8286,1.8124,1.7743,1.7246,1.7357,1.7468,1.6847,1.6079,1.5622,1.6384,1.6472,1.629,1.6094,1.5971,1.5748,1.5505,1.5405,1.5862,1.6623,1.6436,1.6088,1.6358,1.6689,1.6718,1.5858,1.6112,1.5754,1.5332,1.5061,1.4958,1.4501,1.3936,1.3326,1.3442,1.3213,1.3243,1.3565,1.3493,1.3451,1.3339,1.3017,1.2454,1.1712,1.1989,1.1574,1.1195,1.1253,1.1764,1.2977,1.4162,1.401,1.415,1.4252,1.4346,1.4231,1.3237,1.3411,1.492,1.6559,1.8274,1.937,2.0493,2.1534,2.1745,2.1531,2.1403,2.0438,1.9297,1.8622,1.8208,1.7685,1.7482,1.7603,1.7808,1.8252,1.8732,1.9249,1.9481,1.3176,1.2834,1.3786,1.4282,1.4556,1.5525,1.6158,1.6656,1.797,1.8732,1.8992,1.954,1.9798,1.9798,1.9798,1.9798,2.0181,2.1197,2.1677,2.1293,2.1472,2.121,2.0788,2.0476,2.0188,1.9886,2.0326,2.0326,2.02,2.0263,2.0125,1.9849,1.9798,1.9798,1.9811,1.9643,1.9202,1.8661,1.8555,1.8382,1.795,1.7961,1.8015,1.7555,1.6709,1.6446,1.7269,1.7634,1.7609,1.6977,1.6763,1.6317,1.5847,1.5736,1.6569,1.7673,1.7486,1.7254,1.7438,1.7808,1.796,1.74,1.7457,1.7105,1.6418,1.6161,1.6078,1.5612,1.5008,1.4143,1.4195,1.4042,1.4195,1.4453,1.436,1.4296,1.4231,1.3726,1.3193,1.2493,1.2785,1.2708,1.231,1.2212,1.2744,1.3305,1.4492,1.5399,1.5449,1.5505,1.5389,1.5711,1.4985,1.4844,1.6209,1.6969,1.8703,2.0166,2.1072,2.1605,2.221,2.1626,2.1069,2.0031,1.9043,1.8364,1.7814,1.7517,1.7419,1.7543,1.8107,1.8816,1.9269,1.9644,1.9735,1.3659,1.3903,1.4437,1.5044,1.5641,1.6224,1.7104,1.8158,1.8549,1.9044,1.9579,1.9747,1.9798,1.9798,1.9798,1.9798,2.0194,2.139,2.188,2.1259,2.1376,2.1307,2.0848,2.0399,2.0039,1.9999,2.0416,2.0605,2.0338,2.0162,2.0037,1.9849,1.9798,1.9798,1.9631,1.9254,1.8992,1.8874,1.878,1.8555,1.8661,1.8939,1.898,1.8543,1.7639,1.7521,1.7831,1.8713,1.8846,1.7632,1.7423,1.7159,1.6684,1.6036,1.6982,1.8495,1.8566,1.8294,1.8675,1.9066,1.9158,1.8869,1.8839,1.8816,1.8415,1.8006,1.7703,1.7468,1.6907,1.6094,1.51,1.4925,1.4836,1.4884,1.4766,1.4778,1.4955,1.4864,1.4255,1.3382,1.3666,1.407,1.3666,1.3399,1.3657,1.4085,1.4803,1.5642,1.6033,1.6033,1.5982,1.6438,1.6961,1.7171,1.7709,1.8126,1.9096,2.0834,2.1736,2.1889,2.2076,2.1275,2.0487,1.9641,1.8855,1.8125,1.7678,1.729,1.7567,1.7855,1.8634,1.9456,1.9661,1.9851,1.9903,1.4284,1.507,1.5472,1.6092,1.683,1.74,1.8004,1.8661,1.9097,1.9475,1.9683,1.9798,1.9798,1.9798,1.9798,1.9798,2.0232,2.1376,2.1595,2.1028,2.1064,2.1113,2.0812,2.036,2.033,2.0326,2.0592,2.0529,2.0263,2.03,2.0037,1.9836,1.9798,1.9798,1.9631,1.9085,1.8927,1.9032,1.8874,1.8874,1.9202,1.9695,1.9527,1.9254,1.8927,1.8768,1.8869,1.9279,1.9324,1.8529,1.8254,1.807,1.771,1.7528,1.7731,1.9324,1.9397,1.9377,1.9737,1.9965,1.9911,2.0453,2.0576,2.0468,2.0017,1.9486,1.9175,1.8961,1.8399,1.7513,1.6245,1.585,1.5427,1.5167,1.4951,1.5019,1.5273,1.5391,1.4855,1.4246,1.4628,1.4902,1.4968,1.4831,1.479,1.4959,1.5293,1.5914,1.6589,1.6565,1.6549,1.7111,1.7606,1.7457,1.7968,1.863,1.9666,2.1404,2.2231,2.239,2.2212,2.1571,2.0571,1.9503,1.8717,1.8112,1.7317,1.685,1.7528,1.8236,1.8957,1.9546,1.9814,1.9978,2.0004,1.4938,1.6058,1.6392,1.7034,1.7841,1.8447,1.8768,1.9044,1.9527,1.9747,1.9798,1.9952,1.9952,1.9901,2.0042,2.0144,1.9991,2.1232,2.15,2.0944,2.0845,2.0795,2.074,2.0604,2.0388,2.0288,2.0376,2.0326,2.0225,2.0238,2.0137,1.9859,1.9695,1.9579,1.9371,1.8703,1.9032,1.8992,1.9044,1.9085,1.9631,1.9798,1.9798,1.9798,1.9798,1.9747,1.9643,1.9733,1.9634,1.923,1.9022,1.8936,1.8897,1.8775,1.9121,1.988,2.0027,2.0347,2.0518,2.0589,2.082,2.1601,2.202,2.1798,2.1489,2.0896,2.0502,2.0178,1.98,1.8903,1.7767,1.6743,1.6161,1.5642,1.5298,1.5086,1.5504,1.5728,1.5591,1.536,1.5651,1.5961,1.6216,1.6128,1.605,1.6103,1.6382,1.6738,1.7353,1.7269,1.7389,1.7833,1.7979,1.7446,1.786,1.882,2.0224,2.2228,2.2543,2.2537,2.2369,2.202,2.086,1.9628,1.8976,1.8272,1.7332,1.6847,1.7493,1.8284,1.9119,1.9603,1.9797,1.9869,1.9838,1.5391,1.6465,1.6518,1.7302,1.8501,1.8715,1.9085,1.9631,1.9747,1.9798,1.9862,2.0308,2.0245,2.0194,2.1002,2.0756,2.062,2.1355,2.1643,2.0795,2.0709,2.0709,2.066,2.0131,2.0051,2.0037,1.9987,2.02,2.0238,2.0075,1.9936,1.9747,1.9254,1.8874,1.8939,1.8112,1.7797,1.8015,1.8501,1.9097,1.9683,1.9798,1.9798,1.9798,1.9798,1.9798,1.9798,1.9798,1.971,1.971,1.9672,1.967,1.9633,1.9645,2.0131,2.0664,2.0927,2.0924,2.1015,2.1186,2.1638,2.2295,2.2243,2.2141,2.2083,2.2152,2.1727,2.1036,2.1,2.0492,1.9157,1.8128,1.7247,1.643,1.583,1.5847,1.6151,1.6645,1.6448,1.6509,1.6807,1.729,1.7656,1.7467,1.7367,1.7396,1.7475,1.785,1.8201,1.8265,1.7748,1.8064,1.882,1.8461,1.901,1.9784,2.1279,2.323,2.2728,2.2628,2.2658,2.233,2.1025,1.9959,1.9368,1.914,1.885,1.8492,1.8081,1.8375,1.9273,1.9603,1.969,1.9741,1.9812,1.5685,1.7135,1.7135,1.7961,1.9267,1.9319,1.9463,1.9747,1.9798,1.9798,1.985,2.0042,2.0245,2.0534,2.1328,2.1183,2.0683,2.1272,2.1126,2.0434,2.0258,2.0258,2.0156,1.9952,1.9798,1.9798,1.9811,1.9899,2.0037,1.9987,1.9798,1.9695,1.9097,1.8727,1.8501,1.7523,1.7622,1.8167,1.8939,1.9475,1.9747,1.9798,1.9798,1.9798,1.9798,1.9798,1.9798,1.9798,1.9798,1.9798,1.9798,1.9798,1.9798,1.985,2.0118,2.0835,2.1264,2.1527,2.188,2.202,2.2515,2.2978,2.2891,2.2849,2.279,2.2669,2.2275,2.1199,2.1137,2.0729,1.9927,1.8862,1.7731,1.6912,1.6528,1.6482,1.68,1.7434,1.7682,1.7836,1.8031,1.8708,1.9042,1.8572,1.8387,1.8374,1.8654,1.9108,1.951,1.9775,1.8995,1.8043,1.8964,1.9645,2.0585,2.1555,2.2932,2.41,2.2485,2.2526,2.3013,2.2539,2.1279,2.0992,2.0965,2.0724,2.0458,1.9719,1.8899,1.9118,1.9449,1.9912,2.0314,2.0142,2.0266,1.5663,1.6993,1.7278,1.8212,1.9515,1.9558,1.9685,1.9798,1.9798,1.9798,1.985,1.9991,2.0446,2.0966,2.1424,2.1342,2.0809,2.0809,2.0409,2.0003,1.9798,1.985,1.985,1.9798,1.9798,1.9798,1.9798,1.9836,1.9823,1.9798,1.9798,1.9747,1.8756,1.8447,1.8004,1.7191,1.6856,1.8167,1.8992,1.9488,1.9747,1.9798,1.9798,1.9798,1.9798,1.9798,1.9798,1.9798,1.9798,1.9798,1.9798,1.9914,2.0144,2.0029,2.0584,2.1348,2.1949,2.2179,2.256,2.2847,2.3084,2.3333,2.3551,2.3274,2.3039,2.292,2.2737,2.1937,2.1322,2.0779,1.9889,1.9117,1.8274,1.7677,1.7357,1.7191,1.7346,1.8193,1.9153,1.9811,2.0092,2.044,2.0484,1.9698,1.9386,1.9389,1.9759,2.0338,2.0642,2.0946,2.0061,1.8986,2.0011,2.164,2.4077,2.4858,2.5775,2.4782,2.3132,2.2391,2.2843,2.2586,2.1608,2.1727,2.2221,2.2289,2.1982,2.0805,1.9792,2.0208,2.0604,2.0855,2.1007,2.0864,2.1036,1.5023,1.5467,1.6433,1.7546,1.879,1.8956,1.9359,1.9723,1.9786,1.9798,1.9901,2.0396,2.0979,2.1438,2.1486,2.1293,2.0809,2.0809,2.0346,1.9952,1.9798,1.9798,1.9798,1.9798,1.9798,1.9798,1.9798,1.9798,1.9798,1.9798,1.9798,1.9631,1.8501,1.7895,1.7413,1.6698,1.6631,1.7786,1.8661,1.9319,1.9643,1.9798,1.9798,1.9798,1.9798,1.9798,1.9798,1.9798,1.9798,1.9798,1.9798,2.0182,2.0485,2.0445,2.1166,2.2255,2.2402,2.2682,2.3157,2.3363,2.3493,2.3551,2.3595,2.3551,2.3377,2.3465,2.3378,2.3031,2.2085,2.0965,2.0014,1.9162,1.8691,1.8328,1.8112,1.8209,1.8466,1.9221,2.0271,2.1529,2.2083,2.2225,2.2435,2.177,2.0748,2.0641,2.1077,2.1666,2.1588,2.1685,2.0854,2.0388,2.1474,2.3923,2.815,2.8373,2.592,2.4717,2.3543,2.2834,2.265,2.2146,2.1472,2.2555,2.3086,2.33,2.3351,2.2274,2.1569,2.1582,2.1779,2.2046,2.2207,2.2168,2.2433,1.4202,1.4631,1.5488,1.6619,1.7888,1.8647,1.9083,1.9359,1.966,1.9798,1.985,2.051,2.0983,2.1229,2.1188,2.1015,2.0746,2.0359,2.0042,1.9901,1.9798,1.9798,1.9798,1.9798,1.9798,1.9798,1.9798,1.9798,1.9798,1.9747,1.9798,1.9371,1.8178,1.7479,1.6866,1.6754,1.7135,1.7677,1.8715,1.9527,1.9695,1.9798,1.9798,1.9798,1.9798,1.9798,1.9798,1.9798,1.9798,1.9798,1.9798,2.0334,2.1014,2.1113,2.1945,2.2956,2.274,2.298,2.3391,2.3595,2.3595,2.3595,2.3595,2.3595,2.3595,2.3595,2.3584,2.3198,2.2409,2.1131,2.001,1.9508,1.9254,1.8927,1.8809,1.8967,1.9414,2.0067,2.0899,2.1945,2.301,2.3682,2.3925,2.4038,2.2886,2.1971,2.2462,2.2863,2.2849,2.2773,2.2146,2.1949,2.2927,2.4424,2.8406,2.7214,2.5109,2.4408,2.375,2.2973,2.2237,2.1634,2.1349,2.2642,2.3788,2.3918,2.3875,2.3581,2.305,2.2366,2.2617,2.3317,2.3383,2.3468,2.3767,1.3993,1.4369,1.5224,1.6107,1.7083,1.8092,1.8744,1.9021,1.9397,1.9685,1.9837,2.0459,2.072,2.072,2.0809,2.0795,2.0646,2.0194,1.9901,1.9798,1.9798,1.9798,1.9798,1.9798,1.9798,1.9798,1.9747,1.9747,1.9423,1.9475,1.9032,1.8447,1.7852,1.709,1.7146,1.7024,1.7468,1.8167,1.8768,1.9643,1.9695,1.9798,1.9798,1.9798,1.9798,1.9798,1.9798,1.9798,1.9798,1.9914,2.0118,2.0523,2.1238,2.2007,2.2696,2.2913,2.3009,2.3187,2.3465,2.3595,2.3595,2.3595,2.3595,2.3595,2.3595,2.361,2.3599,2.3472,2.2386,2.1069,1.9961,1.9698,1.9579,1.9254,1.9359,1.9567,1.994,2.0518,2.139,2.2335,2.35,2.4852,2.5933,2.6132,2.5258,2.427,2.4281,2.444,2.4168,2.4123,2.3961,2.3942,2.4411,2.6041,2.7729,2.5947,2.4377,2.389,2.3181,2.2282,2.1577,2.1186,2.1588,2.2952,2.3897,2.4375,2.4479,2.4308,2.3535,2.2613,2.3323,2.4208,2.4928,2.5063,2.5063,1.4489,1.481,1.5823,1.6251,1.6379,1.7117,1.8078,1.8982,1.9145,1.9409,1.9825,2.0446,2.0416,2.0163,2.0468,2.0597,2.056,2.0055,1.9798,1.9798,1.9798,1.9798,1.9695,1.9643,1.9475,1.9747,1.9475,1.9097,1.8715,1.8715,1.8058,1.7413,1.7146,1.6978,1.7424,1.6866,1.7302,1.8436,1.8715,1.9267,1.9695,1.9798,1.9798,1.9798,1.9798,1.9798,1.9798,1.9798,1.985,2.0055,2.0575,2.1095,2.1746,2.278,2.336,2.3466,2.3465,2.3551,2.3595,2.3595,2.3595,2.3595,2.3595,2.3595,2.3595,2.3596,2.3482,2.3241,2.2141,2.0895,2.018,1.9786,1.9695,1.9695,1.9798,2.008,2.0495,2.0913,2.1736,2.3118,2.4525,2.59,2.7414,2.82,2.7504,2.6827,2.6454,2.6099,2.5645,2.5547,2.5527,2.5702,2.5981,2.6615,2.7389,2.5181,2.3727,2.3275,2.2725,2.1946,2.1922,2.2161,2.273,2.3571,2.4284,2.5051,2.5163,2.5114,2.4269,2.3601,2.4291,2.5159,2.5983,2.6404,2.6117,1.4611,1.4766,1.5531,1.5832,1.6009,1.7331,1.8355,1.9007,1.9371,1.9648,1.9825,2.0093,2.0067,1.9965,1.994,2.0169,2.008,2.0055,1.9798,1.9798,1.9747,1.9423,1.9267,1.9044,1.8874,1.8447,1.834,1.834,1.795,1.795,1.7841,1.7302,1.709,1.709,1.7034,1.6978,1.7797,1.8608,1.915,1.9592,1.9798,1.9798,1.9798,1.9798,1.9798,1.9786,1.9786,1.9798,1.9978,2.0359,2.0987,2.1499,2.2217,2.3225,2.3555,2.3583,2.3595,2.3595,2.3595,2.3595,2.3595,2.3595,2.3595,2.3595,2.3595,2.3595,2.3318,2.2855,2.2038,2.0935,2.0118,1.9837,1.9747,1.9747,1.994,2.0471,2.0939,2.1349,2.2144,2.3983,2.553,2.6801,2.8246,2.8606,2.8158,2.8207,2.7801,2.7533,2.7166,2.7175,2.7171,2.7304,2.7518,2.7656,2.7182,2.5095,2.3662,2.3136,2.2584,2.1872,2.2094,2.2728,2.3616,2.4321,2.508,2.5746,2.5631,2.5468,2.4997,2.4837,2.5215,2.5643,2.6303,2.659,2.6556,1.5141,1.5377,1.5732,1.6138,1.6605,1.7551,1.8317,1.902,1.956,1.9812,1.9826,1.9787,1.9535,1.9384,1.9447,1.9535,1.9522,1.9522,1.9414,1.9426,1.9411,1.8927,1.8501,1.8352,1.829,1.7788,1.76,1.7589,1.7401,1.7257,1.7146,1.7146,1.7479,1.7523,1.7413,1.7688,1.8124,1.8821,1.9359,1.9423,1.9695,1.9798,1.9798,1.9812,1.9825,1.9788,1.9799,1.9902,2.0105,2.0683,2.1229,2.1773,2.2598,2.32,2.3541,2.3611,2.3595,2.3595,2.3595,2.3595,2.3595,2.3595,2.3595,2.3595,2.3595,2.3595,2.3393,2.2864,2.2016,2.1224,2.0409,2.0156,1.9798,1.9798,2.0144,2.067,2.1156,2.1574,2.2944,2.4785,2.6343,2.7631,2.8593,2.8587,2.8483,2.8795,2.9082,2.8747,2.842,2.8403,2.8234,2.8191,2.7793,2.7343,2.66,2.5142,2.3915,2.3107,2.254,2.2011,2.2303,2.2936,2.4039,2.5035,2.5524,2.5888,2.5921,2.5737,2.5415,2.535,2.5592,2.606,2.6607,2.6708,2.6708,1.5964,1.6479,1.6534,1.7067,1.7915,1.7589,1.8041,1.9032,1.9497,1.9712,1.9797,1.9712,1.9321,1.8593,1.8808,1.8971,1.8957,1.8945,1.8809,1.8725,1.865,1.8178,1.7809,1.76,1.7601,1.7811,1.7568,1.6888,1.6793,1.657,1.6482,1.6765,1.7302,1.7731,1.8004,1.8286,1.8661,1.9254,1.9359,1.9475,1.9695,1.9798,1.9798,1.9799,1.9813,1.9915,1.9927,2.0053,2.0403,2.0948,2.15,2.2067,2.268,2.329,2.3508,2.3595,2.3595,2.3595,2.3595,2.3595,2.3595,2.3595,2.3595,2.3595,2.3595,2.3551,2.3408,2.2869,2.2142,2.1554,2.0934,2.0372,1.9798,2.0003,2.0295,2.0756,2.1287,2.2305,2.3834,2.5411,2.6879,2.8028,2.8671,2.881,2.8398,2.8672,2.8838,2.8783,2.8613,2.9047,2.8806,2.8349,2.7768,2.6634,2.5738,2.5129,2.4308,2.3584,2.298,2.2563,2.2862,2.326,2.4287,2.5189,2.5726,2.6049,2.6173,2.6115,2.5914,2.5954,2.6054,2.623,2.6657,2.6691,2.6742,1.6324,1.6479,1.6534,1.671,1.7011,1.7275,1.8003,1.8895,1.8832,1.9052,1.9782,1.9003,1.8767,1.9279,1.8597,1.8527,1.8398,1.8301,1.804,1.7927,1.7961,1.7413,1.7112,1.6976,1.6782,1.642,1.6171,1.6151,1.5941,1.5748,1.614,1.6539,1.7302,1.8004,1.8555,1.8992,1.9371,1.9579,1.9475,1.9579,1.9695,1.9798,1.9798,1.9799,1.9877,2.0041,2.0356,2.0492,2.1046,2.196,2.2267,2.2694,2.329,2.3508,2.3595,2.3595,2.3595,2.3595,2.3595,2.3595,2.3595,2.3595,2.3595,2.3595,2.3595,2.3566,2.3437,2.2904,2.2221,2.1561,2.0957,2.0396,1.9837,1.9786,2.0181,2.0779,2.1437,2.2851,2.4439,2.6204,2.7647,2.8009,2.8651,2.8324,2.8009,2.8301,2.8505,2.8496,2.8632,2.9023,2.8945,2.8446,2.7898,2.6814,2.6363,2.5829,2.4912,2.4101,2.3571,2.3186,2.3172,2.3676,2.4625,2.5379,2.598,2.6315,2.6505,2.6417,2.6256,2.6399,2.6471,2.6573,2.6657,2.6624,2.6624,1.6534,1.6534,1.6534,1.6534,1.6622,1.7137,1.7802,1.8292,1.8242,1.8599,1.9028,1.8523,1.8072,1.7614,1.7507,1.76,1.7601,1.7493,1.7429,1.7611,1.7257,1.6922,1.6684,1.6363,1.6009,1.5536,1.542,1.5584,1.5468,1.5748,1.614,1.6539,1.7413,1.8167,1.8715,1.9267,1.9695,1.9798,1.9798,1.9798,1.9798,1.9798,1.9798,1.9888,2.0042,2.0518,2.0868,2.1064,2.1913,2.2603,2.2709,2.2979,2.3465,2.3595,2.3595,2.3595,2.3595,2.3595,2.3595,2.3595,2.3595,2.3595,2.3638,2.3595,2.3595,2.3566,2.3436,2.3113,2.2285,2.152,2.0953,2.0383,1.9876,1.9359,2.008,2.0739,2.1989,2.3311,2.5077,2.6987,2.7824,2.8091,2.8084,2.7684,2.7575,2.7832,2.8117,2.826,2.835,2.8577,2.8446,2.7991,2.7646,2.7126,2.6734,2.623,2.5389,2.4729,2.4538,2.4138,2.3819,2.422,2.5243,2.5819,2.6298,2.6488,2.659,2.6657,2.6607,2.6607,2.6454,2.6332,2.6297,2.6332,2.6367,1.6371,1.6358,1.6391,1.6459,1.6597,1.7061,1.7313,1.7375,1.779,1.8105,1.8234,1.8033,1.6781,1.5893,1.6155,1.6535,1.6539,1.6523,1.6688,1.739,1.6698,1.6312,1.6151,1.5816,1.5594,1.5478,1.542,1.542,1.5584,1.5806,1.6151,1.6549,1.7731,1.8447,1.8768,1.9423,1.9798,1.9798,1.9798,1.9798,1.9798,1.9798,1.985,2.0067,2.0515,2.1021,2.1239,2.1777,2.2548,2.2665,2.2889,2.3157,2.3377,2.3595,2.3595,2.3595,2.3595,2.3698,2.3741,2.3812,2.3837,2.3837,2.3752,2.3822,2.3891,2.3666,2.3465,2.3187,2.2469,2.1791,2.1232,2.037,1.9683,1.9475,1.9799,2.0709,2.1882,2.3638,2.5874,2.7347,2.7673,2.7791,2.6911,2.6462,2.638,2.6974,2.7487,2.7708,2.8066,2.8193,2.8065,2.7699,2.7465,2.717,2.6633,2.6147,2.5693,2.5281,2.5166,2.4934,2.4441,2.5036,2.5888,2.6262,2.6539,2.6505,2.659,2.6437,2.625,2.6245,2.6087,2.5924,2.5888,2.5888,2.6068,1.5266,1.5316,1.5718,1.612,1.6509,1.666,1.6735,1.6735,1.6848,1.7402,1.7852,1.6818,1.5775,1.5009,1.5033,1.5419,1.5976,1.5677,1.5619,1.6074,1.5911,1.6026,1.5758,1.5642,1.541,1.542,1.542,1.542,1.5468,1.57,1.6036,1.6539,1.7523,1.8112,1.8661,1.9307,1.9798,1.9798,1.9798,1.9798,1.9798,1.9901,2.0003,2.0333,2.0864,2.1281,2.1635,2.2303,2.2921,2.3275,2.3377,2.3465,2.3595,2.3595,2.3595,2.3595,2.3653,2.3844,2.4048,2.417,2.4348,2.4641,2.4689,2.4474,2.4246,2.3864,2.3508,2.3172,2.2725,2.21,2.1411,2.0458,1.9592,1.9527,1.9659,2.0735,2.1941,2.4296,2.6635,2.7198,2.754,2.6821,2.5859,2.5447,2.5371,2.5789,2.647,2.6974,2.7517,2.7789,2.7946,2.7677,2.743,2.7092,2.6555,2.6235,2.5931,2.5783,2.5709,2.5416,2.5076,2.5632,2.6189,2.6453,2.6657,2.659,2.6266,2.5702,2.5595,2.5721,2.5598,2.5373,2.5253,2.5176,2.5577,1.4903,1.494,1.5171,1.5617,1.6046,1.6095,1.6107,1.6151,1.638,1.6829,1.7247,1.6191,1.5245,1.4704,1.4499,1.4956,1.5638,1.5184,1.6108,1.6504,1.5796,1.6026,1.5911,1.569,1.5468,1.542,1.542,1.542,1.542,1.5468,1.5748,1.6197,1.6968,1.7852,1.8394,1.915,1.9798,1.9798,1.9798,1.9798,1.9798,1.985,1.9901,2.0295,2.072,2.1239,2.1708,2.2306,2.3039,2.3406,2.3551,2.3551,2.3595,2.3595,2.3595,2.3696,2.3912,2.4189,2.4411,2.4668,2.4902,2.5201,2.5234,2.492,2.4759,2.4346,2.3837,2.3493,2.2732,2.2127,2.1452,2.0557,1.9606,1.915,2.0158,2.1373,2.3309,2.5674,2.7108,2.7693,2.7213,2.5664,2.487,2.4445,2.4571,2.554,2.6052,2.7114,2.7564,2.7826,2.7892,2.7639,2.7382,2.7117,2.669,2.6471,2.6317,2.6229,2.6158,2.6101,2.5934,2.6132,2.645,2.6607,2.6624,2.6453,2.6077,2.5409,2.5183,2.5319,2.5096,2.4792,2.4704,2.4695,2.5146,1.4625,1.4672,1.4694,1.4896,1.531,1.5463,1.5452,1.5492,1.5983,1.6286,1.6239,1.5641,1.5119,1.4831,1.4361,1.5115,1.5367,1.4827,1.6148,1.6675,1.6042,1.5958,1.6016,1.5968,1.5584,1.542,1.542,1.542,1.542,1.541,1.5526,1.5738,1.6574,1.7633,1.807,1.8939,1.9798,1.9798,1.9798,1.9798,1.9798,1.985,1.9952,2.0144,2.0434,2.0895,2.1389,2.2098,2.2935,2.3334,2.3595,2.3595,2.3595,2.3595,2.3709,2.3852,2.4265,2.4544,2.4823,2.5217,2.5415,2.5541,2.548,2.5435,2.5354,2.4914,2.4368,2.3653,2.2944,2.2136,2.1458,2.0693,1.9697,1.9391,2.0698,2.2252,2.4628,2.6663,2.7306,2.7879,2.6435,2.483,2.4178,2.3707,2.4458,2.539,2.6344,2.7379,2.8202,2.8454,2.8605,2.7971,2.7358,2.706,2.6742,2.6791,2.6724,2.6539,2.6471,2.6641,2.6758,2.6858,2.6825,2.6624,2.6607,2.6437,2.5857,2.519,2.5061,2.507,2.4768,2.4608,2.4614,2.4661,2.4909,1.3545,1.3636,1.4006,1.4047,1.3994,1.4585,1.4698,1.4492,1.4868,1.5234,1.5268,1.4704,1.443,1.5097,1.3714,1.3936,1.4964,1.4536,1.4611,1.5123,1.5588,1.5708,1.5776,1.5756,1.5517,1.542,1.542,1.542,1.542,1.542,1.541,1.5526,1.68,1.7578,1.7852,1.8821,1.9695,1.9747,1.9798,1.9798,1.9798,1.9901,2.0194,2.0446,2.0746,2.1131,2.1648,2.2309,2.2965,2.3377,2.3595,2.3595,2.3638,2.3681,2.3879,2.4188,2.4636,2.5092,2.544,2.5918,2.6166,2.6674,2.6705,2.672,2.6404,2.5766,2.5109,2.4266,2.3451,2.2381,2.1589,2.067,1.9851,2.0286,2.1186,2.3377,2.568,2.6549,2.715,2.6726,2.5698,2.4611,2.3907,2.4184,2.5353,2.6231,2.7024,2.8043,2.8973,2.9162,2.9263,2.8456,2.7585,2.6994,2.6708,2.7184,2.7198,2.6939,2.6807,2.6989,2.7213,2.7439,2.7378,2.6954,2.6689,2.6504,2.5831,2.5304,2.4997,2.4948,2.4641,2.4461,2.4549,2.4798,2.5203]}]]